<?xml version="1.0" encoding="UTF-8" standalone="no" ?>
<gpx xmlns="http://www.topografix.com/GPX/1/1" xmlns:xsi="http://www.w3.org/2001/XMLSchema-instance" xsi:schemaLocation="http://www.topografix.com/GPX/1/1 http://www.topografix.com/GPX/1/1/gpx.xsd" version="1.1" creator="VisuGPX - https://www.visugpx.com">
  <metadata>
    <name>2019-08-23 05:42 - Finisher de l'Échappée Belle 2019 mais belle claque!</name>
    <desc><![CDATA[<p>Heure de départ: 08/23/2019 05:42<br/>Heure d'arrivée: 08/25/2019 02:53<br/>Distance: 147,6 km (45:10)<br/>Temps déplacement: 35:39<br/>Vitesse moyenne: 3,27 km/h<br/>Vitesse moyenne mouv.: 4,14 km/h<br/>Vitesse Max.: 33,57 km/h<br/>Altitude minimale: 180 m<br/>Altitude maximale: 2966 m<br/>Vitesse de montée: 423,7 m/h<br/>Vitesse de descente: -589,3 m/h<br/>Gain d'altitude: 11056 m<br/>Perte d'altitude: -11003 m<br/>Temps de montée: 26:05<br/>Temps de descente: 18:40<br/></p><hr align="center" width="480" style="height: 2px; width: 517px"/>]]></desc>
  </metadata>
  <trk>
    <name><![CDATA[2019-08-23 05:42 - Finisher de l'Échappée Belle 2019 mais belle claque!]]></name>
    <desc><![CDATA[<p>Heure de départ: 08/23/2019 05:42<br/>Heure d'arrivée: 08/25/2019 02:53<br/>Distance: 147,6 km (45:10)<br/>Temps déplacement: 35:39<br/>Vitesse moyenne: 3,27 km/h<br/>Vitesse moyenne mouv.: 4,14 km/h<br/>Vitesse Max.: 33,57 km/h<br/>Altitude minimale: 180 m<br/>Altitude maximale: 2966 m<br/>Vitesse de montée: 423,7 m/h<br/>Vitesse de descente: -589,3 m/h<br/>Gain d'altitude: 11056 m<br/>Perte d'altitude: -11003 m<br/>Temps de montée: 26:05<br/>Temps de descente: 18:40<br/></p><hr align="center" width="480" style="height: 2px; width: 517px"/>]]></desc>
    <trkseg>
      <trkpt lat="45.07196" lon="5.77236">
        <ele>331.33</ele>
        <time>2019-08-23T03:42:58Z</time>
      </trkpt>
      <trkpt lat="45.07143" lon="5.77267">
        <ele>331.75</ele>
        <time>2019-08-23T03:50:55Z</time>
      </trkpt>
      <trkpt lat="45.07122" lon="5.77313">
        <ele>335.4</ele>
        <time>2019-08-23T03:52:27Z</time>
      </trkpt>
      <trkpt lat="45.07108" lon="5.77388">
        <ele>338</ele>
        <time>2019-08-23T03:56:26Z</time>
      </trkpt>
      <trkpt lat="45.07085" lon="5.77345">
        <ele>337.8</ele>
        <time>2019-08-23T04:03:27Z</time>
      </trkpt>
      <trkpt lat="45.07036" lon="5.77328">
        <ele>343.4</ele>
        <time>2019-08-23T04:03:57Z</time>
      </trkpt>
      <trkpt lat="45.06965" lon="5.77306">
        <ele>346.6</ele>
        <time>2019-08-23T04:04:27Z</time>
      </trkpt>
      <trkpt lat="45.06912" lon="5.77288">
        <ele>343.4</ele>
        <time>2019-08-23T04:04:57Z</time>
      </trkpt>
      <trkpt lat="45.06846" lon="5.77287">
        <ele>340.2</ele>
        <time>2019-08-23T04:05:27Z</time>
      </trkpt>
      <trkpt lat="45.06793" lon="5.77297">
        <ele>339.6</ele>
        <time>2019-08-23T04:05:57Z</time>
      </trkpt>
      <trkpt lat="45.0677" lon="5.77459">
        <ele>341.6</ele>
        <time>2019-08-23T04:06:57Z</time>
      </trkpt>
      <trkpt lat="45.06795" lon="5.77525">
        <ele>345.2</ele>
        <time>2019-08-23T04:07:27Z</time>
      </trkpt>
      <trkpt lat="45.06867" lon="5.77537">
        <ele>354</ele>
        <time>2019-08-23T04:07:57Z</time>
      </trkpt>
      <trkpt lat="45.06941" lon="5.77523">
        <ele>354.2</ele>
        <time>2019-08-23T04:08:26Z</time>
      </trkpt>
      <trkpt lat="45.07001" lon="5.77566">
        <ele>355.8</ele>
        <time>2019-08-23T04:08:58Z</time>
      </trkpt>
      <trkpt lat="45.07132" lon="5.77616">
        <ele>351.8</ele>
        <time>2019-08-23T04:09:57Z</time>
      </trkpt>
      <trkpt lat="45.07212" lon="5.77616">
        <ele>342.4</ele>
        <time>2019-08-23T04:10:27Z</time>
      </trkpt>
      <trkpt lat="45.07265" lon="5.77603">
        <ele>328.8</ele>
        <time>2019-08-23T04:10:57Z</time>
      </trkpt>
      <trkpt lat="45.07336" lon="5.77586">
        <ele>331.4</ele>
        <time>2019-08-23T04:11:27Z</time>
      </trkpt>
      <trkpt lat="45.07398" lon="5.77552">
        <ele>331.4</ele>
        <time>2019-08-23T04:11:57Z</time>
      </trkpt>
      <trkpt lat="45.07463" lon="5.77522">
        <ele>332.8</ele>
        <time>2019-08-23T04:12:28Z</time>
      </trkpt>
      <trkpt lat="45.07587" lon="5.77424">
        <ele>332.4</ele>
        <time>2019-08-23T04:13:27Z</time>
      </trkpt>
      <trkpt lat="45.0758" lon="5.77515">
        <ele>334.8</ele>
        <time>2019-08-23T04:13:57Z</time>
      </trkpt>
      <trkpt lat="45.07564" lon="5.7762">
        <ele>332.4</ele>
        <time>2019-08-23T04:14:27Z</time>
      </trkpt>
      <trkpt lat="45.07559" lon="5.77728">
        <ele>326.2</ele>
        <time>2019-08-23T04:14:57Z</time>
      </trkpt>
      <trkpt lat="45.07552" lon="5.77807">
        <ele>323.8</ele>
        <time>2019-08-23T04:15:27Z</time>
      </trkpt>
      <trkpt lat="45.07479" lon="5.77978">
        <ele>328.6</ele>
        <time>2019-08-23T04:16:27Z</time>
      </trkpt>
      <trkpt lat="45.07444" lon="5.78064">
        <ele>333.8</ele>
        <time>2019-08-23T04:16:57Z</time>
      </trkpt>
      <trkpt lat="45.07443" lon="5.78154">
        <ele>337.8</ele>
        <time>2019-08-23T04:17:26Z</time>
      </trkpt>
      <trkpt lat="45.07437" lon="5.78243">
        <ele>342</ele>
        <time>2019-08-23T04:17:57Z</time>
      </trkpt>
      <trkpt lat="45.07459" lon="5.7831">
        <ele>346</ele>
        <time>2019-08-23T04:18:27Z</time>
      </trkpt>
      <trkpt lat="45.07472" lon="5.78389">
        <ele>313.6</ele>
        <time>2019-08-23T04:18:57Z</time>
      </trkpt>
      <trkpt lat="45.07533" lon="5.78487">
        <ele>323</ele>
        <time>2019-08-23T04:20:28Z</time>
      </trkpt>
      <trkpt lat="45.07598" lon="5.78679">
        <ele>337.6</ele>
        <time>2019-08-23T04:21:28Z</time>
      </trkpt>
      <trkpt lat="45.07687" lon="5.78637">
        <ele>351.2</ele>
        <time>2019-08-23T04:22:57Z</time>
      </trkpt>
      <trkpt lat="45.07745" lon="5.7868">
        <ele>368.2</ele>
        <time>2019-08-23T04:23:57Z</time>
      </trkpt>
      <trkpt lat="45.07768" lon="5.78743">
        <ele>422</ele>
        <time>2019-08-23T04:24:29Z</time>
      </trkpt>
      <trkpt lat="45.07822" lon="5.78778">
        <ele>429.6</ele>
        <time>2019-08-23T04:25:28Z</time>
      </trkpt>
      <trkpt lat="45.07858" lon="5.7884">
        <ele>433.8</ele>
        <time>2019-08-23T04:26:28Z</time>
      </trkpt>
      <trkpt lat="45.07885" lon="5.78943">
        <ele>441.8</ele>
        <time>2019-08-23T04:27:27Z</time>
      </trkpt>
      <trkpt lat="45.07905" lon="5.78995">
        <ele>444.4</ele>
        <time>2019-08-23T04:28:28Z</time>
      </trkpt>
      <trkpt lat="45.07951" lon="5.79117">
        <ele>446.2</ele>
        <time>2019-08-23T04:29:27Z</time>
      </trkpt>
      <trkpt lat="45.08009" lon="5.79165">
        <ele>447.2</ele>
        <time>2019-08-23T04:30:28Z</time>
      </trkpt>
      <trkpt lat="45.08048" lon="5.79246">
        <ele>460.8</ele>
        <time>2019-08-23T04:31:26Z</time>
      </trkpt>
      <trkpt lat="45.08069" lon="5.79313">
        <ele>471.2</ele>
        <time>2019-08-23T04:31:58Z</time>
      </trkpt>
      <trkpt lat="45.08088" lon="5.79363">
        <ele>489.2</ele>
        <time>2019-08-23T04:34:26Z</time>
      </trkpt>
      <trkpt lat="45.08107" lon="5.79416">
        <ele>503</ele>
        <time>2019-08-23T04:34:57Z</time>
      </trkpt>
      <trkpt lat="45.08112" lon="5.79471">
        <ele>526.4</ele>
        <time>2019-08-23T04:35:58Z</time>
      </trkpt>
      <trkpt lat="45.08135" lon="5.79514">
        <ele>523.4</ele>
        <time>2019-08-23T04:36:28Z</time>
      </trkpt>
      <trkpt lat="45.08168" lon="5.79566">
        <ele>545.8</ele>
        <time>2019-08-23T04:37:27Z</time>
      </trkpt>
      <trkpt lat="45.0821" lon="5.79708">
        <ele>562.6</ele>
        <time>2019-08-23T04:38:59Z</time>
      </trkpt>
      <trkpt lat="45.08249" lon="5.79754">
        <ele>585.6</ele>
        <time>2019-08-23T04:42:28Z</time>
      </trkpt>
      <trkpt lat="45.08223" lon="5.7982">
        <ele>602.2</ele>
        <time>2019-08-23T04:43:28Z</time>
      </trkpt>
      <trkpt lat="45.08318" lon="5.79818">
        <ele>628.2</ele>
        <time>2019-08-23T04:45:27Z</time>
      </trkpt>
      <trkpt lat="45.08395" lon="5.79899">
        <ele>645.6</ele>
        <time>2019-08-23T04:47:28Z</time>
      </trkpt>
      <trkpt lat="45.08421" lon="5.79951">
        <ele>660.2</ele>
        <time>2019-08-23T04:47:58Z</time>
      </trkpt>
      <trkpt lat="45.08489" lon="5.79961">
        <ele>669.8</ele>
        <time>2019-08-23T04:49:27Z</time>
      </trkpt>
      <trkpt lat="45.08498" lon="5.80028">
        <ele>684.2</ele>
        <time>2019-08-23T04:49:58Z</time>
      </trkpt>
      <trkpt lat="45.08473" lon="5.80072">
        <ele>702.6</ele>
        <time>2019-08-23T04:51:27Z</time>
      </trkpt>
      <trkpt lat="45.08414" lon="5.80064">
        <ele>708.4</ele>
        <time>2019-08-23T04:52:26Z</time>
      </trkpt>
      <trkpt lat="45.08369" lon="5.80068">
        <ele>709.4</ele>
        <time>2019-08-23T04:52:56Z</time>
      </trkpt>
      <trkpt lat="45.08334" lon="5.8008">
        <ele>714</ele>
        <time>2019-08-23T04:53:26Z</time>
      </trkpt>
      <trkpt lat="45.08291" lon="5.80105">
        <ele>724.6</ele>
        <time>2019-08-23T04:53:57Z</time>
      </trkpt>
      <trkpt lat="45.08252" lon="5.8013">
        <ele>728.6</ele>
        <time>2019-08-23T04:54:57Z</time>
      </trkpt>
      <trkpt lat="45.08197" lon="5.80107">
        <ele>738.8</ele>
        <time>2019-08-23T04:55:27Z</time>
      </trkpt>
      <trkpt lat="45.08147" lon="5.80137">
        <ele>751.4</ele>
        <time>2019-08-23T04:56:28Z</time>
      </trkpt>
      <trkpt lat="45.08064" lon="5.80113">
        <ele>762</ele>
        <time>2019-08-23T04:57:29Z</time>
      </trkpt>
      <trkpt lat="45.08012" lon="5.80086">
        <ele>765.4</ele>
        <time>2019-08-23T04:58:27Z</time>
      </trkpt>
      <trkpt lat="45.07979" lon="5.80052">
        <ele>780.8</ele>
        <time>2019-08-23T04:58:57Z</time>
      </trkpt>
      <trkpt lat="45.07939" lon="5.80039">
        <ele>797.6</ele>
        <time>2019-08-23T04:59:27Z</time>
      </trkpt>
      <trkpt lat="45.07847" lon="5.80074">
        <ele>816.6</ele>
        <time>2019-08-23T05:01:57Z</time>
      </trkpt>
      <trkpt lat="45.07794" lon="5.80003">
        <ele>842</ele>
        <time>2019-08-23T05:03:28Z</time>
      </trkpt>
      <trkpt lat="45.07704" lon="5.79978">
        <ele>871.8</ele>
        <time>2019-08-23T05:05:28Z</time>
      </trkpt>
      <trkpt lat="45.07636" lon="5.79976">
        <ele>898</ele>
        <time>2019-08-23T05:07:28Z</time>
      </trkpt>
      <trkpt lat="45.07596" lon="5.79937">
        <ele>917.2</ele>
        <time>2019-08-23T05:08:58Z</time>
      </trkpt>
      <trkpt lat="45.07542" lon="5.79939">
        <ele>932.2</ele>
        <time>2019-08-23T05:11:28Z</time>
      </trkpt>
      <trkpt lat="45.07521" lon="5.79893">
        <ele>952.4</ele>
        <time>2019-08-23T05:12:28Z</time>
      </trkpt>
      <trkpt lat="45.0747" lon="5.79851">
        <ele>968.8</ele>
        <time>2019-08-23T05:14:58Z</time>
      </trkpt>
      <trkpt lat="45.07432" lon="5.79795">
        <ele>983.2</ele>
        <time>2019-08-23T05:15:58Z</time>
      </trkpt>
      <trkpt lat="45.07379" lon="5.7979">
        <ele>997.8</ele>
        <time>2019-08-23T05:17:28Z</time>
      </trkpt>
      <trkpt lat="45.07341" lon="5.79795">
        <ele>1015.6</ele>
        <time>2019-08-23T05:17:58Z</time>
      </trkpt>
      <trkpt lat="45.07283" lon="5.79796">
        <ele>1024.2</ele>
        <time>2019-08-23T05:18:58Z</time>
      </trkpt>
      <trkpt lat="45.07256" lon="5.79836">
        <ele>1037</ele>
        <time>2019-08-23T05:19:58Z</time>
      </trkpt>
      <trkpt lat="45.07218" lon="5.79834">
        <ele>1054.2</ele>
        <time>2019-08-23T05:20:58Z</time>
      </trkpt>
      <trkpt lat="45.07147" lon="5.79846">
        <ele>1071.6</ele>
        <time>2019-08-23T05:22:58Z</time>
      </trkpt>
      <trkpt lat="45.07106" lon="5.79854">
        <ele>1099.8</ele>
        <time>2019-08-23T05:24:29Z</time>
      </trkpt>
      <trkpt lat="45.07076" lon="5.7989">
        <ele>1115.4</ele>
        <time>2019-08-23T05:25:58Z</time>
      </trkpt>
      <trkpt lat="45.07027" lon="5.79893">
        <ele>1117.8</ele>
        <time>2019-08-23T05:27:26Z</time>
      </trkpt>
      <trkpt lat="45.0696" lon="5.79927">
        <ele>1119</ele>
        <time>2019-08-23T05:27:58Z</time>
      </trkpt>
      <trkpt lat="45.06899" lon="5.79947">
        <ele>1126.4</ele>
        <time>2019-08-23T05:28:28Z</time>
      </trkpt>
      <trkpt lat="45.06842" lon="5.79902">
        <ele>1121.8</ele>
        <time>2019-08-23T05:29:29Z</time>
      </trkpt>
      <trkpt lat="45.06824" lon="5.79973">
        <ele>1127</ele>
        <time>2019-08-23T05:30:26Z</time>
      </trkpt>
      <trkpt lat="45.06848" lon="5.80027">
        <ele>1141.4</ele>
        <time>2019-08-23T05:30:58Z</time>
      </trkpt>
      <trkpt lat="45.06846" lon="5.80109">
        <ele>1148.4</ele>
        <time>2019-08-23T05:31:58Z</time>
      </trkpt>
      <trkpt lat="45.06862" lon="5.80178">
        <ele>1154.4</ele>
        <time>2019-08-23T05:32:58Z</time>
      </trkpt>
      <trkpt lat="45.06895" lon="5.80304">
        <ele>1162.8</ele>
        <time>2019-08-23T05:33:58Z</time>
      </trkpt>
      <trkpt lat="45.06906" lon="5.80392">
        <ele>1171.6</ele>
        <time>2019-08-23T05:34:28Z</time>
      </trkpt>
      <trkpt lat="45.06902" lon="5.8049">
        <ele>1174.6</ele>
        <time>2019-08-23T05:34:58Z</time>
      </trkpt>
      <trkpt lat="45.06924" lon="5.8057">
        <ele>1186</ele>
        <time>2019-08-23T05:35:28Z</time>
      </trkpt>
      <trkpt lat="45.06987" lon="5.80729">
        <ele>1194</ele>
        <time>2019-08-23T05:36:26Z</time>
      </trkpt>
      <trkpt lat="45.07022" lon="5.80823">
        <ele>1190.4</ele>
        <time>2019-08-23T05:36:56Z</time>
      </trkpt>
      <trkpt lat="45.07073" lon="5.80842">
        <ele>1189</ele>
        <time>2019-08-23T05:37:28Z</time>
      </trkpt>
      <trkpt lat="45.07168" lon="5.80894">
        <ele>1189.8</ele>
        <time>2019-08-23T05:37:58Z</time>
      </trkpt>
      <trkpt lat="45.07207" lon="5.80944">
        <ele>1186.4</ele>
        <time>2019-08-23T05:38:28Z</time>
      </trkpt>
      <trkpt lat="45.07288" lon="5.81035">
        <ele>1178.8</ele>
        <time>2019-08-23T05:39:26Z</time>
      </trkpt>
      <trkpt lat="45.07351" lon="5.81055">
        <ele>1185</ele>
        <time>2019-08-23T05:39:57Z</time>
      </trkpt>
      <trkpt lat="45.07418" lon="5.81139">
        <ele>1189.2</ele>
        <time>2019-08-23T05:40:58Z</time>
      </trkpt>
      <trkpt lat="45.07429" lon="5.81197">
        <ele>1195</ele>
        <time>2019-08-23T05:41:28Z</time>
      </trkpt>
      <trkpt lat="45.07373" lon="5.81275">
        <ele>1198</ele>
        <time>2019-08-23T05:42:26Z</time>
      </trkpt>
      <trkpt lat="45.07344" lon="5.81313">
        <ele>1202</ele>
        <time>2019-08-23T05:42:56Z</time>
      </trkpt>
      <trkpt lat="45.07308" lon="5.8134">
        <ele>1207</ele>
        <time>2019-08-23T05:43:26Z</time>
      </trkpt>
      <trkpt lat="45.07271" lon="5.81362">
        <ele>1208.4</ele>
        <time>2019-08-23T05:43:56Z</time>
      </trkpt>
      <trkpt lat="45.07202" lon="5.81424">
        <ele>1213.4</ele>
        <time>2019-08-23T05:44:56Z</time>
      </trkpt>
      <trkpt lat="45.07216" lon="5.81474">
        <ele>1220.4</ele>
        <time>2019-08-23T05:45:26Z</time>
      </trkpt>
      <trkpt lat="45.07251" lon="5.8152">
        <ele>1231</ele>
        <time>2019-08-23T05:46:26Z</time>
      </trkpt>
      <trkpt lat="45.07278" lon="5.81567">
        <ele>1240.8</ele>
        <time>2019-08-23T05:47:26Z</time>
      </trkpt>
      <trkpt lat="45.07304" lon="5.81605">
        <ele>1255.6</ele>
        <time>2019-08-23T05:48:26Z</time>
      </trkpt>
      <trkpt lat="45.07344" lon="5.81651">
        <ele>1260.8</ele>
        <time>2019-08-23T05:49:28Z</time>
      </trkpt>
      <trkpt lat="45.07382" lon="5.8174">
        <ele>1270.8</ele>
        <time>2019-08-23T05:50:58Z</time>
      </trkpt>
      <trkpt lat="45.07416" lon="5.81771">
        <ele>1287.4</ele>
        <time>2019-08-23T05:51:56Z</time>
      </trkpt>
      <trkpt lat="45.07477" lon="5.81813">
        <ele>1305.8</ele>
        <time>2019-08-23T05:53:28Z</time>
      </trkpt>
      <trkpt lat="45.0752" lon="5.81871">
        <ele>1323.8</ele>
        <time>2019-08-23T05:54:58Z</time>
      </trkpt>
      <trkpt lat="45.07563" lon="5.81918">
        <ele>1346.6</ele>
        <time>2019-08-23T05:56:01Z</time>
      </trkpt>
      <trkpt lat="45.07619" lon="5.81929">
        <ele>1363.4</ele>
        <time>2019-08-23T05:56:56Z</time>
      </trkpt>
      <trkpt lat="45.07636" lon="5.81986">
        <ele>1367.6</ele>
        <time>2019-08-23T05:57:57Z</time>
      </trkpt>
      <trkpt lat="45.07656" lon="5.82049">
        <ele>1371.6</ele>
        <time>2019-08-23T05:58:58Z</time>
      </trkpt>
      <trkpt lat="45.07668" lon="5.82133">
        <ele>1387.4</ele>
        <time>2019-08-23T05:59:28Z</time>
      </trkpt>
      <trkpt lat="45.0773" lon="5.82218">
        <ele>1390.4</ele>
        <time>2019-08-23T05:59:58Z</time>
      </trkpt>
      <trkpt lat="45.07767" lon="5.82261">
        <ele>1392.2</ele>
        <time>2019-08-23T06:00:58Z</time>
      </trkpt>
      <trkpt lat="45.07898" lon="5.82329">
        <ele>1394.6</ele>
        <time>2019-08-23T06:01:56Z</time>
      </trkpt>
      <trkpt lat="45.07972" lon="5.8238">
        <ele>1393.6</ele>
        <time>2019-08-23T06:02:27Z</time>
      </trkpt>
      <trkpt lat="45.0804" lon="5.82364">
        <ele>1378.4</ele>
        <time>2019-08-23T06:02:57Z</time>
      </trkpt>
      <trkpt lat="45.08191" lon="5.82294">
        <ele>1379.4</ele>
        <time>2019-08-23T06:03:57Z</time>
      </trkpt>
      <trkpt lat="45.08265" lon="5.8224">
        <ele>1380.2</ele>
        <time>2019-08-23T06:04:28Z</time>
      </trkpt>
      <trkpt lat="45.083" lon="5.8231">
        <ele>1388.6</ele>
        <time>2019-08-23T06:05:26Z</time>
      </trkpt>
      <trkpt lat="45.08322" lon="5.82373">
        <ele>1405.4</ele>
        <time>2019-08-23T06:05:56Z</time>
      </trkpt>
      <trkpt lat="45.08344" lon="5.82455">
        <ele>1419.4</ele>
        <time>2019-08-23T06:06:58Z</time>
      </trkpt>
      <trkpt lat="45.08375" lon="5.82604">
        <ele>1429.4</ele>
        <time>2019-08-23T06:08:28Z</time>
      </trkpt>
      <trkpt lat="45.08375" lon="5.82659">
        <ele>1443</ele>
        <time>2019-08-23T06:08:58Z</time>
      </trkpt>
      <trkpt lat="45.08383" lon="5.82756">
        <ele>1440.8</ele>
        <time>2019-08-23T06:09:58Z</time>
      </trkpt>
      <trkpt lat="45.08405" lon="5.82805">
        <ele>1436</ele>
        <time>2019-08-23T06:10:28Z</time>
      </trkpt>
      <trkpt lat="45.08444" lon="5.83003">
        <ele>1441.4</ele>
        <time>2019-08-23T06:11:28Z</time>
      </trkpt>
      <trkpt lat="45.08526" lon="5.83035">
        <ele>1446.6</ele>
        <time>2019-08-23T06:11:58Z</time>
      </trkpt>
      <trkpt lat="45.08624" lon="5.82954">
        <ele>1449</ele>
        <time>2019-08-23T06:12:58Z</time>
      </trkpt>
      <trkpt lat="45.08698" lon="5.83098">
        <ele>1457.8</ele>
        <time>2019-08-23T06:13:58Z</time>
      </trkpt>
      <trkpt lat="45.08728" lon="5.83164">
        <ele>1458.4</ele>
        <time>2019-08-23T06:14:27Z</time>
      </trkpt>
      <trkpt lat="45.08789" lon="5.83288">
        <ele>1448.4</ele>
        <time>2019-08-23T06:14:59Z</time>
      </trkpt>
      <trkpt lat="45.08905" lon="5.83396">
        <ele>1433.4</ele>
        <time>2019-08-23T06:15:58Z</time>
      </trkpt>
      <trkpt lat="45.08968" lon="5.83463">
        <ele>1431.2</ele>
        <time>2019-08-23T06:16:28Z</time>
      </trkpt>
      <trkpt lat="45.09035" lon="5.83509">
        <ele>1423.2</ele>
        <time>2019-08-23T06:16:57Z</time>
      </trkpt>
      <trkpt lat="45.09088" lon="5.83594">
        <ele>1417.8</ele>
        <time>2019-08-23T06:17:28Z</time>
      </trkpt>
      <trkpt lat="45.09133" lon="5.83666">
        <ele>1413.4</ele>
        <time>2019-08-23T06:17:58Z</time>
      </trkpt>
      <trkpt lat="45.09139" lon="5.83785">
        <ele>1414.2</ele>
        <time>2019-08-23T06:18:28Z</time>
      </trkpt>
      <trkpt lat="45.09115" lon="5.83888">
        <ele>1400.6</ele>
        <time>2019-08-23T06:18:57Z</time>
      </trkpt>
      <trkpt lat="45.09028" lon="5.83939">
        <ele>1396.8</ele>
        <time>2019-08-23T06:19:29Z</time>
      </trkpt>
      <trkpt lat="45.08916" lon="5.84086">
        <ele>1372.8</ele>
        <time>2019-08-23T06:20:27Z</time>
      </trkpt>
      <trkpt lat="45.08916" lon="5.84326">
        <ele>1361.4</ele>
        <time>2019-08-23T06:21:29Z</time>
      </trkpt>
      <trkpt lat="45.0905" lon="5.84448">
        <ele>1341.2</ele>
        <time>2019-08-23T06:22:28Z</time>
      </trkpt>
      <trkpt lat="45.09098" lon="5.84516">
        <ele>1335.8</ele>
        <time>2019-08-23T06:22:58Z</time>
      </trkpt>
      <trkpt lat="45.09139" lon="5.84696">
        <ele>1323.6</ele>
        <time>2019-08-23T06:23:58Z</time>
      </trkpt>
      <trkpt lat="45.09147" lon="5.84844">
        <ele>1331.6</ele>
        <time>2019-08-23T06:24:58Z</time>
      </trkpt>
      <trkpt lat="45.09158" lon="5.84897">
        <ele>1332.4</ele>
        <time>2019-08-23T06:26:28Z</time>
      </trkpt>
      <trkpt lat="45.0916" lon="5.84966">
        <ele>1336</ele>
        <time>2019-08-23T06:26:59Z</time>
      </trkpt>
      <trkpt lat="45.09147" lon="5.85024">
        <ele>1335.2</ele>
        <time>2019-08-23T06:27:29Z</time>
      </trkpt>
      <trkpt lat="45.09212" lon="5.8506">
        <ele>1347.6</ele>
        <time>2019-08-23T06:28:26Z</time>
      </trkpt>
      <trkpt lat="45.09264" lon="5.85071">
        <ele>1349.4</ele>
        <time>2019-08-23T06:28:58Z</time>
      </trkpt>
      <trkpt lat="45.0931" lon="5.85136">
        <ele>1353</ele>
        <time>2019-08-23T06:29:57Z</time>
      </trkpt>
      <trkpt lat="45.09341" lon="5.85175">
        <ele>1368.8</ele>
        <time>2019-08-23T06:30:28Z</time>
      </trkpt>
      <trkpt lat="45.09332" lon="5.85242">
        <ele>1375.6</ele>
        <time>2019-08-23T06:31:29Z</time>
      </trkpt>
      <trkpt lat="45.09362" lon="5.85336">
        <ele>1379</ele>
        <time>2019-08-23T06:32:28Z</time>
      </trkpt>
      <trkpt lat="45.09433" lon="5.85321">
        <ele>1393.8</ele>
        <time>2019-08-23T06:33:26Z</time>
      </trkpt>
      <trkpt lat="45.09472" lon="5.85337">
        <ele>1404.4</ele>
        <time>2019-08-23T06:33:58Z</time>
      </trkpt>
      <trkpt lat="45.09532" lon="5.85292">
        <ele>1411.4</ele>
        <time>2019-08-23T06:34:58Z</time>
      </trkpt>
      <trkpt lat="45.09579" lon="5.85282">
        <ele>1413.4</ele>
        <time>2019-08-23T06:35:28Z</time>
      </trkpt>
      <trkpt lat="45.09648" lon="5.85284">
        <ele>1430.6</ele>
        <time>2019-08-23T06:36:28Z</time>
      </trkpt>
      <trkpt lat="45.09705" lon="5.8534">
        <ele>1439.6</ele>
        <time>2019-08-23T06:37:26Z</time>
      </trkpt>
      <trkpt lat="45.09736" lon="5.85415">
        <ele>1440.4</ele>
        <time>2019-08-23T06:38:28Z</time>
      </trkpt>
      <trkpt lat="45.09766" lon="5.85464">
        <ele>1457.8</ele>
        <time>2019-08-23T06:38:58Z</time>
      </trkpt>
      <trkpt lat="45.09755" lon="5.85574">
        <ele>1471</ele>
        <time>2019-08-23T06:39:57Z</time>
      </trkpt>
      <trkpt lat="45.09756" lon="5.85658">
        <ele>1465.6</ele>
        <time>2019-08-23T06:40:58Z</time>
      </trkpt>
      <trkpt lat="45.09775" lon="5.85721">
        <ele>1472.8</ele>
        <time>2019-08-23T06:41:28Z</time>
      </trkpt>
      <trkpt lat="45.09798" lon="5.85781">
        <ele>1489.8</ele>
        <time>2019-08-23T06:41:58Z</time>
      </trkpt>
      <trkpt lat="45.09837" lon="5.85765">
        <ele>1489.8</ele>
        <time>2019-08-23T06:42:58Z</time>
      </trkpt>
      <trkpt lat="45.09896" lon="5.85744">
        <ele>1497.2</ele>
        <time>2019-08-23T06:43:28Z</time>
      </trkpt>
      <trkpt lat="45.09934" lon="5.85746">
        <ele>1503.6</ele>
        <time>2019-08-23T06:43:58Z</time>
      </trkpt>
      <trkpt lat="45.09973" lon="5.85747">
        <ele>1500.6</ele>
        <time>2019-08-23T06:44:28Z</time>
      </trkpt>
      <trkpt lat="45.10018" lon="5.85775">
        <ele>1500.4</ele>
        <time>2019-08-23T06:44:58Z</time>
      </trkpt>
      <trkpt lat="45.10059" lon="5.85784">
        <ele>1506.6</ele>
        <time>2019-08-23T06:45:28Z</time>
      </trkpt>
      <trkpt lat="45.10129" lon="5.85854">
        <ele>1516.4</ele>
        <time>2019-08-23T06:46:58Z</time>
      </trkpt>
      <trkpt lat="45.10201" lon="5.85907">
        <ele>1523.8</ele>
        <time>2019-08-23T06:48:26Z</time>
      </trkpt>
      <trkpt lat="45.10234" lon="5.85983">
        <ele>1542.4</ele>
        <time>2019-08-23T06:50:26Z</time>
      </trkpt>
      <trkpt lat="45.10263" lon="5.86015">
        <ele>1557.4</ele>
        <time>2019-08-23T06:50:56Z</time>
      </trkpt>
      <trkpt lat="45.10305" lon="5.86112">
        <ele>1564.8</ele>
        <time>2019-08-23T06:51:59Z</time>
      </trkpt>
      <trkpt lat="45.10335" lon="5.86151">
        <ele>1574.6</ele>
        <time>2019-08-23T06:52:59Z</time>
      </trkpt>
      <trkpt lat="45.10347" lon="5.86207">
        <ele>1590.8</ele>
        <time>2019-08-23T06:53:29Z</time>
      </trkpt>
      <trkpt lat="45.10398" lon="5.86234">
        <ele>1602.4</ele>
        <time>2019-08-23T06:54:58Z</time>
      </trkpt>
      <trkpt lat="45.1044" lon="5.86236">
        <ele>1612.6</ele>
        <time>2019-08-23T06:55:29Z</time>
      </trkpt>
      <trkpt lat="45.10505" lon="5.86343">
        <ele>1625.8</ele>
        <time>2019-08-23T06:56:58Z</time>
      </trkpt>
      <trkpt lat="45.10582" lon="5.86409">
        <ele>1640.2</ele>
        <time>2019-08-23T06:57:58Z</time>
      </trkpt>
      <trkpt lat="45.1062" lon="5.86441">
        <ele>1646.2</ele>
        <time>2019-08-23T06:58:57Z</time>
      </trkpt>
      <trkpt lat="45.10699" lon="5.86496">
        <ele>1654.6</ele>
        <time>2019-08-23T07:00:28Z</time>
      </trkpt>
      <trkpt lat="45.10658" lon="5.86537">
        <ele>1661.2</ele>
        <time>2019-08-23T07:01:26Z</time>
      </trkpt>
      <trkpt lat="45.1058" lon="5.86533">
        <ele>1659.6</ele>
        <time>2019-08-23T07:01:57Z</time>
      </trkpt>
      <trkpt lat="45.10515" lon="5.86538">
        <ele>1649.2</ele>
        <time>2019-08-23T07:02:28Z</time>
      </trkpt>
      <trkpt lat="45.1044" lon="5.86581">
        <ele>1647.2</ele>
        <time>2019-08-23T07:02:58Z</time>
      </trkpt>
      <trkpt lat="45.104" lon="5.86679">
        <ele>1647.2</ele>
        <time>2019-08-23T07:03:28Z</time>
      </trkpt>
      <trkpt lat="45.10338" lon="5.86699">
        <ele>1638.8</ele>
        <time>2019-08-23T07:03:59Z</time>
      </trkpt>
      <trkpt lat="45.10205" lon="5.86685">
        <ele>1650.6</ele>
        <time>2019-08-23T07:04:56Z</time>
      </trkpt>
      <trkpt lat="45.10155" lon="5.86788">
        <ele>1655.2</ele>
        <time>2019-08-23T07:05:28Z</time>
      </trkpt>
      <trkpt lat="45.1008" lon="5.86769">
        <ele>1657.6</ele>
        <time>2019-08-23T07:05:58Z</time>
      </trkpt>
      <trkpt lat="45.10012" lon="5.86888">
        <ele>1657</ele>
        <time>2019-08-23T07:07:28Z</time>
      </trkpt>
      <trkpt lat="45.09967" lon="5.86909">
        <ele>1665.2</ele>
        <time>2019-08-23T07:07:59Z</time>
      </trkpt>
      <trkpt lat="45.09928" lon="5.86953">
        <ele>1661</ele>
        <time>2019-08-23T07:08:56Z</time>
      </trkpt>
      <trkpt lat="45.09926" lon="5.87015">
        <ele>1673.4</ele>
        <time>2019-08-23T07:09:28Z</time>
      </trkpt>
      <trkpt lat="45.09939" lon="5.87134">
        <ele>1678.8</ele>
        <time>2019-08-23T07:10:28Z</time>
      </trkpt>
      <trkpt lat="45.09892" lon="5.87212">
        <ele>1680.8</ele>
        <time>2019-08-23T07:11:27Z</time>
      </trkpt>
      <trkpt lat="45.09853" lon="5.87301">
        <ele>1685</ele>
        <time>2019-08-23T07:11:58Z</time>
      </trkpt>
      <trkpt lat="45.09845" lon="5.87421">
        <ele>1686.6</ele>
        <time>2019-08-23T07:12:27Z</time>
      </trkpt>
      <trkpt lat="45.09865" lon="5.87592">
        <ele>1683</ele>
        <time>2019-08-23T07:13:26Z</time>
      </trkpt>
      <trkpt lat="45.09882" lon="5.87649">
        <ele>1686.8</ele>
        <time>2019-08-23T07:13:56Z</time>
      </trkpt>
      <trkpt lat="45.09897" lon="5.87708">
        <ele>1692.8</ele>
        <time>2019-08-23T07:14:26Z</time>
      </trkpt>
      <trkpt lat="45.0991" lon="5.87768">
        <ele>1694.4</ele>
        <time>2019-08-23T07:15:26Z</time>
      </trkpt>
      <trkpt lat="45.0988" lon="5.87737">
        <ele>1693.8</ele>
        <time>2019-08-23T07:18:25Z</time>
      </trkpt>
      <trkpt lat="45.09905" lon="5.87778">
        <ele>1696.8</ele>
        <time>2019-08-23T07:19:26Z</time>
      </trkpt>
      <trkpt lat="45.09945" lon="5.87808">
        <ele>1700</ele>
        <time>2019-08-23T07:25:56Z</time>
      </trkpt>
      <trkpt lat="45.09983" lon="5.87878">
        <ele>1701</ele>
        <time>2019-08-23T07:26:56Z</time>
      </trkpt>
      <trkpt lat="45.10001" lon="5.87934">
        <ele>1705</ele>
        <time>2019-08-23T07:27:26Z</time>
      </trkpt>
      <trkpt lat="45.10018" lon="5.87993">
        <ele>1708.4</ele>
        <time>2019-08-23T07:27:56Z</time>
      </trkpt>
      <trkpt lat="45.10047" lon="5.88055">
        <ele>1711.2</ele>
        <time>2019-08-23T07:28:28Z</time>
      </trkpt>
      <trkpt lat="45.10073" lon="5.8815">
        <ele>1710.2</ele>
        <time>2019-08-23T07:29:26Z</time>
      </trkpt>
      <trkpt lat="45.10091" lon="5.8825">
        <ele>1711.4</ele>
        <time>2019-08-23T07:29:57Z</time>
      </trkpt>
      <trkpt lat="45.10134" lon="5.88451">
        <ele>1714.8</ele>
        <time>2019-08-23T07:30:56Z</time>
      </trkpt>
      <trkpt lat="45.10137" lon="5.8854">
        <ele>1721.4</ele>
        <time>2019-08-23T07:31:26Z</time>
      </trkpt>
      <trkpt lat="45.10164" lon="5.88587">
        <ele>1723</ele>
        <time>2019-08-23T07:31:58Z</time>
      </trkpt>
      <trkpt lat="45.10209" lon="5.88699">
        <ele>1727.4</ele>
        <time>2019-08-23T07:32:56Z</time>
      </trkpt>
      <trkpt lat="45.10223" lon="5.88751">
        <ele>1729.6</ele>
        <time>2019-08-23T07:33:26Z</time>
      </trkpt>
      <trkpt lat="45.10234" lon="5.8883">
        <ele>1722.4</ele>
        <time>2019-08-23T07:33:58Z</time>
      </trkpt>
      <trkpt lat="45.10295" lon="5.88915">
        <ele>1712.6</ele>
        <time>2019-08-23T07:34:56Z</time>
      </trkpt>
      <trkpt lat="45.103" lon="5.89016">
        <ele>1714.4</ele>
        <time>2019-08-23T07:35:28Z</time>
      </trkpt>
      <trkpt lat="45.10298" lon="5.89127">
        <ele>1722.4</ele>
        <time>2019-08-23T07:36:28Z</time>
      </trkpt>
      <trkpt lat="45.10334" lon="5.89242">
        <ele>1728.4</ele>
        <time>2019-08-23T07:37:56Z</time>
      </trkpt>
      <trkpt lat="45.10373" lon="5.89246">
        <ele>1746</ele>
        <time>2019-08-23T07:38:58Z</time>
      </trkpt>
      <trkpt lat="45.10461" lon="5.89287">
        <ele>1764.2</ele>
        <time>2019-08-23T07:39:58Z</time>
      </trkpt>
      <trkpt lat="45.10522" lon="5.89344">
        <ele>1769.4</ele>
        <time>2019-08-23T07:40:56Z</time>
      </trkpt>
      <trkpt lat="45.10563" lon="5.89429">
        <ele>1782</ele>
        <time>2019-08-23T07:41:56Z</time>
      </trkpt>
      <trkpt lat="45.10615" lon="5.89518">
        <ele>1799.4</ele>
        <time>2019-08-23T07:42:58Z</time>
      </trkpt>
      <trkpt lat="45.10659" lon="5.89559">
        <ele>1810.4</ele>
        <time>2019-08-23T07:45:28Z</time>
      </trkpt>
      <trkpt lat="45.10739" lon="5.89608">
        <ele>1833.4</ele>
        <time>2019-08-23T07:47:28Z</time>
      </trkpt>
      <trkpt lat="45.10788" lon="5.89665">
        <ele>1865</ele>
        <time>2019-08-23T07:48:26Z</time>
      </trkpt>
      <trkpt lat="45.10857" lon="5.89724">
        <ele>1882.6</ele>
        <time>2019-08-23T07:50:58Z</time>
      </trkpt>
      <trkpt lat="45.10885" lon="5.89849">
        <ele>1899.2</ele>
        <time>2019-08-23T07:53:26Z</time>
      </trkpt>
      <trkpt lat="45.10919" lon="5.89931">
        <ele>1918.2</ele>
        <time>2019-08-23T07:54:26Z</time>
      </trkpt>
      <trkpt lat="45.10947" lon="5.89991">
        <ele>1931.4</ele>
        <time>2019-08-23T07:55:26Z</time>
      </trkpt>
      <trkpt lat="45.11001" lon="5.90022">
        <ele>1934.4</ele>
        <time>2019-08-23T07:55:57Z</time>
      </trkpt>
      <trkpt lat="45.11031" lon="5.9007">
        <ele>1946.6</ele>
        <time>2019-08-23T07:56:56Z</time>
      </trkpt>
      <trkpt lat="45.11064" lon="5.90121">
        <ele>1953.6</ele>
        <time>2019-08-23T07:57:26Z</time>
      </trkpt>
      <trkpt lat="45.11105" lon="5.90135">
        <ele>1963.2</ele>
        <time>2019-08-23T07:58:56Z</time>
      </trkpt>
      <trkpt lat="45.11149" lon="5.90151">
        <ele>1967.4</ele>
        <time>2019-08-23T07:59:26Z</time>
      </trkpt>
      <trkpt lat="45.1119" lon="5.90165">
        <ele>1973.2</ele>
        <time>2019-08-23T07:59:58Z</time>
      </trkpt>
      <trkpt lat="45.11288" lon="5.902">
        <ele>1971.8</ele>
        <time>2019-08-23T08:00:56Z</time>
      </trkpt>
      <trkpt lat="45.11321" lon="5.90258">
        <ele>1974.2</ele>
        <time>2019-08-23T08:01:26Z</time>
      </trkpt>
      <trkpt lat="45.1138" lon="5.90303">
        <ele>1978.4</ele>
        <time>2019-08-23T08:02:26Z</time>
      </trkpt>
      <trkpt lat="45.11434" lon="5.90363">
        <ele>1991.8</ele>
        <time>2019-08-23T08:03:26Z</time>
      </trkpt>
      <trkpt lat="45.11507" lon="5.90434">
        <ele>2004.6</ele>
        <time>2019-08-23T08:04:56Z</time>
      </trkpt>
      <trkpt lat="45.11569" lon="5.90451">
        <ele>2019.8</ele>
        <time>2019-08-23T08:06:26Z</time>
      </trkpt>
      <trkpt lat="45.11615" lon="5.90456">
        <ele>2037.6</ele>
        <time>2019-08-23T08:06:56Z</time>
      </trkpt>
      <trkpt lat="45.11659" lon="5.90486">
        <ele>2054</ele>
        <time>2019-08-23T08:07:56Z</time>
      </trkpt>
      <trkpt lat="45.11706" lon="5.90509">
        <ele>2058.2</ele>
        <time>2019-08-23T08:08:56Z</time>
      </trkpt>
      <trkpt lat="45.11736" lon="5.90541">
        <ele>2067.4</ele>
        <time>2019-08-23T08:09:56Z</time>
      </trkpt>
      <trkpt lat="45.11771" lon="5.90583">
        <ele>2075.8</ele>
        <time>2019-08-23T08:10:26Z</time>
      </trkpt>
      <trkpt lat="45.11846" lon="5.9065">
        <ele>2086.6</ele>
        <time>2019-08-23T08:11:56Z</time>
      </trkpt>
      <trkpt lat="45.11897" lon="5.90719">
        <ele>2091.4</ele>
        <time>2019-08-23T08:12:56Z</time>
      </trkpt>
      <trkpt lat="45.11951" lon="5.90773">
        <ele>2102.2</ele>
        <time>2019-08-23T08:14:26Z</time>
      </trkpt>
      <trkpt lat="45.11974" lon="5.90815">
        <ele>2114.6</ele>
        <time>2019-08-23T08:14:56Z</time>
      </trkpt>
      <trkpt lat="45.12007" lon="5.90839">
        <ele>2117.6</ele>
        <time>2019-08-23T08:15:56Z</time>
      </trkpt>
      <trkpt lat="45.12093" lon="5.90901">
        <ele>2117.8</ele>
        <time>2019-08-23T08:17:26Z</time>
      </trkpt>
      <trkpt lat="45.12143" lon="5.90948">
        <ele>2124.2</ele>
        <time>2019-08-23T08:17:56Z</time>
      </trkpt>
      <trkpt lat="45.12188" lon="5.90985">
        <ele>2128.2</ele>
        <time>2019-08-23T08:18:56Z</time>
      </trkpt>
      <trkpt lat="45.12274" lon="5.91011">
        <ele>2132.2</ele>
        <time>2019-08-23T08:19:56Z</time>
      </trkpt>
      <trkpt lat="45.12366" lon="5.91028">
        <ele>2140.2</ele>
        <time>2019-08-23T08:20:58Z</time>
      </trkpt>
      <trkpt lat="45.12399" lon="5.90969">
        <ele>2153.8</ele>
        <time>2019-08-23T08:21:56Z</time>
      </trkpt>
      <trkpt lat="45.12428" lon="5.90911">
        <ele>2164.2</ele>
        <time>2019-08-23T08:22:58Z</time>
      </trkpt>
      <trkpt lat="45.12462" lon="5.90974">
        <ele>2174.4</ele>
        <time>2019-08-23T08:24:55Z</time>
      </trkpt>
      <trkpt lat="45.12489" lon="5.90932">
        <ele>2186.4</ele>
        <time>2019-08-23T08:25:26Z</time>
      </trkpt>
      <trkpt lat="45.12522" lon="5.91022">
        <ele>2198.6</ele>
        <time>2019-08-23T08:26:26Z</time>
      </trkpt>
      <trkpt lat="45.12521" lon="5.91082">
        <ele>2202.2</ele>
        <time>2019-08-23T08:26:56Z</time>
      </trkpt>
      <trkpt lat="45.12516" lon="5.91148">
        <ele>2202.2</ele>
        <time>2019-08-23T08:27:28Z</time>
      </trkpt>
      <trkpt lat="45.12534" lon="5.91237">
        <ele>2194.4</ele>
        <time>2019-08-23T08:28:25Z</time>
      </trkpt>
      <trkpt lat="45.12593" lon="5.91324">
        <ele>2185.4</ele>
        <time>2019-08-23T08:28:58Z</time>
      </trkpt>
      <trkpt lat="45.12667" lon="5.91468">
        <ele>2184.4</ele>
        <time>2019-08-23T08:29:58Z</time>
      </trkpt>
      <trkpt lat="45.12689" lon="5.91552">
        <ele>2176.6</ele>
        <time>2019-08-23T08:30:29Z</time>
      </trkpt>
      <trkpt lat="45.1269" lon="5.9163">
        <ele>2171.6</ele>
        <time>2019-08-23T08:31:28Z</time>
      </trkpt>
      <trkpt lat="45.1272" lon="5.91704">
        <ele>2175.6</ele>
        <time>2019-08-23T08:31:58Z</time>
      </trkpt>
      <trkpt lat="45.12788" lon="5.91833">
        <ele>2174.2</ele>
        <time>2019-08-23T08:32:56Z</time>
      </trkpt>
      <trkpt lat="45.12811" lon="5.91882">
        <ele>2164.4</ele>
        <time>2019-08-23T08:33:26Z</time>
      </trkpt>
      <trkpt lat="45.12839" lon="5.9195">
        <ele>2152</ele>
        <time>2019-08-23T08:33:58Z</time>
      </trkpt>
      <trkpt lat="45.12905" lon="5.91951">
        <ele>2138.2</ele>
        <time>2019-08-23T08:34:58Z</time>
      </trkpt>
      <trkpt lat="45.12925" lon="5.91831">
        <ele>2110.6</ele>
        <time>2019-08-23T08:36:28Z</time>
      </trkpt>
      <trkpt lat="45.12953" lon="5.91766">
        <ele>2084.4</ele>
        <time>2019-08-23T08:36:59Z</time>
      </trkpt>
      <trkpt lat="45.13059" lon="5.91664">
        <ele>2063</ele>
        <time>2019-08-23T08:37:56Z</time>
      </trkpt>
      <trkpt lat="45.1309" lon="5.91717">
        <ele>2052.2</ele>
        <time>2019-08-23T08:38:26Z</time>
      </trkpt>
      <trkpt lat="45.13138" lon="5.91722">
        <ele>2039.2</ele>
        <time>2019-08-23T08:38:58Z</time>
      </trkpt>
      <trkpt lat="45.13199" lon="5.91713">
        <ele>2042.4</ele>
        <time>2019-08-23T08:39:58Z</time>
      </trkpt>
      <trkpt lat="45.13271" lon="5.91744">
        <ele>2047.8</ele>
        <time>2019-08-23T08:40:56Z</time>
      </trkpt>
      <trkpt lat="45.13331" lon="5.91767">
        <ele>2047</ele>
        <time>2019-08-23T08:41:56Z</time>
      </trkpt>
      <trkpt lat="45.13364" lon="5.91792">
        <ele>2046.8</ele>
        <time>2019-08-23T08:42:26Z</time>
      </trkpt>
      <trkpt lat="45.13416" lon="5.91869">
        <ele>2053.2</ele>
        <time>2019-08-23T08:42:56Z</time>
      </trkpt>
      <trkpt lat="45.13442" lon="5.91925">
        <ele>2052.4</ele>
        <time>2019-08-23T08:43:26Z</time>
      </trkpt>
      <trkpt lat="45.13477" lon="5.91939">
        <ele>2048.8</ele>
        <time>2019-08-23T08:43:56Z</time>
      </trkpt>
      <trkpt lat="45.13531" lon="5.91994">
        <ele>2040.4</ele>
        <time>2019-08-23T08:44:56Z</time>
      </trkpt>
      <trkpt lat="45.13568" lon="5.92027">
        <ele>2018</ele>
        <time>2019-08-23T08:45:58Z</time>
      </trkpt>
      <trkpt lat="45.13602" lon="5.92057">
        <ele>2000</ele>
        <time>2019-08-23T08:46:58Z</time>
      </trkpt>
      <trkpt lat="45.13659" lon="5.92079">
        <ele>1985.8</ele>
        <time>2019-08-23T08:47:56Z</time>
      </trkpt>
      <trkpt lat="45.13723" lon="5.922">
        <ele>1970.8</ele>
        <time>2019-08-23T08:49:26Z</time>
      </trkpt>
      <trkpt lat="45.13775" lon="5.92231">
        <ele>1965.8</ele>
        <time>2019-08-23T08:49:56Z</time>
      </trkpt>
      <trkpt lat="45.13838" lon="5.92259">
        <ele>1970.8</ele>
        <time>2019-08-23T08:50:58Z</time>
      </trkpt>
      <trkpt lat="45.13905" lon="5.92269">
        <ele>1969</ele>
        <time>2019-08-23T08:52:28Z</time>
      </trkpt>
      <trkpt lat="45.13957" lon="5.92323">
        <ele>1968.8</ele>
        <time>2019-08-23T08:53:26Z</time>
      </trkpt>
      <trkpt lat="45.14016" lon="5.92357">
        <ele>1969.4</ele>
        <time>2019-08-23T08:54:28Z</time>
      </trkpt>
      <trkpt lat="45.14061" lon="5.92364">
        <ele>1965.6</ele>
        <time>2019-08-23T08:55:26Z</time>
      </trkpt>
      <trkpt lat="45.1414" lon="5.9241">
        <ele>1978.2</ele>
        <time>2019-08-23T08:56:58Z</time>
      </trkpt>
      <trkpt lat="45.14179" lon="5.92463">
        <ele>1984.6</ele>
        <time>2019-08-23T08:58:26Z</time>
      </trkpt>
      <trkpt lat="45.14224" lon="5.92487">
        <ele>1986.6</ele>
        <time>2019-08-23T08:58:56Z</time>
      </trkpt>
      <trkpt lat="45.14259" lon="5.92518">
        <ele>1990.4</ele>
        <time>2019-08-23T08:59:56Z</time>
      </trkpt>
      <trkpt lat="45.14311" lon="5.92539">
        <ele>1987.4</ele>
        <time>2019-08-23T09:00:56Z</time>
      </trkpt>
      <trkpt lat="45.14323" lon="5.92593">
        <ele>1969.2</ele>
        <time>2019-08-23T09:01:26Z</time>
      </trkpt>
      <trkpt lat="45.14377" lon="5.92556">
        <ele>1953</ele>
        <time>2019-08-23T09:02:58Z</time>
      </trkpt>
      <trkpt lat="45.14402" lon="5.92609">
        <ele>1945</ele>
        <time>2019-08-23T09:03:58Z</time>
      </trkpt>
      <trkpt lat="45.14436" lon="5.92642">
        <ele>1924</ele>
        <time>2019-08-23T09:04:57Z</time>
      </trkpt>
      <trkpt lat="45.14504" lon="5.9267">
        <ele>1922.6</ele>
        <time>2019-08-23T09:05:56Z</time>
      </trkpt>
      <trkpt lat="45.14546" lon="5.92725">
        <ele>1911.8</ele>
        <time>2019-08-23T09:06:58Z</time>
      </trkpt>
      <trkpt lat="45.14572" lon="5.92778">
        <ele>1911.2</ele>
        <time>2019-08-23T09:07:27Z</time>
      </trkpt>
      <trkpt lat="45.14621" lon="5.92824">
        <ele>1907.2</ele>
        <time>2019-08-23T09:08:56Z</time>
      </trkpt>
      <trkpt lat="45.14642" lon="5.9287">
        <ele>1920</ele>
        <time>2019-08-23T09:09:58Z</time>
      </trkpt>
      <trkpt lat="45.14699" lon="5.92927">
        <ele>1933.4</ele>
        <time>2019-08-23T09:11:58Z</time>
      </trkpt>
      <trkpt lat="45.14744" lon="5.92916">
        <ele>1940.6</ele>
        <time>2019-08-23T09:13:26Z</time>
      </trkpt>
      <trkpt lat="45.14748" lon="5.92976">
        <ele>1951.8</ele>
        <time>2019-08-23T09:13:58Z</time>
      </trkpt>
      <trkpt lat="45.14801" lon="5.93025">
        <ele>1963.6</ele>
        <time>2019-08-23T09:14:58Z</time>
      </trkpt>
      <trkpt lat="45.14828" lon="5.93108">
        <ele>1971</ele>
        <time>2019-08-23T09:16:26Z</time>
      </trkpt>
      <trkpt lat="45.14844" lon="5.93165">
        <ele>1972.6</ele>
        <time>2019-08-23T09:16:58Z</time>
      </trkpt>
      <trkpt lat="45.14886" lon="5.93146">
        <ele>2007</ele>
        <time>2019-08-23T09:20:28Z</time>
      </trkpt>
      <trkpt lat="45.14916" lon="5.93192">
        <ele>2028.8</ele>
        <time>2019-08-23T09:22:28Z</time>
      </trkpt>
      <trkpt lat="45.14935" lon="5.93256">
        <ele>2048.2</ele>
        <time>2019-08-23T09:24:26Z</time>
      </trkpt>
      <trkpt lat="45.14979" lon="5.93272">
        <ele>2065.2</ele>
        <time>2019-08-23T09:24:56Z</time>
      </trkpt>
      <trkpt lat="45.15023" lon="5.93214">
        <ele>2079.6</ele>
        <time>2019-08-23T09:25:56Z</time>
      </trkpt>
      <trkpt lat="45.1507" lon="5.93263">
        <ele>2077.2</ele>
        <time>2019-08-23T09:27:26Z</time>
      </trkpt>
      <trkpt lat="45.15072" lon="5.93322">
        <ele>2082</ele>
        <time>2019-08-23T09:28:26Z</time>
      </trkpt>
      <trkpt lat="45.15094" lon="5.93385">
        <ele>2082.4</ele>
        <time>2019-08-23T09:29:26Z</time>
      </trkpt>
      <trkpt lat="45.1514" lon="5.93416">
        <ele>2094.2</ele>
        <time>2019-08-23T09:29:56Z</time>
      </trkpt>
      <trkpt lat="45.15177" lon="5.93426">
        <ele>2093.4</ele>
        <time>2019-08-23T09:30:26Z</time>
      </trkpt>
      <trkpt lat="45.15213" lon="5.93459">
        <ele>2095.2</ele>
        <time>2019-08-23T09:30:56Z</time>
      </trkpt>
      <trkpt lat="45.15242" lon="5.93529">
        <ele>2088.2</ele>
        <time>2019-08-23T09:31:56Z</time>
      </trkpt>
      <trkpt lat="45.1527" lon="5.93568">
        <ele>2089.8</ele>
        <time>2019-08-23T09:32:26Z</time>
      </trkpt>
      <trkpt lat="45.15298" lon="5.9361">
        <ele>2081.2</ele>
        <time>2019-08-23T09:32:56Z</time>
      </trkpt>
      <trkpt lat="45.15334" lon="5.93659">
        <ele>2087.8</ele>
        <time>2019-08-23T09:33:58Z</time>
      </trkpt>
      <trkpt lat="45.15394" lon="5.93754">
        <ele>2087.8</ele>
        <time>2019-08-23T09:34:56Z</time>
      </trkpt>
      <trkpt lat="45.15435" lon="5.93849">
        <ele>2104.4</ele>
        <time>2019-08-23T09:35:56Z</time>
      </trkpt>
      <trkpt lat="45.15484" lon="5.93911">
        <ele>2103.6</ele>
        <time>2019-08-23T09:36:26Z</time>
      </trkpt>
      <trkpt lat="45.15501" lon="5.9402">
        <ele>2107</ele>
        <time>2019-08-23T09:37:26Z</time>
      </trkpt>
      <trkpt lat="45.15538" lon="5.94085">
        <ele>2103.8</ele>
        <time>2019-08-23T09:37:58Z</time>
      </trkpt>
      <trkpt lat="45.15596" lon="5.94143">
        <ele>2105.8</ele>
        <time>2019-08-23T09:38:58Z</time>
      </trkpt>
      <trkpt lat="45.15696" lon="5.94203">
        <ele>2097.8</ele>
        <time>2019-08-23T09:39:56Z</time>
      </trkpt>
      <trkpt lat="45.15749" lon="5.94207">
        <ele>2106.2</ele>
        <time>2019-08-23T09:40:56Z</time>
      </trkpt>
      <trkpt lat="45.15779" lon="5.94254">
        <ele>2104.6</ele>
        <time>2019-08-23T09:41:56Z</time>
      </trkpt>
      <trkpt lat="45.1582" lon="5.943">
        <ele>2113.2</ele>
        <time>2019-08-23T09:42:56Z</time>
      </trkpt>
      <trkpt lat="45.1587" lon="5.94312">
        <ele>2122.2</ele>
        <time>2019-08-23T09:43:26Z</time>
      </trkpt>
      <trkpt lat="45.15919" lon="5.94323">
        <ele>2125.4</ele>
        <time>2019-08-23T09:43:56Z</time>
      </trkpt>
      <trkpt lat="45.15938" lon="5.94368">
        <ele>2122.2</ele>
        <time>2019-08-23T09:44:26Z</time>
      </trkpt>
      <trkpt lat="45.15978" lon="5.94387">
        <ele>2132.6</ele>
        <time>2019-08-23T09:44:56Z</time>
      </trkpt>
      <trkpt lat="45.16016" lon="5.94449">
        <ele>2130.8</ele>
        <time>2019-08-23T09:45:28Z</time>
      </trkpt>
      <trkpt lat="45.16081" lon="5.94472">
        <ele>2139.6</ele>
        <time>2019-08-23T09:46:26Z</time>
      </trkpt>
      <trkpt lat="45.16123" lon="5.94486">
        <ele>2147.4</ele>
        <time>2019-08-23T09:47:26Z</time>
      </trkpt>
      <trkpt lat="45.16115" lon="5.94426">
        <ele>2159</ele>
        <time>2019-08-23T09:54:57Z</time>
      </trkpt>
      <trkpt lat="45.16122" lon="5.94479">
        <ele>2162.2</ele>
        <time>2019-08-23T09:59:26Z</time>
      </trkpt>
      <trkpt lat="45.1616" lon="5.94456">
        <ele>2176.2</ele>
        <time>2019-08-23T10:01:56Z</time>
      </trkpt>
      <trkpt lat="45.16183" lon="5.94521">
        <ele>2178</ele>
        <time>2019-08-23T10:02:56Z</time>
      </trkpt>
      <trkpt lat="45.16247" lon="5.94552">
        <ele>2187.2</ele>
        <time>2019-08-23T10:03:58Z</time>
      </trkpt>
      <trkpt lat="45.16279" lon="5.94581">
        <ele>2193.6</ele>
        <time>2019-08-23T10:04:56Z</time>
      </trkpt>
      <trkpt lat="45.16316" lon="5.94541">
        <ele>2208.2</ele>
        <time>2019-08-23T10:05:58Z</time>
      </trkpt>
      <trkpt lat="45.16368" lon="5.9455">
        <ele>2217.6</ele>
        <time>2019-08-23T10:06:55Z</time>
      </trkpt>
      <trkpt lat="45.16412" lon="5.94592">
        <ele>2228.2</ele>
        <time>2019-08-23T10:07:56Z</time>
      </trkpt>
      <trkpt lat="45.16445" lon="5.94611">
        <ele>2236.4</ele>
        <time>2019-08-23T10:08:56Z</time>
      </trkpt>
      <trkpt lat="45.16467" lon="5.94687">
        <ele>2250.8</ele>
        <time>2019-08-23T10:09:56Z</time>
      </trkpt>
      <trkpt lat="45.16526" lon="5.94733">
        <ele>2258.4</ele>
        <time>2019-08-23T10:10:56Z</time>
      </trkpt>
      <trkpt lat="45.16567" lon="5.94781">
        <ele>2268.6</ele>
        <time>2019-08-23T10:11:58Z</time>
      </trkpt>
      <trkpt lat="45.1659" lon="5.94825">
        <ele>2278</ele>
        <time>2019-08-23T10:12:58Z</time>
      </trkpt>
      <trkpt lat="45.16593" lon="5.94883">
        <ele>2290.4</ele>
        <time>2019-08-23T10:14:58Z</time>
      </trkpt>
      <trkpt lat="45.16585" lon="5.94956">
        <ele>2295.6</ele>
        <time>2019-08-23T10:15:58Z</time>
      </trkpt>
      <trkpt lat="45.1661" lon="5.95077">
        <ele>2308.2</ele>
        <time>2019-08-23T10:17:28Z</time>
      </trkpt>
      <trkpt lat="45.16618" lon="5.95129">
        <ele>2314.2</ele>
        <time>2019-08-23T10:17:58Z</time>
      </trkpt>
      <trkpt lat="45.1666" lon="5.95197">
        <ele>2326</ele>
        <time>2019-08-23T10:19:26Z</time>
      </trkpt>
      <trkpt lat="45.16641" lon="5.95262">
        <ele>2334</ele>
        <time>2019-08-23T10:20:26Z</time>
      </trkpt>
      <trkpt lat="45.16612" lon="5.95308">
        <ele>2341.4</ele>
        <time>2019-08-23T10:22:28Z</time>
      </trkpt>
      <trkpt lat="45.16605" lon="5.95374">
        <ele>2358.6</ele>
        <time>2019-08-23T10:23:56Z</time>
      </trkpt>
      <trkpt lat="45.16624" lon="5.95429">
        <ele>2373.4</ele>
        <time>2019-08-23T10:25:29Z</time>
      </trkpt>
      <trkpt lat="45.16564" lon="5.9538">
        <ele>2385.2</ele>
        <time>2019-08-23T10:27:26Z</time>
      </trkpt>
      <trkpt lat="45.16523" lon="5.95403">
        <ele>2399.6</ele>
        <time>2019-08-23T10:27:58Z</time>
      </trkpt>
      <trkpt lat="45.16476" lon="5.95467">
        <ele>2412</ele>
        <time>2019-08-23T10:28:58Z</time>
      </trkpt>
      <trkpt lat="45.16441" lon="5.95509">
        <ele>2407.2</ele>
        <time>2019-08-23T10:29:56Z</time>
      </trkpt>
      <trkpt lat="45.16456" lon="5.95576">
        <ele>2408</ele>
        <time>2019-08-23T10:30:56Z</time>
      </trkpt>
      <trkpt lat="45.16449" lon="5.95652">
        <ele>2408.6</ele>
        <time>2019-08-23T10:31:26Z</time>
      </trkpt>
      <trkpt lat="45.16426" lon="5.95701">
        <ele>2406.6</ele>
        <time>2019-08-23T10:31:56Z</time>
      </trkpt>
      <trkpt lat="45.16412" lon="5.9575">
        <ele>2413.2</ele>
        <time>2019-08-23T10:32:28Z</time>
      </trkpt>
      <trkpt lat="45.16353" lon="5.95814">
        <ele>2421</ele>
        <time>2019-08-23T10:33:26Z</time>
      </trkpt>
      <trkpt lat="45.16333" lon="5.95901">
        <ele>2422.8</ele>
        <time>2019-08-23T10:34:26Z</time>
      </trkpt>
      <trkpt lat="45.16347" lon="5.95949">
        <ele>2427</ele>
        <time>2019-08-23T10:34:56Z</time>
      </trkpt>
      <trkpt lat="45.16351" lon="5.96006">
        <ele>2429.2</ele>
        <time>2019-08-23T10:35:26Z</time>
      </trkpt>
      <trkpt lat="45.16388" lon="5.96106">
        <ele>2421</ele>
        <time>2019-08-23T10:36:26Z</time>
      </trkpt>
      <trkpt lat="45.16425" lon="5.96193">
        <ele>2425.2</ele>
        <time>2019-08-23T10:37:26Z</time>
      </trkpt>
      <trkpt lat="45.16443" lon="5.96242">
        <ele>2425.8</ele>
        <time>2019-08-23T10:37:58Z</time>
      </trkpt>
      <trkpt lat="45.16483" lon="5.96305">
        <ele>2426.4</ele>
        <time>2019-08-23T10:38:56Z</time>
      </trkpt>
      <trkpt lat="45.16508" lon="5.96386">
        <ele>2435</ele>
        <time>2019-08-23T10:39:56Z</time>
      </trkpt>
      <trkpt lat="45.1652" lon="5.96466">
        <ele>2447.4</ele>
        <time>2019-08-23T10:40:56Z</time>
      </trkpt>
      <trkpt lat="45.1652" lon="5.96544">
        <ele>2448</ele>
        <time>2019-08-23T10:41:56Z</time>
      </trkpt>
      <trkpt lat="45.16547" lon="5.96597">
        <ele>2461.8</ele>
        <time>2019-08-23T10:42:26Z</time>
      </trkpt>
      <trkpt lat="45.16577" lon="5.96662">
        <ele>2466.6</ele>
        <time>2019-08-23T10:43:26Z</time>
      </trkpt>
      <trkpt lat="45.16606" lon="5.96712">
        <ele>2466.6</ele>
        <time>2019-08-23T10:44:26Z</time>
      </trkpt>
      <trkpt lat="45.16625" lon="5.9677">
        <ele>2467.6</ele>
        <time>2019-08-23T10:44:56Z</time>
      </trkpt>
      <trkpt lat="45.16644" lon="5.9682">
        <ele>2475.8</ele>
        <time>2019-08-23T10:45:26Z</time>
      </trkpt>
      <trkpt lat="45.1662" lon="5.96924">
        <ele>2478.4</ele>
        <time>2019-08-23T10:46:56Z</time>
      </trkpt>
      <trkpt lat="45.16629" lon="5.96995">
        <ele>2486.8</ele>
        <time>2019-08-23T10:48:55Z</time>
      </trkpt>
      <trkpt lat="45.16633" lon="5.97065">
        <ele>2497.8</ele>
        <time>2019-08-23T10:49:26Z</time>
      </trkpt>
      <trkpt lat="45.16651" lon="5.97153">
        <ele>2522.4</ele>
        <time>2019-08-23T10:50:28Z</time>
      </trkpt>
      <trkpt lat="45.16624" lon="5.9719">
        <ele>2534.8</ele>
        <time>2019-08-23T10:51:26Z</time>
      </trkpt>
      <trkpt lat="45.16569" lon="5.97219">
        <ele>2557.8</ele>
        <time>2019-08-23T10:54:26Z</time>
      </trkpt>
      <trkpt lat="45.16535" lon="5.97234">
        <ele>2589.4</ele>
        <time>2019-08-23T10:55:58Z</time>
      </trkpt>
      <trkpt lat="45.16488" lon="5.97251">
        <ele>2617.6</ele>
        <time>2019-08-23T10:57:56Z</time>
      </trkpt>
      <trkpt lat="45.16459" lon="5.97286">
        <ele>2636.6</ele>
        <time>2019-08-23T10:59:56Z</time>
      </trkpt>
      <trkpt lat="45.16468" lon="5.97362">
        <ele>2658.8</ele>
        <time>2019-08-23T11:01:28Z</time>
      </trkpt>
      <trkpt lat="45.16482" lon="5.9744">
        <ele>2672.8</ele>
        <time>2019-08-23T11:02:58Z</time>
      </trkpt>
      <trkpt lat="45.16499" lon="5.97506">
        <ele>2670.2</ele>
        <time>2019-08-23T11:03:56Z</time>
      </trkpt>
      <trkpt lat="45.16517" lon="5.97559">
        <ele>2682.8</ele>
        <time>2019-08-23T11:04:56Z</time>
      </trkpt>
      <trkpt lat="45.16538" lon="5.97604">
        <ele>2698.2</ele>
        <time>2019-08-23T11:05:26Z</time>
      </trkpt>
      <trkpt lat="45.16542" lon="5.97683">
        <ele>2715.2</ele>
        <time>2019-08-23T11:08:25Z</time>
      </trkpt>
      <trkpt lat="45.16559" lon="5.97765">
        <ele>2731.4</ele>
        <time>2019-08-23T11:09:56Z</time>
      </trkpt>
      <trkpt lat="45.16548" lon="5.97832">
        <ele>2758.6</ele>
        <time>2019-08-23T11:10:56Z</time>
      </trkpt>
      <trkpt lat="45.16562" lon="5.97888">
        <ele>2770</ele>
        <time>2019-08-23T11:11:56Z</time>
      </trkpt>
      <trkpt lat="45.16593" lon="5.97937">
        <ele>2780</ele>
        <time>2019-08-23T11:13:26Z</time>
      </trkpt>
      <trkpt lat="45.16628" lon="5.97959">
        <ele>2804.4</ele>
        <time>2019-08-23T11:14:25Z</time>
      </trkpt>
      <trkpt lat="45.16654" lon="5.9802">
        <ele>2810.4</ele>
        <time>2019-08-23T11:15:56Z</time>
      </trkpt>
      <trkpt lat="45.16695" lon="5.98041">
        <ele>2831.2</ele>
        <time>2019-08-23T11:17:25Z</time>
      </trkpt>
      <trkpt lat="45.16731" lon="5.98101">
        <ele>2844.4</ele>
        <time>2019-08-23T11:17:55Z</time>
      </trkpt>
      <trkpt lat="45.16692" lon="5.98176">
        <ele>2846.2</ele>
        <time>2019-08-23T11:19:26Z</time>
      </trkpt>
      <trkpt lat="45.16664" lon="5.98257">
        <ele>2838</ele>
        <time>2019-08-23T11:20:26Z</time>
      </trkpt>
      <trkpt lat="45.16691" lon="5.98302">
        <ele>2851.4</ele>
        <time>2019-08-23T11:20:56Z</time>
      </trkpt>
      <trkpt lat="45.16697" lon="5.98385">
        <ele>2848.8</ele>
        <time>2019-08-23T11:21:56Z</time>
      </trkpt>
      <trkpt lat="45.16708" lon="5.98457">
        <ele>2855</ele>
        <time>2019-08-23T11:22:56Z</time>
      </trkpt>
      <trkpt lat="45.16721" lon="5.9855">
        <ele>2867</ele>
        <time>2019-08-23T11:24:56Z</time>
      </trkpt>
      <trkpt lat="45.16734" lon="5.9861">
        <ele>2883.2</ele>
        <time>2019-08-23T11:25:56Z</time>
      </trkpt>
      <trkpt lat="45.1676" lon="5.98649">
        <ele>2898.2</ele>
        <time>2019-08-23T11:26:55Z</time>
      </trkpt>
      <trkpt lat="45.16777" lon="5.98713">
        <ele>2915.6</ele>
        <time>2019-08-23T11:28:56Z</time>
      </trkpt>
      <trkpt lat="45.16816" lon="5.98793">
        <ele>2929.8</ele>
        <time>2019-08-23T11:31:26Z</time>
      </trkpt>
      <trkpt lat="45.16852" lon="5.98809">
        <ele>2938.8</ele>
        <time>2019-08-23T11:33:26Z</time>
      </trkpt>
      <trkpt lat="45.16784" lon="5.98799">
        <ele>2935.4</ele>
        <time>2019-08-23T11:36:56Z</time>
      </trkpt>
      <trkpt lat="45.16727" lon="5.98772">
        <ele>2927</ele>
        <time>2019-08-23T11:37:56Z</time>
      </trkpt>
      <trkpt lat="45.16693" lon="5.98746">
        <ele>2907.2</ele>
        <time>2019-08-23T11:38:26Z</time>
      </trkpt>
      <trkpt lat="45.16662" lon="5.9869">
        <ele>2884.8</ele>
        <time>2019-08-23T11:38:56Z</time>
      </trkpt>
      <trkpt lat="45.16671" lon="5.98581">
        <ele>2869</ele>
        <time>2019-08-23T11:39:55Z</time>
      </trkpt>
      <trkpt lat="45.16638" lon="5.98489">
        <ele>2853.2</ele>
        <time>2019-08-23T11:40:56Z</time>
      </trkpt>
      <trkpt lat="45.1658" lon="5.98428">
        <ele>2835</ele>
        <time>2019-08-23T11:41:56Z</time>
      </trkpt>
      <trkpt lat="45.16555" lon="5.98383">
        <ele>2819.2</ele>
        <time>2019-08-23T11:42:26Z</time>
      </trkpt>
      <trkpt lat="45.16538" lon="5.98257">
        <ele>2814</ele>
        <time>2019-08-23T11:43:26Z</time>
      </trkpt>
      <trkpt lat="45.16536" lon="5.9819">
        <ele>2804.2</ele>
        <time>2019-08-23T11:43:56Z</time>
      </trkpt>
      <trkpt lat="45.16537" lon="5.98132">
        <ele>2792.4</ele>
        <time>2019-08-23T11:44:26Z</time>
      </trkpt>
      <trkpt lat="45.16544" lon="5.98034">
        <ele>2785</ele>
        <time>2019-08-23T11:45:26Z</time>
      </trkpt>
      <trkpt lat="45.16542" lon="5.97971">
        <ele>2776.8</ele>
        <time>2019-08-23T11:45:56Z</time>
      </trkpt>
      <trkpt lat="45.16541" lon="5.97895">
        <ele>2762.6</ele>
        <time>2019-08-23T11:46:26Z</time>
      </trkpt>
      <trkpt lat="45.16553" lon="5.97828">
        <ele>2743.4</ele>
        <time>2019-08-23T11:46:56Z</time>
      </trkpt>
      <trkpt lat="45.16548" lon="5.97702">
        <ele>2729.6</ele>
        <time>2019-08-23T11:47:56Z</time>
      </trkpt>
      <trkpt lat="45.16536" lon="5.97571">
        <ele>2714.2</ele>
        <time>2019-08-23T11:49:26Z</time>
      </trkpt>
      <trkpt lat="45.16585" lon="5.97519">
        <ele>2699.2</ele>
        <time>2019-08-23T11:50:26Z</time>
      </trkpt>
      <trkpt lat="45.16659" lon="5.97559">
        <ele>2682.8</ele>
        <time>2019-08-23T11:51:28Z</time>
      </trkpt>
      <trkpt lat="45.1673" lon="5.97617">
        <ele>2676.2</ele>
        <time>2019-08-23T11:52:28Z</time>
      </trkpt>
      <trkpt lat="45.16793" lon="5.9768">
        <ele>2678.2</ele>
        <time>2019-08-23T11:53:26Z</time>
      </trkpt>
      <trkpt lat="45.16889" lon="5.977">
        <ele>2680.8</ele>
        <time>2019-08-23T11:54:56Z</time>
      </trkpt>
      <trkpt lat="45.16936" lon="5.97743">
        <ele>2679.2</ele>
        <time>2019-08-23T11:56:56Z</time>
      </trkpt>
      <trkpt lat="45.16939" lon="5.97794">
        <ele>2674.6</ele>
        <time>2019-08-23T11:57:26Z</time>
      </trkpt>
      <trkpt lat="45.16961" lon="5.97841">
        <ele>2670.6</ele>
        <time>2019-08-23T11:57:56Z</time>
      </trkpt>
      <trkpt lat="45.16991" lon="5.97883">
        <ele>2653.4</ele>
        <time>2019-08-23T11:58:26Z</time>
      </trkpt>
      <trkpt lat="45.17039" lon="5.97936">
        <ele>2627.4</ele>
        <time>2019-08-23T11:59:28Z</time>
      </trkpt>
      <trkpt lat="45.1709" lon="5.97937">
        <ele>2611.4</ele>
        <time>2019-08-23T12:00:28Z</time>
      </trkpt>
      <trkpt lat="45.17125" lon="5.97987">
        <ele>2613.2</ele>
        <time>2019-08-23T12:01:56Z</time>
      </trkpt>
      <trkpt lat="45.17181" lon="5.98004">
        <ele>2584.8</ele>
        <time>2019-08-23T12:02:56Z</time>
      </trkpt>
      <trkpt lat="45.17283" lon="5.98028">
        <ele>2555.2</ele>
        <time>2019-08-23T12:03:56Z</time>
      </trkpt>
      <trkpt lat="45.17325" lon="5.98013">
        <ele>2560.8</ele>
        <time>2019-08-23T12:05:56Z</time>
      </trkpt>
      <trkpt lat="45.17368" lon="5.98049">
        <ele>2538.6</ele>
        <time>2019-08-23T12:06:58Z</time>
      </trkpt>
      <trkpt lat="45.17415" lon="5.98107">
        <ele>2489.6</ele>
        <time>2019-08-23T12:07:59Z</time>
      </trkpt>
      <trkpt lat="45.17438" lon="5.98068">
        <ele>2467</ele>
        <time>2019-08-23T12:08:29Z</time>
      </trkpt>
      <trkpt lat="45.17481" lon="5.98035">
        <ele>2435.8</ele>
        <time>2019-08-23T12:09:26Z</time>
      </trkpt>
      <trkpt lat="45.17526" lon="5.98009">
        <ele>2364.6</ele>
        <time>2019-08-23T12:10:28Z</time>
      </trkpt>
      <trkpt lat="45.17569" lon="5.9794">
        <ele>2336.8</ele>
        <time>2019-08-23T12:11:26Z</time>
      </trkpt>
      <trkpt lat="45.17601" lon="5.9791">
        <ele>2318.6</ele>
        <time>2019-08-23T12:11:56Z</time>
      </trkpt>
      <trkpt lat="45.17652" lon="5.97876">
        <ele>2362.6</ele>
        <time>2019-08-23T12:12:26Z</time>
      </trkpt>
      <trkpt lat="45.17736" lon="5.977">
        <ele>2353</ele>
        <time>2019-08-23T12:13:58Z</time>
      </trkpt>
      <trkpt lat="45.17691" lon="5.97852">
        <ele>2357.6</ele>
        <time>2019-08-23T12:14:56Z</time>
      </trkpt>
      <trkpt lat="45.17741" lon="5.97794">
        <ele>2343.6</ele>
        <time>2019-08-23T12:15:26Z</time>
      </trkpt>
      <trkpt lat="45.17787" lon="5.97805">
        <ele>2337.4</ele>
        <time>2019-08-23T12:15:56Z</time>
      </trkpt>
      <trkpt lat="45.17861" lon="5.97801">
        <ele>2262.4</ele>
        <time>2019-08-23T12:16:56Z</time>
      </trkpt>
      <trkpt lat="45.17921" lon="5.97751">
        <ele>2254.6</ele>
        <time>2019-08-23T12:17:56Z</time>
      </trkpt>
      <trkpt lat="45.17953" lon="5.97684">
        <ele>2249.6</ele>
        <time>2019-08-23T12:18:56Z</time>
      </trkpt>
      <trkpt lat="45.18002" lon="5.97654">
        <ele>2245.8</ele>
        <time>2019-08-23T12:19:56Z</time>
      </trkpt>
      <trkpt lat="45.18036" lon="5.97603">
        <ele>2239.2</ele>
        <time>2019-08-23T12:20:26Z</time>
      </trkpt>
      <trkpt lat="45.18059" lon="5.97505">
        <ele>2250.8</ele>
        <time>2019-08-23T12:21:28Z</time>
      </trkpt>
      <trkpt lat="45.18021" lon="5.97388">
        <ele>2251.4</ele>
        <time>2019-08-23T12:22:26Z</time>
      </trkpt>
      <trkpt lat="45.18034" lon="5.97331">
        <ele>2252.6</ele>
        <time>2019-08-23T12:22:56Z</time>
      </trkpt>
      <trkpt lat="45.18053" lon="5.97232">
        <ele>2252.2</ele>
        <time>2019-08-23T12:23:57Z</time>
      </trkpt>
      <trkpt lat="45.18028" lon="5.97133">
        <ele>2250.4</ele>
        <time>2019-08-23T12:24:56Z</time>
      </trkpt>
      <trkpt lat="45.18039" lon="5.97082">
        <ele>2242.2</ele>
        <time>2019-08-23T12:25:26Z</time>
      </trkpt>
      <trkpt lat="45.18028" lon="5.97009">
        <ele>2239.8</ele>
        <time>2019-08-23T12:25:56Z</time>
      </trkpt>
      <trkpt lat="45.18065" lon="5.96982">
        <ele>2232</ele>
        <time>2019-08-23T12:26:26Z</time>
      </trkpt>
      <trkpt lat="45.18149" lon="5.9698">
        <ele>2215.8</ele>
        <time>2019-08-23T12:27:26Z</time>
      </trkpt>
      <trkpt lat="45.18174" lon="5.96927">
        <ele>2198.6</ele>
        <time>2019-08-23T12:27:56Z</time>
      </trkpt>
      <trkpt lat="45.18177" lon="5.96865">
        <ele>2187.4</ele>
        <time>2019-08-23T12:28:56Z</time>
      </trkpt>
      <trkpt lat="45.18118" lon="5.96772">
        <ele>2171</ele>
        <time>2019-08-23T12:29:56Z</time>
      </trkpt>
      <trkpt lat="45.18104" lon="5.967">
        <ele>2150</ele>
        <time>2019-08-23T12:30:28Z</time>
      </trkpt>
      <trkpt lat="45.18076" lon="5.96637">
        <ele>2129.2</ele>
        <time>2019-08-23T12:31:28Z</time>
      </trkpt>
      <trkpt lat="45.18142" lon="5.96647">
        <ele>2096.8</ele>
        <time>2019-08-23T12:32:28Z</time>
      </trkpt>
      <trkpt lat="45.18184" lon="5.96638">
        <ele>2055</ele>
        <time>2019-08-23T12:33:26Z</time>
      </trkpt>
      <trkpt lat="45.1823" lon="5.9673">
        <ele>2024.4</ele>
        <time>2019-08-23T12:34:26Z</time>
      </trkpt>
      <trkpt lat="45.18257" lon="5.96663">
        <ele>1999.8</ele>
        <time>2019-08-23T12:35:56Z</time>
      </trkpt>
      <trkpt lat="45.18313" lon="5.96657">
        <ele>1981.2</ele>
        <time>2019-08-23T12:36:58Z</time>
      </trkpt>
      <trkpt lat="45.1835" lon="5.96672">
        <ele>1973.8</ele>
        <time>2019-08-23T12:37:28Z</time>
      </trkpt>
      <trkpt lat="45.18394" lon="5.9671">
        <ele>1979</ele>
        <time>2019-08-23T12:38:29Z</time>
      </trkpt>
      <trkpt lat="45.18469" lon="5.967">
        <ele>1983.2</ele>
        <time>2019-08-23T12:39:28Z</time>
      </trkpt>
      <trkpt lat="45.18508" lon="5.96682">
        <ele>1982.2</ele>
        <time>2019-08-23T12:40:27Z</time>
      </trkpt>
      <trkpt lat="45.1855" lon="5.96658">
        <ele>1992.2</ele>
        <time>2019-08-23T12:40:57Z</time>
      </trkpt>
      <trkpt lat="45.1863" lon="5.96684">
        <ele>2003.2</ele>
        <time>2019-08-23T12:42:27Z</time>
      </trkpt>
      <trkpt lat="45.1868" lon="5.96654">
        <ele>2008.8</ele>
        <time>2019-08-23T12:43:56Z</time>
      </trkpt>
      <trkpt lat="45.1875" lon="5.96642">
        <ele>2007.2</ele>
        <time>2019-08-23T12:44:56Z</time>
      </trkpt>
      <trkpt lat="45.18786" lon="5.96622">
        <ele>2009.4</ele>
        <time>2019-08-23T12:45:56Z</time>
      </trkpt>
      <trkpt lat="45.18838" lon="5.96696">
        <ele>2007.4</ele>
        <time>2019-08-23T12:46:56Z</time>
      </trkpt>
      <trkpt lat="45.18843" lon="5.96772">
        <ele>2010.4</ele>
        <time>2019-08-23T12:47:27Z</time>
      </trkpt>
      <trkpt lat="45.18896" lon="5.96806">
        <ele>2005.2</ele>
        <time>2019-08-23T12:48:27Z</time>
      </trkpt>
      <trkpt lat="45.18967" lon="5.96843">
        <ele>2005.2</ele>
        <time>2019-08-23T12:49:26Z</time>
      </trkpt>
      <trkpt lat="45.1902" lon="5.96876">
        <ele>2008.2</ele>
        <time>2019-08-23T12:49:56Z</time>
      </trkpt>
      <trkpt lat="45.1914" lon="5.96863">
        <ele>2007.4</ele>
        <time>2019-08-23T12:51:27Z</time>
      </trkpt>
      <trkpt lat="45.19176" lon="5.96844">
        <ele>2005.4</ele>
        <time>2019-08-23T12:51:57Z</time>
      </trkpt>
      <trkpt lat="45.19239" lon="5.96809">
        <ele>1995.6</ele>
        <time>2019-08-23T12:52:56Z</time>
      </trkpt>
      <trkpt lat="45.19237" lon="5.9674">
        <ele>1990.6</ele>
        <time>2019-08-23T12:53:26Z</time>
      </trkpt>
      <trkpt lat="45.19201" lon="5.96832">
        <ele>1991.2</ele>
        <time>2019-08-23T12:53:57Z</time>
      </trkpt>
      <trkpt lat="45.19227" lon="5.96787">
        <ele>2003.8</ele>
        <time>2019-08-23T12:59:27Z</time>
      </trkpt>
      <trkpt lat="45.19252" lon="5.96737">
        <ele>2006.4</ele>
        <time>2019-08-23T13:06:27Z</time>
      </trkpt>
      <trkpt lat="45.19224" lon="5.96803">
        <ele>2009.6</ele>
        <time>2019-08-23T13:07:57Z</time>
      </trkpt>
      <trkpt lat="45.19194" lon="5.96866">
        <ele>2033</ele>
        <time>2019-08-23T13:08:27Z</time>
      </trkpt>
      <trkpt lat="45.19129" lon="5.96906">
        <ele>2041.6</ele>
        <time>2019-08-23T13:09:25Z</time>
      </trkpt>
      <trkpt lat="45.19076" lon="5.96918">
        <ele>2032.6</ele>
        <time>2019-08-23T13:10:57Z</time>
      </trkpt>
      <trkpt lat="45.19106" lon="5.96963">
        <ele>2043.4</ele>
        <time>2019-08-23T13:11:56Z</time>
      </trkpt>
      <trkpt lat="45.19154" lon="5.96976">
        <ele>2061.2</ele>
        <time>2019-08-23T13:13:57Z</time>
      </trkpt>
      <trkpt lat="45.19211" lon="5.97026">
        <ele>2054.2</ele>
        <time>2019-08-23T13:14:57Z</time>
      </trkpt>
      <trkpt lat="45.19174" lon="5.9704">
        <ele>2060.4</ele>
        <time>2019-08-23T13:15:56Z</time>
      </trkpt>
      <trkpt lat="45.19139" lon="5.97077">
        <ele>2077.2</ele>
        <time>2019-08-23T13:16:28Z</time>
      </trkpt>
      <trkpt lat="45.19145" lon="5.97143">
        <ele>2077.6</ele>
        <time>2019-08-23T13:17:26Z</time>
      </trkpt>
      <trkpt lat="45.19171" lon="5.97211">
        <ele>2090.8</ele>
        <time>2019-08-23T13:18:27Z</time>
      </trkpt>
      <trkpt lat="45.19187" lon="5.97269">
        <ele>2102.8</ele>
        <time>2019-08-23T13:19:26Z</time>
      </trkpt>
      <trkpt lat="45.19224" lon="5.97348">
        <ele>2116</ele>
        <time>2019-08-23T13:20:27Z</time>
      </trkpt>
      <trkpt lat="45.19268" lon="5.97404">
        <ele>2127.4</ele>
        <time>2019-08-23T13:21:26Z</time>
      </trkpt>
      <trkpt lat="45.19328" lon="5.97438">
        <ele>2142.2</ele>
        <time>2019-08-23T13:22:27Z</time>
      </trkpt>
      <trkpt lat="45.19348" lon="5.97508">
        <ele>2151</ele>
        <time>2019-08-23T13:23:27Z</time>
      </trkpt>
      <trkpt lat="45.19342" lon="5.97579">
        <ele>2159.2</ele>
        <time>2019-08-23T13:24:26Z</time>
      </trkpt>
      <trkpt lat="45.19386" lon="5.97543">
        <ele>2170.4</ele>
        <time>2019-08-23T13:24:57Z</time>
      </trkpt>
      <trkpt lat="45.1942" lon="5.97593">
        <ele>2180.2</ele>
        <time>2019-08-23T13:25:56Z</time>
      </trkpt>
      <trkpt lat="45.19467" lon="5.97638">
        <ele>2191.6</ele>
        <time>2019-08-23T13:27:56Z</time>
      </trkpt>
      <trkpt lat="45.19481" lon="5.97734">
        <ele>2200.4</ele>
        <time>2019-08-23T13:28:56Z</time>
      </trkpt>
      <trkpt lat="45.19482" lon="5.97845">
        <ele>2214.4</ele>
        <time>2019-08-23T13:29:57Z</time>
      </trkpt>
      <trkpt lat="45.19483" lon="5.9793">
        <ele>2217</ele>
        <time>2019-08-23T13:31:26Z</time>
      </trkpt>
      <trkpt lat="45.19519" lon="5.97927">
        <ele>2224.8</ele>
        <time>2019-08-23T13:31:57Z</time>
      </trkpt>
      <trkpt lat="45.19529" lon="5.97979">
        <ele>2226.4</ele>
        <time>2019-08-23T13:32:27Z</time>
      </trkpt>
      <trkpt lat="45.19602" lon="5.97982">
        <ele>2239.4</ele>
        <time>2019-08-23T13:33:27Z</time>
      </trkpt>
      <trkpt lat="45.19595" lon="5.98094">
        <ele>2253.6</ele>
        <time>2019-08-23T13:34:56Z</time>
      </trkpt>
      <trkpt lat="45.19593" lon="5.98176">
        <ele>2272.8</ele>
        <time>2019-08-23T13:36:27Z</time>
      </trkpt>
      <trkpt lat="45.1959" lon="5.98232">
        <ele>2286.4</ele>
        <time>2019-08-23T13:37:27Z</time>
      </trkpt>
      <trkpt lat="45.19591" lon="5.9831">
        <ele>2297.6</ele>
        <time>2019-08-23T13:38:27Z</time>
      </trkpt>
      <trkpt lat="45.19552" lon="5.98324">
        <ele>2311</ele>
        <time>2019-08-23T13:39:27Z</time>
      </trkpt>
      <trkpt lat="45.19561" lon="5.98387">
        <ele>2289.4</ele>
        <time>2019-08-23T13:40:27Z</time>
      </trkpt>
      <trkpt lat="45.19542" lon="5.98474">
        <ele>2304.4</ele>
        <time>2019-08-23T13:41:56Z</time>
      </trkpt>
      <trkpt lat="45.19585" lon="5.98457">
        <ele>2307.2</ele>
        <time>2019-08-23T13:42:28Z</time>
      </trkpt>
      <trkpt lat="45.19572" lon="5.9854">
        <ele>2338.2</ele>
        <time>2019-08-23T13:45:26Z</time>
      </trkpt>
      <trkpt lat="45.19556" lon="5.98603">
        <ele>2344</ele>
        <time>2019-08-23T13:46:26Z</time>
      </trkpt>
      <trkpt lat="45.1962" lon="5.98639">
        <ele>2392.2</ele>
        <time>2019-08-23T13:47:27Z</time>
      </trkpt>
      <trkpt lat="45.19602" lon="5.98709">
        <ele>2392.6</ele>
        <time>2019-08-23T13:48:27Z</time>
      </trkpt>
      <trkpt lat="45.19635" lon="5.98742">
        <ele>2413.4</ele>
        <time>2019-08-23T13:48:57Z</time>
      </trkpt>
      <trkpt lat="45.19664" lon="5.98791">
        <ele>2421.2</ele>
        <time>2019-08-23T13:50:26Z</time>
      </trkpt>
      <trkpt lat="45.19633" lon="5.98736">
        <ele>2426.2</ele>
        <time>2019-08-23T13:50:58Z</time>
      </trkpt>
      <trkpt lat="45.19653" lon="5.98805">
        <ele>2429</ele>
        <time>2019-08-23T13:51:28Z</time>
      </trkpt>
      <trkpt lat="45.19692" lon="5.98817">
        <ele>2442.4</ele>
        <time>2019-08-23T13:53:26Z</time>
      </trkpt>
      <trkpt lat="45.19739" lon="5.98849">
        <ele>2442.2</ele>
        <time>2019-08-23T13:56:57Z</time>
      </trkpt>
      <trkpt lat="45.19748" lon="5.98908">
        <ele>2432.8</ele>
        <time>2019-08-23T13:57:27Z</time>
      </trkpt>
      <trkpt lat="45.19743" lon="5.99014">
        <ele>2442</ele>
        <time>2019-08-23T13:58:27Z</time>
      </trkpt>
      <trkpt lat="45.19774" lon="5.99078">
        <ele>2428.4</ele>
        <time>2019-08-23T13:59:27Z</time>
      </trkpt>
      <trkpt lat="45.19804" lon="5.99123">
        <ele>2413.2</ele>
        <time>2019-08-23T13:59:58Z</time>
      </trkpt>
      <trkpt lat="45.19817" lon="5.99175">
        <ele>2412</ele>
        <time>2019-08-23T14:00:57Z</time>
      </trkpt>
      <trkpt lat="45.19857" lon="5.99199">
        <ele>2404.6</ele>
        <time>2019-08-23T14:01:27Z</time>
      </trkpt>
      <trkpt lat="45.19851" lon="5.99335">
        <ele>2386.2</ele>
        <time>2019-08-23T14:02:56Z</time>
      </trkpt>
      <trkpt lat="45.19845" lon="5.9942">
        <ele>2392.4</ele>
        <time>2019-08-23T14:04:26Z</time>
      </trkpt>
      <trkpt lat="45.19896" lon="5.99472">
        <ele>2391</ele>
        <time>2019-08-23T14:05:56Z</time>
      </trkpt>
      <trkpt lat="45.19959" lon="5.99441">
        <ele>2382.6</ele>
        <time>2019-08-23T14:06:28Z</time>
      </trkpt>
      <trkpt lat="45.19908" lon="5.99464">
        <ele>2397</ele>
        <time>2019-08-23T14:07:56Z</time>
      </trkpt>
      <trkpt lat="45.19971" lon="5.99469">
        <ele>2407.2</ele>
        <time>2019-08-23T14:08:27Z</time>
      </trkpt>
      <trkpt lat="45.20027" lon="5.99608">
        <ele>2412.6</ele>
        <time>2019-08-23T14:11:57Z</time>
      </trkpt>
      <trkpt lat="45.20045" lon="5.99671">
        <ele>2429.6</ele>
        <time>2019-08-23T14:13:26Z</time>
      </trkpt>
      <trkpt lat="45.20052" lon="5.99604">
        <ele>2450.8</ele>
        <time>2019-08-23T14:13:57Z</time>
      </trkpt>
      <trkpt lat="45.20058" lon="5.99726">
        <ele>2456.2</ele>
        <time>2019-08-23T14:14:27Z</time>
      </trkpt>
      <trkpt lat="45.20102" lon="5.99791">
        <ele>2481.6</ele>
        <time>2019-08-23T14:16:27Z</time>
      </trkpt>
      <trkpt lat="45.20123" lon="5.9985">
        <ele>2500.6</ele>
        <time>2019-08-23T14:17:26Z</time>
      </trkpt>
      <trkpt lat="45.20123" lon="5.99932">
        <ele>2507.4</ele>
        <time>2019-08-23T14:18:56Z</time>
      </trkpt>
      <trkpt lat="45.20149" lon="5.99983">
        <ele>2502.4</ele>
        <time>2019-08-23T14:19:58Z</time>
      </trkpt>
      <trkpt lat="45.2016" lon="6.00073">
        <ele>2481.6</ele>
        <time>2019-08-23T14:21:57Z</time>
      </trkpt>
      <trkpt lat="45.20203" lon="6.00149">
        <ele>2447.2</ele>
        <time>2019-08-23T14:23:27Z</time>
      </trkpt>
      <trkpt lat="45.20234" lon="6.00246">
        <ele>2409.2</ele>
        <time>2019-08-23T14:25:56Z</time>
      </trkpt>
      <trkpt lat="45.2025" lon="6.00322">
        <ele>2376.2</ele>
        <time>2019-08-23T14:26:57Z</time>
      </trkpt>
      <trkpt lat="45.20274" lon="6.00365">
        <ele>2345.4</ele>
        <time>2019-08-23T14:27:57Z</time>
      </trkpt>
      <trkpt lat="45.20283" lon="6.00418">
        <ele>2323</ele>
        <time>2019-08-23T14:28:57Z</time>
      </trkpt>
      <trkpt lat="45.20296" lon="6.00505">
        <ele>2306.2</ele>
        <time>2019-08-23T14:29:57Z</time>
      </trkpt>
      <trkpt lat="45.20294" lon="6.0058">
        <ele>2288.8</ele>
        <time>2019-08-23T14:30:57Z</time>
      </trkpt>
      <trkpt lat="45.20257" lon="6.00606">
        <ele>2273.4</ele>
        <time>2019-08-23T14:31:27Z</time>
      </trkpt>
      <trkpt lat="45.20273" lon="6.00676">
        <ele>2252.4</ele>
        <time>2019-08-23T14:32:27Z</time>
      </trkpt>
      <trkpt lat="45.20289" lon="6.00738">
        <ele>2246.8</ele>
        <time>2019-08-23T14:33:28Z</time>
      </trkpt>
      <trkpt lat="45.203" lon="6.00805">
        <ele>2228.6</ele>
        <time>2019-08-23T14:34:27Z</time>
      </trkpt>
      <trkpt lat="45.20342" lon="6.00864">
        <ele>2211</ele>
        <time>2019-08-23T14:35:57Z</time>
      </trkpt>
      <trkpt lat="45.20362" lon="6.00919">
        <ele>2195.2</ele>
        <time>2019-08-23T14:37:27Z</time>
      </trkpt>
      <trkpt lat="45.20383" lon="6.00998">
        <ele>2183</ele>
        <time>2019-08-23T14:38:57Z</time>
      </trkpt>
      <trkpt lat="45.20381" lon="6.01051">
        <ele>2156</ele>
        <time>2019-08-23T14:39:27Z</time>
      </trkpt>
      <trkpt lat="45.20392" lon="6.01127">
        <ele>2145</ele>
        <time>2019-08-23T14:40:27Z</time>
      </trkpt>
      <trkpt lat="45.20396" lon="6.01195">
        <ele>2135.4</ele>
        <time>2019-08-23T14:41:27Z</time>
      </trkpt>
      <trkpt lat="45.20396" lon="6.01305">
        <ele>2117.6</ele>
        <time>2019-08-23T14:42:56Z</time>
      </trkpt>
      <trkpt lat="45.20422" lon="6.01363">
        <ele>2102.8</ele>
        <time>2019-08-23T14:43:26Z</time>
      </trkpt>
      <trkpt lat="45.20436" lon="6.01459">
        <ele>2097.2</ele>
        <time>2019-08-23T14:45:27Z</time>
      </trkpt>
      <trkpt lat="45.20506" lon="6.0148">
        <ele>2086.2</ele>
        <time>2019-08-23T14:46:27Z</time>
      </trkpt>
      <trkpt lat="45.20551" lon="6.01456">
        <ele>2075.6</ele>
        <time>2019-08-23T14:47:27Z</time>
      </trkpt>
      <trkpt lat="45.20592" lon="6.01475">
        <ele>2083.6</ele>
        <time>2019-08-23T14:48:27Z</time>
      </trkpt>
      <trkpt lat="45.20596" lon="6.01546">
        <ele>2093.4</ele>
        <time>2019-08-23T14:49:28Z</time>
      </trkpt>
      <trkpt lat="45.2062" lon="6.01654">
        <ele>2106.6</ele>
        <time>2019-08-23T14:50:26Z</time>
      </trkpt>
      <trkpt lat="45.20638" lon="6.01728">
        <ele>2104.2</ele>
        <time>2019-08-23T14:52:27Z</time>
      </trkpt>
      <trkpt lat="45.20699" lon="6.01808">
        <ele>2114.2</ele>
        <time>2019-08-23T14:53:57Z</time>
      </trkpt>
      <trkpt lat="45.20768" lon="6.01881">
        <ele>2107.6</ele>
        <time>2019-08-23T14:55:26Z</time>
      </trkpt>
      <trkpt lat="45.20792" lon="6.01949">
        <ele>2095</ele>
        <time>2019-08-23T14:56:27Z</time>
      </trkpt>
      <trkpt lat="45.20777" lon="6.02002">
        <ele>2076</ele>
        <time>2019-08-23T14:57:27Z</time>
      </trkpt>
      <trkpt lat="45.20788" lon="6.02056">
        <ele>2073.4</ele>
        <time>2019-08-23T14:58:27Z</time>
      </trkpt>
      <trkpt lat="45.20819" lon="6.02083">
        <ele>2060.2</ele>
        <time>2019-08-23T14:59:27Z</time>
      </trkpt>
      <trkpt lat="45.20892" lon="6.02059">
        <ele>2055</ele>
        <time>2019-08-23T15:00:27Z</time>
      </trkpt>
      <trkpt lat="45.20924" lon="6.02034">
        <ele>2054.6</ele>
        <time>2019-08-23T15:00:57Z</time>
      </trkpt>
      <trkpt lat="45.20981" lon="6.02035">
        <ele>2057.6</ele>
        <time>2019-08-23T15:01:57Z</time>
      </trkpt>
      <trkpt lat="45.21047" lon="6.02056">
        <ele>2061.4</ele>
        <time>2019-08-23T15:02:57Z</time>
      </trkpt>
      <trkpt lat="45.21103" lon="6.02171">
        <ele>2067</ele>
        <time>2019-08-23T15:04:27Z</time>
      </trkpt>
      <trkpt lat="45.2114" lon="6.02188">
        <ele>2080</ele>
        <time>2019-08-23T15:05:27Z</time>
      </trkpt>
      <trkpt lat="45.21201" lon="6.02207">
        <ele>2092.2</ele>
        <time>2019-08-23T15:07:26Z</time>
      </trkpt>
      <trkpt lat="45.21231" lon="6.02283">
        <ele>2105.6</ele>
        <time>2019-08-23T15:08:57Z</time>
      </trkpt>
      <trkpt lat="45.21248" lon="6.02379">
        <ele>2128.4</ele>
        <time>2019-08-23T15:09:57Z</time>
      </trkpt>
      <trkpt lat="45.21301" lon="6.02458">
        <ele>2142.2</ele>
        <time>2019-08-23T15:11:27Z</time>
      </trkpt>
      <trkpt lat="45.21321" lon="6.02515">
        <ele>2150</ele>
        <time>2019-08-23T15:12:56Z</time>
      </trkpt>
      <trkpt lat="45.21363" lon="6.02524">
        <ele>2151.8</ele>
        <time>2019-08-23T15:13:27Z</time>
      </trkpt>
      <trkpt lat="45.21406" lon="6.02586">
        <ele>2152.8</ele>
        <time>2019-08-23T15:14:26Z</time>
      </trkpt>
      <trkpt lat="45.21463" lon="6.02592">
        <ele>2131.6</ele>
        <time>2019-08-23T15:14:56Z</time>
      </trkpt>
      <trkpt lat="45.21507" lon="6.02638">
        <ele>2114.6</ele>
        <time>2019-08-23T15:15:27Z</time>
      </trkpt>
      <trkpt lat="45.21545" lon="6.02734">
        <ele>2085.4</ele>
        <time>2019-08-23T15:16:57Z</time>
      </trkpt>
      <trkpt lat="45.21576" lon="6.02774">
        <ele>2072</ele>
        <time>2019-08-23T15:17:57Z</time>
      </trkpt>
      <trkpt lat="45.21632" lon="6.02871">
        <ele>2053</ele>
        <time>2019-08-23T15:19:26Z</time>
      </trkpt>
      <trkpt lat="45.21702" lon="6.02875">
        <ele>2036.4</ele>
        <time>2019-08-23T15:20:27Z</time>
      </trkpt>
      <trkpt lat="45.21755" lon="6.02931">
        <ele>2022.4</ele>
        <time>2019-08-23T15:21:27Z</time>
      </trkpt>
      <trkpt lat="45.218" lon="6.02886">
        <ele>2014.4</ele>
        <time>2019-08-23T15:22:27Z</time>
      </trkpt>
      <trkpt lat="45.21811" lon="6.02821">
        <ele>1999</ele>
        <time>2019-08-23T15:22:57Z</time>
      </trkpt>
      <trkpt lat="45.21828" lon="6.0275">
        <ele>1986.8</ele>
        <time>2019-08-23T15:23:27Z</time>
      </trkpt>
      <trkpt lat="45.2183" lon="6.02646">
        <ele>1985</ele>
        <time>2019-08-23T15:23:57Z</time>
      </trkpt>
      <trkpt lat="45.21859" lon="6.026">
        <ele>1981</ele>
        <time>2019-08-23T15:24:27Z</time>
      </trkpt>
      <trkpt lat="45.21856" lon="6.02545">
        <ele>1979.2</ele>
        <time>2019-08-23T15:24:57Z</time>
      </trkpt>
      <trkpt lat="45.21855" lon="6.02482">
        <ele>1965.8</ele>
        <time>2019-08-23T15:25:57Z</time>
      </trkpt>
      <trkpt lat="45.21888" lon="6.02518">
        <ele>1956</ele>
        <time>2019-08-23T15:26:27Z</time>
      </trkpt>
      <trkpt lat="45.21901" lon="6.02466">
        <ele>1944.6</ele>
        <time>2019-08-23T15:27:27Z</time>
      </trkpt>
      <trkpt lat="45.21874" lon="6.02403">
        <ele>1931.2</ele>
        <time>2019-08-23T15:27:57Z</time>
      </trkpt>
      <trkpt lat="45.21916" lon="6.0244">
        <ele>1916.2</ele>
        <time>2019-08-23T15:28:27Z</time>
      </trkpt>
      <trkpt lat="45.22001" lon="6.02497">
        <ele>1913.2</ele>
        <time>2019-08-23T15:29:27Z</time>
      </trkpt>
      <trkpt lat="45.22032" lon="6.02451">
        <ele>1885</ele>
        <time>2019-08-23T15:30:27Z</time>
      </trkpt>
      <trkpt lat="45.22078" lon="6.02486">
        <ele>1865</ele>
        <time>2019-08-23T15:30:57Z</time>
      </trkpt>
      <trkpt lat="45.22057" lon="6.02427">
        <ele>1844.4</ele>
        <time>2019-08-23T15:31:58Z</time>
      </trkpt>
      <trkpt lat="45.22108" lon="6.02363">
        <ele>1816.6</ele>
        <time>2019-08-23T15:32:57Z</time>
      </trkpt>
      <trkpt lat="45.22148" lon="6.02356">
        <ele>1791.4</ele>
        <time>2019-08-23T15:33:27Z</time>
      </trkpt>
      <trkpt lat="45.22188" lon="6.02309">
        <ele>1790.4</ele>
        <time>2019-08-23T15:33:57Z</time>
      </trkpt>
      <trkpt lat="45.22212" lon="6.02246">
        <ele>1781</ele>
        <time>2019-08-23T15:34:27Z</time>
      </trkpt>
      <trkpt lat="45.22225" lon="6.02173">
        <ele>1770.4</ele>
        <time>2019-08-23T15:34:57Z</time>
      </trkpt>
      <trkpt lat="45.22265" lon="6.02161">
        <ele>1764.2</ele>
        <time>2019-08-23T15:35:27Z</time>
      </trkpt>
      <trkpt lat="45.22321" lon="6.02172">
        <ele>1766.6</ele>
        <time>2019-08-23T15:35:57Z</time>
      </trkpt>
      <trkpt lat="45.22365" lon="6.02126">
        <ele>1766</ele>
        <time>2019-08-23T15:36:27Z</time>
      </trkpt>
      <trkpt lat="45.22342" lon="6.02061">
        <ele>1769.6</ele>
        <time>2019-08-23T15:36:57Z</time>
      </trkpt>
      <trkpt lat="45.221" lon="6.02099">
        <ele>1793</ele>
        <time>2019-08-23T15:37:28Z</time>
      </trkpt>
      <trkpt lat="45.22349" lon="6.0207">
        <ele>1803.6</ele>
        <time>2019-08-23T15:38:27Z</time>
      </trkpt>
      <trkpt lat="45.22261" lon="6.02048">
        <ele>1918.4</ele>
        <time>2019-08-23T15:44:28Z</time>
      </trkpt>
      <trkpt lat="45.22359" lon="6.02076">
        <ele>1914.6</ele>
        <time>2019-08-23T15:44:58Z</time>
      </trkpt>
      <trkpt lat="45.22298" lon="6.02014">
        <ele>1916.6</ele>
        <time>2019-08-23T15:47:26Z</time>
      </trkpt>
      <trkpt lat="45.2237" lon="6.02071">
        <ele>1905</ele>
        <time>2019-08-23T15:47:57Z</time>
      </trkpt>
      <trkpt lat="45.22384" lon="6.02155">
        <ele>1924</ele>
        <time>2019-08-23T15:55:27Z</time>
      </trkpt>
      <trkpt lat="45.22385" lon="6.02262">
        <ele>1823</ele>
        <time>2019-08-23T15:56:57Z</time>
      </trkpt>
      <trkpt lat="45.22413" lon="6.02315">
        <ele>1841.8</ele>
        <time>2019-08-23T15:58:27Z</time>
      </trkpt>
      <trkpt lat="45.22427" lon="6.02362">
        <ele>1857</ele>
        <time>2019-08-23T15:59:27Z</time>
      </trkpt>
      <trkpt lat="45.2247" lon="6.02394">
        <ele>1873.4</ele>
        <time>2019-08-23T16:01:27Z</time>
      </trkpt>
      <trkpt lat="45.22492" lon="6.02441">
        <ele>1881.8</ele>
        <time>2019-08-23T16:02:27Z</time>
      </trkpt>
      <trkpt lat="45.22535" lon="6.0247">
        <ele>1894.8</ele>
        <time>2019-08-23T16:03:27Z</time>
      </trkpt>
      <trkpt lat="45.22579" lon="6.02495">
        <ele>1915</ele>
        <time>2019-08-23T16:04:27Z</time>
      </trkpt>
      <trkpt lat="45.22638" lon="6.02516">
        <ele>1928</ele>
        <time>2019-08-23T16:05:57Z</time>
      </trkpt>
      <trkpt lat="45.22686" lon="6.0251">
        <ele>1943</ele>
        <time>2019-08-23T16:07:27Z</time>
      </trkpt>
      <trkpt lat="45.22732" lon="6.02499">
        <ele>1951.2</ele>
        <time>2019-08-23T16:08:27Z</time>
      </trkpt>
      <trkpt lat="45.22769" lon="6.0253">
        <ele>1966.4</ele>
        <time>2019-08-23T16:09:27Z</time>
      </trkpt>
      <trkpt lat="45.22819" lon="6.02592">
        <ele>1976.4</ele>
        <time>2019-08-23T16:10:27Z</time>
      </trkpt>
      <trkpt lat="45.22846" lon="6.02646">
        <ele>1991.4</ele>
        <time>2019-08-23T16:11:57Z</time>
      </trkpt>
      <trkpt lat="45.22852" lon="6.02735">
        <ele>2005.2</ele>
        <time>2019-08-23T16:14:27Z</time>
      </trkpt>
      <trkpt lat="45.22907" lon="6.02713">
        <ele>2026.2</ele>
        <time>2019-08-23T16:15:57Z</time>
      </trkpt>
      <trkpt lat="45.22957" lon="6.02727">
        <ele>2045.2</ele>
        <time>2019-08-23T16:16:58Z</time>
      </trkpt>
      <trkpt lat="45.22991" lon="6.02667">
        <ele>2061</ele>
        <time>2019-08-23T16:17:58Z</time>
      </trkpt>
      <trkpt lat="45.23021" lon="6.02604">
        <ele>2073.2</ele>
        <time>2019-08-23T16:20:57Z</time>
      </trkpt>
      <trkpt lat="45.23044" lon="6.02647">
        <ele>2084</ele>
        <time>2019-08-23T16:21:57Z</time>
      </trkpt>
      <trkpt lat="45.23079" lon="6.02681">
        <ele>2092.8</ele>
        <time>2019-08-23T16:22:57Z</time>
      </trkpt>
      <trkpt lat="45.23066" lon="6.02742">
        <ele>2103.4</ele>
        <time>2019-08-23T16:23:27Z</time>
      </trkpt>
      <trkpt lat="45.23074" lon="6.02791">
        <ele>2109.8</ele>
        <time>2019-08-23T16:25:27Z</time>
      </trkpt>
      <trkpt lat="45.23053" lon="6.02855">
        <ele>2117.2</ele>
        <time>2019-08-23T16:27:27Z</time>
      </trkpt>
      <trkpt lat="45.23078" lon="6.02955">
        <ele>2130.4</ele>
        <time>2019-08-23T16:28:27Z</time>
      </trkpt>
      <trkpt lat="45.23058" lon="6.03011">
        <ele>2141.8</ele>
        <time>2019-08-23T16:29:57Z</time>
      </trkpt>
      <trkpt lat="45.23011" lon="6.03047">
        <ele>2151.8</ele>
        <time>2019-08-23T16:30:57Z</time>
      </trkpt>
      <trkpt lat="45.22937" lon="6.03108">
        <ele>2172.8</ele>
        <time>2019-08-23T16:32:27Z</time>
      </trkpt>
      <trkpt lat="45.22935" lon="6.03183">
        <ele>2191</ele>
        <time>2019-08-23T16:34:57Z</time>
      </trkpt>
      <trkpt lat="45.22949" lon="6.03234">
        <ele>2208.6</ele>
        <time>2019-08-23T16:37:27Z</time>
      </trkpt>
      <trkpt lat="45.2297" lon="6.0328">
        <ele>2221.6</ele>
        <time>2019-08-23T16:38:57Z</time>
      </trkpt>
      <trkpt lat="45.22984" lon="6.03334">
        <ele>2234</ele>
        <time>2019-08-23T16:40:27Z</time>
      </trkpt>
      <trkpt lat="45.23" lon="6.03432">
        <ele>2259.4</ele>
        <time>2019-08-23T16:41:27Z</time>
      </trkpt>
      <trkpt lat="45.23043" lon="6.03493">
        <ele>2276</ele>
        <time>2019-08-23T16:42:57Z</time>
      </trkpt>
      <trkpt lat="45.22988" lon="6.03574">
        <ele>2289.2</ele>
        <time>2019-08-23T16:44:29Z</time>
      </trkpt>
      <trkpt lat="45.23047" lon="6.03573">
        <ele>2307</ele>
        <time>2019-08-23T16:45:28Z</time>
      </trkpt>
      <trkpt lat="45.23065" lon="6.03657">
        <ele>2316.2</ele>
        <time>2019-08-23T16:47:57Z</time>
      </trkpt>
      <trkpt lat="45.23092" lon="6.03701">
        <ele>2303.2</ele>
        <time>2019-08-23T16:48:57Z</time>
      </trkpt>
      <trkpt lat="45.23129" lon="6.03708">
        <ele>2295.6</ele>
        <time>2019-08-23T16:49:27Z</time>
      </trkpt>
      <trkpt lat="45.2313" lon="6.03788">
        <ele>2283.6</ele>
        <time>2019-08-23T16:50:27Z</time>
      </trkpt>
      <trkpt lat="45.23126" lon="6.03867">
        <ele>2260</ele>
        <time>2019-08-23T16:51:27Z</time>
      </trkpt>
      <trkpt lat="45.23107" lon="6.03927">
        <ele>2233.4</ele>
        <time>2019-08-23T16:52:57Z</time>
      </trkpt>
      <trkpt lat="45.2309" lon="6.03988">
        <ele>2215.2</ele>
        <time>2019-08-23T16:53:57Z</time>
      </trkpt>
      <trkpt lat="45.23079" lon="6.04037">
        <ele>2199.8</ele>
        <time>2019-08-23T16:54:57Z</time>
      </trkpt>
      <trkpt lat="45.23036" lon="6.04016">
        <ele>2186.2</ele>
        <time>2019-08-23T16:55:27Z</time>
      </trkpt>
      <trkpt lat="45.22999" lon="6.0397">
        <ele>2178</ele>
        <time>2019-08-23T16:55:57Z</time>
      </trkpt>
      <trkpt lat="45.22998" lon="6.04056">
        <ele>2182.2</ele>
        <time>2019-08-23T16:56:27Z</time>
      </trkpt>
      <trkpt lat="45.22964" lon="6.04072">
        <ele>2170.6</ele>
        <time>2019-08-23T16:56:57Z</time>
      </trkpt>
      <trkpt lat="45.22892" lon="6.04083">
        <ele>2162.2</ele>
        <time>2019-08-23T16:57:57Z</time>
      </trkpt>
      <trkpt lat="45.2285" lon="6.04064">
        <ele>2157.6</ele>
        <time>2019-08-23T16:58:57Z</time>
      </trkpt>
      <trkpt lat="45.22833" lon="6.04124">
        <ele>2164.8</ele>
        <time>2019-08-23T16:59:27Z</time>
      </trkpt>
      <trkpt lat="45.22805" lon="6.0416">
        <ele>2159.6</ele>
        <time>2019-08-23T17:00:27Z</time>
      </trkpt>
      <trkpt lat="45.22824" lon="6.04221">
        <ele>2167.2</ele>
        <time>2019-08-23T17:01:28Z</time>
      </trkpt>
      <trkpt lat="45.22779" lon="6.04298">
        <ele>2171.6</ele>
        <time>2019-08-23T17:02:27Z</time>
      </trkpt>
      <trkpt lat="45.22784" lon="6.0438">
        <ele>2183.6</ele>
        <time>2019-08-23T17:03:27Z</time>
      </trkpt>
      <trkpt lat="45.22778" lon="6.0446">
        <ele>2183.8</ele>
        <time>2019-08-23T17:04:57Z</time>
      </trkpt>
      <trkpt lat="45.22738" lon="6.04527">
        <ele>2193.4</ele>
        <time>2019-08-23T17:06:27Z</time>
      </trkpt>
      <trkpt lat="45.22713" lon="6.04605">
        <ele>2204.4</ele>
        <time>2019-08-23T17:07:28Z</time>
      </trkpt>
      <trkpt lat="45.22691" lon="6.04663">
        <ele>2220.8</ele>
        <time>2019-08-23T17:08:27Z</time>
      </trkpt>
      <trkpt lat="45.22716" lon="6.04707">
        <ele>2235</ele>
        <time>2019-08-23T17:09:27Z</time>
      </trkpt>
      <trkpt lat="45.22752" lon="6.04734">
        <ele>2254.2</ele>
        <time>2019-08-23T17:10:57Z</time>
      </trkpt>
      <trkpt lat="45.22775" lon="6.04779">
        <ele>2273</ele>
        <time>2019-08-23T17:11:57Z</time>
      </trkpt>
      <trkpt lat="45.22815" lon="6.04758">
        <ele>2288.8</ele>
        <time>2019-08-23T17:13:57Z</time>
      </trkpt>
      <trkpt lat="45.2286" lon="6.04745">
        <ele>2303.6</ele>
        <time>2019-08-23T17:15:27Z</time>
      </trkpt>
      <trkpt lat="45.22885" lon="6.04787">
        <ele>2312</ele>
        <time>2019-08-23T17:16:27Z</time>
      </trkpt>
      <trkpt lat="45.22909" lon="6.04833">
        <ele>2328.8</ele>
        <time>2019-08-23T17:17:27Z</time>
      </trkpt>
      <trkpt lat="45.22953" lon="6.04875">
        <ele>2339.2</ele>
        <time>2019-08-23T17:18:57Z</time>
      </trkpt>
      <trkpt lat="45.22965" lon="6.04937">
        <ele>2355.4</ele>
        <time>2019-08-23T17:20:27Z</time>
      </trkpt>
      <trkpt lat="45.23012" lon="6.04996">
        <ele>2366</ele>
        <time>2019-08-23T17:21:27Z</time>
      </trkpt>
      <trkpt lat="45.23041" lon="6.05043">
        <ele>2368.6</ele>
        <time>2019-08-23T17:22:27Z</time>
      </trkpt>
      <trkpt lat="45.23077" lon="6.05117">
        <ele>2371.4</ele>
        <time>2019-08-23T17:23:27Z</time>
      </trkpt>
      <trkpt lat="45.2312" lon="6.05226">
        <ele>2383</ele>
        <time>2019-08-23T17:24:27Z</time>
      </trkpt>
      <trkpt lat="45.23131" lon="6.05287">
        <ele>2392</ele>
        <time>2019-08-23T17:25:57Z</time>
      </trkpt>
      <trkpt lat="45.23134" lon="6.05341">
        <ele>2388.4</ele>
        <time>2019-08-23T17:27:27Z</time>
      </trkpt>
      <trkpt lat="45.23124" lon="6.05392">
        <ele>2412.4</ele>
        <time>2019-08-23T17:28:27Z</time>
      </trkpt>
      <trkpt lat="45.23186" lon="6.05471">
        <ele>2422.6</ele>
        <time>2019-08-23T17:29:27Z</time>
      </trkpt>
      <trkpt lat="45.23114" lon="6.05441">
        <ele>2429</ele>
        <time>2019-08-23T17:29:58Z</time>
      </trkpt>
      <trkpt lat="45.23146" lon="6.0547">
        <ele>2437.2</ele>
        <time>2019-08-23T17:30:57Z</time>
      </trkpt>
      <trkpt lat="45.23175" lon="6.05506">
        <ele>2457.8</ele>
        <time>2019-08-23T17:32:27Z</time>
      </trkpt>
      <trkpt lat="45.23142" lon="6.0553">
        <ele>2462</ele>
        <time>2019-08-23T17:32:58Z</time>
      </trkpt>
      <trkpt lat="45.23138" lon="6.05607">
        <ele>2470</ele>
        <time>2019-08-23T17:34:27Z</time>
      </trkpt>
      <trkpt lat="45.23116" lon="6.05657">
        <ele>2481.6</ele>
        <time>2019-08-23T17:35:57Z</time>
      </trkpt>
      <trkpt lat="45.2313" lon="6.0573">
        <ele>2497.6</ele>
        <time>2019-08-23T17:37:58Z</time>
      </trkpt>
      <trkpt lat="45.23083" lon="6.05769">
        <ele>2516.2</ele>
        <time>2019-08-23T17:39:57Z</time>
      </trkpt>
      <trkpt lat="45.2306" lon="6.0584">
        <ele>2519.4</ele>
        <time>2019-08-23T17:42:27Z</time>
      </trkpt>
      <trkpt lat="45.23079" lon="6.05891">
        <ele>2544.8</ele>
        <time>2019-08-23T17:43:57Z</time>
      </trkpt>
      <trkpt lat="45.23067" lon="6.05831">
        <ele>2561.8</ele>
        <time>2019-08-23T17:45:58Z</time>
      </trkpt>
      <trkpt lat="45.23039" lon="6.05933">
        <ele>2582.2</ele>
        <time>2019-08-23T17:46:58Z</time>
      </trkpt>
      <trkpt lat="45.2302" lon="6.05982">
        <ele>2583</ele>
        <time>2019-08-23T17:48:57Z</time>
      </trkpt>
      <trkpt lat="45.23039" lon="6.0604">
        <ele>2587</ele>
        <time>2019-08-23T17:50:28Z</time>
      </trkpt>
      <trkpt lat="45.23058" lon="6.06112">
        <ele>2569.8</ele>
        <time>2019-08-23T17:54:28Z</time>
      </trkpt>
      <trkpt lat="45.23094" lon="6.06213">
        <ele>2553.2</ele>
        <time>2019-08-23T17:56:58Z</time>
      </trkpt>
      <trkpt lat="45.23106" lon="6.06266">
        <ele>2512</ele>
        <time>2019-08-23T17:58:27Z</time>
      </trkpt>
      <trkpt lat="45.23136" lon="6.06329">
        <ele>2489</ele>
        <time>2019-08-23T18:00:27Z</time>
      </trkpt>
      <trkpt lat="45.23235" lon="6.06395">
        <ele>2475.4</ele>
        <time>2019-08-23T18:01:58Z</time>
      </trkpt>
      <trkpt lat="45.23146" lon="6.06342">
        <ele>2462.2</ele>
        <time>2019-08-23T18:02:57Z</time>
      </trkpt>
      <trkpt lat="45.23235" lon="6.06404">
        <ele>2452</ele>
        <time>2019-08-23T18:04:58Z</time>
      </trkpt>
      <trkpt lat="45.2314" lon="6.06348">
        <ele>2454.2</ele>
        <time>2019-08-23T18:05:57Z</time>
      </trkpt>
      <trkpt lat="45.2319" lon="6.06422">
        <ele>2449.4</ele>
        <time>2019-08-23T18:11:27Z</time>
      </trkpt>
      <trkpt lat="45.23228" lon="6.06466">
        <ele>2438.6</ele>
        <time>2019-08-23T18:12:27Z</time>
      </trkpt>
      <trkpt lat="45.23212" lon="6.06543">
        <ele>2426.2</ele>
        <time>2019-08-23T18:13:27Z</time>
      </trkpt>
      <trkpt lat="45.23233" lon="6.06618">
        <ele>2404.8</ele>
        <time>2019-08-23T18:14:27Z</time>
      </trkpt>
      <trkpt lat="45.2323" lon="6.06677">
        <ele>2383</ele>
        <time>2019-08-23T18:15:27Z</time>
      </trkpt>
      <trkpt lat="45.23216" lon="6.06754">
        <ele>2363.8</ele>
        <time>2019-08-23T18:16:27Z</time>
      </trkpt>
      <trkpt lat="45.23222" lon="6.06832">
        <ele>2348.8</ele>
        <time>2019-08-23T18:17:27Z</time>
      </trkpt>
      <trkpt lat="45.23212" lon="6.06909">
        <ele>2333.8</ele>
        <time>2019-08-23T18:18:27Z</time>
      </trkpt>
      <trkpt lat="45.23226" lon="6.06971">
        <ele>2321.2</ele>
        <time>2019-08-23T18:19:27Z</time>
      </trkpt>
      <trkpt lat="45.23233" lon="6.07061">
        <ele>2303.4</ele>
        <time>2019-08-23T18:20:27Z</time>
      </trkpt>
      <trkpt lat="45.23229" lon="6.07166">
        <ele>2289.6</ele>
        <time>2019-08-23T18:21:27Z</time>
      </trkpt>
      <trkpt lat="45.23232" lon="6.07222">
        <ele>2276.4</ele>
        <time>2019-08-23T18:21:57Z</time>
      </trkpt>
      <trkpt lat="45.23229" lon="6.07278">
        <ele>2259.6</ele>
        <time>2019-08-23T18:22:27Z</time>
      </trkpt>
      <trkpt lat="45.2322" lon="6.07372">
        <ele>2249.4</ele>
        <time>2019-08-23T18:23:27Z</time>
      </trkpt>
      <trkpt lat="45.23238" lon="6.07434">
        <ele>2243.6</ele>
        <time>2019-08-23T18:23:57Z</time>
      </trkpt>
      <trkpt lat="45.23272" lon="6.07484">
        <ele>2236.8</ele>
        <time>2019-08-23T18:24:27Z</time>
      </trkpt>
      <trkpt lat="45.23294" lon="6.0753">
        <ele>2226.4</ele>
        <time>2019-08-23T18:24:57Z</time>
      </trkpt>
      <trkpt lat="45.23322" lon="6.07575">
        <ele>2228.2</ele>
        <time>2019-08-23T18:25:27Z</time>
      </trkpt>
      <trkpt lat="45.23348" lon="6.07625">
        <ele>2230.6</ele>
        <time>2019-08-23T18:25:57Z</time>
      </trkpt>
      <trkpt lat="45.23383" lon="6.07667">
        <ele>2232.4</ele>
        <time>2019-08-23T18:26:57Z</time>
      </trkpt>
      <trkpt lat="45.23423" lon="6.07689">
        <ele>2231.4</ele>
        <time>2019-08-23T18:27:27Z</time>
      </trkpt>
      <trkpt lat="45.23443" lon="6.07763">
        <ele>2239</ele>
        <time>2019-08-23T18:28:28Z</time>
      </trkpt>
      <trkpt lat="45.23485" lon="6.07851">
        <ele>2242.2</ele>
        <time>2019-08-23T18:29:27Z</time>
      </trkpt>
      <trkpt lat="45.23501" lon="6.07898">
        <ele>2238.2</ele>
        <time>2019-08-23T18:29:57Z</time>
      </trkpt>
      <trkpt lat="45.2354" lon="6.07938">
        <ele>2238.8</ele>
        <time>2019-08-23T18:30:27Z</time>
      </trkpt>
      <trkpt lat="45.23596" lon="6.08011">
        <ele>2238.2</ele>
        <time>2019-08-23T18:31:27Z</time>
      </trkpt>
      <trkpt lat="45.23639" lon="6.0806">
        <ele>2234.4</ele>
        <time>2019-08-23T18:32:27Z</time>
      </trkpt>
      <trkpt lat="45.2366" lon="6.08107">
        <ele>2228</ele>
        <time>2019-08-23T18:32:57Z</time>
      </trkpt>
      <trkpt lat="45.23672" lon="6.08161">
        <ele>2224</ele>
        <time>2019-08-23T18:33:27Z</time>
      </trkpt>
      <trkpt lat="45.23675" lon="6.08217">
        <ele>2219.6</ele>
        <time>2019-08-23T18:33:57Z</time>
      </trkpt>
      <trkpt lat="45.2374" lon="6.08287">
        <ele>2220.2</ele>
        <time>2019-08-23T18:34:57Z</time>
      </trkpt>
      <trkpt lat="45.23798" lon="6.08335">
        <ele>2223.6</ele>
        <time>2019-08-23T18:35:57Z</time>
      </trkpt>
      <trkpt lat="45.23878" lon="6.08341">
        <ele>2225</ele>
        <time>2019-08-23T18:36:57Z</time>
      </trkpt>
      <trkpt lat="45.23926" lon="6.08327">
        <ele>2222.4</ele>
        <time>2019-08-23T18:37:27Z</time>
      </trkpt>
      <trkpt lat="45.23958" lon="6.08364">
        <ele>2215.2</ele>
        <time>2019-08-23T18:37:57Z</time>
      </trkpt>
      <trkpt lat="45.23996" lon="6.0839">
        <ele>2214</ele>
        <time>2019-08-23T18:38:27Z</time>
      </trkpt>
      <trkpt lat="45.2405" lon="6.08393">
        <ele>2208.2</ele>
        <time>2019-08-23T18:38:57Z</time>
      </trkpt>
      <trkpt lat="45.24084" lon="6.08423">
        <ele>2206.4</ele>
        <time>2019-08-23T18:39:27Z</time>
      </trkpt>
      <trkpt lat="45.24121" lon="6.08429">
        <ele>2209.4</ele>
        <time>2019-08-23T18:39:57Z</time>
      </trkpt>
      <trkpt lat="45.24173" lon="6.0846">
        <ele>2220.6</ele>
        <time>2019-08-23T18:40:57Z</time>
      </trkpt>
      <trkpt lat="45.24226" lon="6.08482">
        <ele>2228</ele>
        <time>2019-08-23T18:41:57Z</time>
      </trkpt>
      <trkpt lat="45.24263" lon="6.08481">
        <ele>2230</ele>
        <time>2019-08-23T18:42:27Z</time>
      </trkpt>
      <trkpt lat="45.24317" lon="6.08477">
        <ele>2234.8</ele>
        <time>2019-08-23T18:43:27Z</time>
      </trkpt>
      <trkpt lat="45.244" lon="6.08464">
        <ele>2245.4</ele>
        <time>2019-08-23T18:44:27Z</time>
      </trkpt>
      <trkpt lat="45.24442" lon="6.08451">
        <ele>2249.4</ele>
        <time>2019-08-23T18:44:57Z</time>
      </trkpt>
      <trkpt lat="45.24488" lon="6.08423">
        <ele>2242.6</ele>
        <time>2019-08-23T18:45:27Z</time>
      </trkpt>
      <trkpt lat="45.24525" lon="6.08383">
        <ele>2247.6</ele>
        <time>2019-08-23T18:45:57Z</time>
      </trkpt>
      <trkpt lat="45.24583" lon="6.08339">
        <ele>2241.6</ele>
        <time>2019-08-23T18:46:57Z</time>
      </trkpt>
      <trkpt lat="45.24636" lon="6.08307">
        <ele>2230</ele>
        <time>2019-08-23T18:47:57Z</time>
      </trkpt>
      <trkpt lat="45.24681" lon="6.083">
        <ele>2213.2</ele>
        <time>2019-08-23T18:48:57Z</time>
      </trkpt>
      <trkpt lat="45.24734" lon="6.08265">
        <ele>2209.4</ele>
        <time>2019-08-23T18:49:57Z</time>
      </trkpt>
      <trkpt lat="45.24771" lon="6.08242">
        <ele>2203.4</ele>
        <time>2019-08-23T18:50:27Z</time>
      </trkpt>
      <trkpt lat="45.24816" lon="6.08227">
        <ele>2196.6</ele>
        <time>2019-08-23T18:51:27Z</time>
      </trkpt>
      <trkpt lat="45.24855" lon="6.08217">
        <ele>2190.2</ele>
        <time>2019-08-23T18:51:57Z</time>
      </trkpt>
      <trkpt lat="45.24899" lon="6.08207">
        <ele>2191</ele>
        <time>2019-08-23T18:52:57Z</time>
      </trkpt>
      <trkpt lat="45.24957" lon="6.08203">
        <ele>2190.4</ele>
        <time>2019-08-23T18:53:57Z</time>
      </trkpt>
      <trkpt lat="45.25002" lon="6.08207">
        <ele>2182</ele>
        <time>2019-08-23T18:54:27Z</time>
      </trkpt>
      <trkpt lat="45.25034" lon="6.08126">
        <ele>2181.4</ele>
        <time>2019-08-23T18:55:27Z</time>
      </trkpt>
      <trkpt lat="45.25067" lon="6.08065">
        <ele>2191</ele>
        <time>2019-08-23T18:56:27Z</time>
      </trkpt>
      <trkpt lat="45.25123" lon="6.08006">
        <ele>2190.6</ele>
        <time>2019-08-23T18:57:28Z</time>
      </trkpt>
      <trkpt lat="45.25156" lon="6.07979">
        <ele>2181.6</ele>
        <time>2019-08-23T18:57:58Z</time>
      </trkpt>
      <trkpt lat="45.25222" lon="6.08002">
        <ele>2179.4</ele>
        <time>2019-08-23T18:58:57Z</time>
      </trkpt>
      <trkpt lat="45.25259" lon="6.08012">
        <ele>2218.2</ele>
        <time>2019-08-23T19:00:27Z</time>
      </trkpt>
      <trkpt lat="45.25306" lon="6.0801">
        <ele>2207.8</ele>
        <time>2019-08-23T19:01:57Z</time>
      </trkpt>
      <trkpt lat="45.25337" lon="6.0791">
        <ele>2199.8</ele>
        <time>2019-08-23T19:02:27Z</time>
      </trkpt>
      <trkpt lat="45.25366" lon="6.0785">
        <ele>2209.6</ele>
        <time>2019-08-23T19:03:57Z</time>
      </trkpt>
      <trkpt lat="45.25391" lon="6.07765">
        <ele>2202.6</ele>
        <time>2019-08-23T19:04:57Z</time>
      </trkpt>
      <trkpt lat="45.25425" lon="6.0774">
        <ele>2156.6</ele>
        <time>2019-08-23T19:05:27Z</time>
      </trkpt>
      <trkpt lat="45.25479" lon="6.07758">
        <ele>2165.2</ele>
        <time>2019-08-23T19:06:27Z</time>
      </trkpt>
      <trkpt lat="45.25521" lon="6.07705">
        <ele>2159.8</ele>
        <time>2019-08-23T19:07:27Z</time>
      </trkpt>
      <trkpt lat="45.25578" lon="6.07666">
        <ele>2137.8</ele>
        <time>2019-08-23T19:08:57Z</time>
      </trkpt>
      <trkpt lat="45.25601" lon="6.07608">
        <ele>2119.4</ele>
        <time>2019-08-23T19:11:57Z</time>
      </trkpt>
      <trkpt lat="45.25649" lon="6.07573">
        <ele>2095.6</ele>
        <time>2019-08-23T19:13:27Z</time>
      </trkpt>
      <trkpt lat="45.25683" lon="6.07611">
        <ele>2048.8</ele>
        <time>2019-08-23T19:14:57Z</time>
      </trkpt>
      <trkpt lat="45.2573" lon="6.07577">
        <ele>2020</ele>
        <time>2019-08-23T19:16:58Z</time>
      </trkpt>
      <trkpt lat="45.25747" lon="6.07526">
        <ele>1990.8</ele>
        <time>2019-08-23T19:18:57Z</time>
      </trkpt>
      <trkpt lat="45.25786" lon="6.07516">
        <ele>1967</ele>
        <time>2019-08-23T19:19:57Z</time>
      </trkpt>
      <trkpt lat="45.25878" lon="6.07423">
        <ele>1939.4</ele>
        <time>2019-08-23T19:22:29Z</time>
      </trkpt>
      <trkpt lat="45.25914" lon="6.07326">
        <ele>1921.4</ele>
        <time>2019-08-23T19:23:27Z</time>
      </trkpt>
      <trkpt lat="45.25927" lon="6.07256">
        <ele>1900.2</ele>
        <time>2019-08-23T19:24:27Z</time>
      </trkpt>
      <trkpt lat="45.25953" lon="6.07219">
        <ele>1879.4</ele>
        <time>2019-08-23T19:24:57Z</time>
      </trkpt>
      <trkpt lat="45.25997" lon="6.07171">
        <ele>1862.6</ele>
        <time>2019-08-23T19:25:57Z</time>
      </trkpt>
      <trkpt lat="45.26026" lon="6.0713">
        <ele>1846.4</ele>
        <time>2019-08-23T19:26:57Z</time>
      </trkpt>
      <trkpt lat="45.26071" lon="6.07053">
        <ele>1821.6</ele>
        <time>2019-08-23T19:27:57Z</time>
      </trkpt>
      <trkpt lat="45.26104" lon="6.06975">
        <ele>1804.2</ele>
        <time>2019-08-23T19:28:57Z</time>
      </trkpt>
      <trkpt lat="45.26138" lon="6.06942">
        <ele>1794.2</ele>
        <time>2019-08-23T19:29:57Z</time>
      </trkpt>
      <trkpt lat="45.26182" lon="6.06943">
        <ele>1778.8</ele>
        <time>2019-08-23T19:30:27Z</time>
      </trkpt>
      <trkpt lat="45.26227" lon="6.0691">
        <ele>1764.6</ele>
        <time>2019-08-23T19:30:57Z</time>
      </trkpt>
      <trkpt lat="45.26259" lon="6.06866">
        <ele>1759.4</ele>
        <time>2019-08-23T19:31:27Z</time>
      </trkpt>
      <trkpt lat="45.26289" lon="6.06825">
        <ele>1749.6</ele>
        <time>2019-08-23T19:31:57Z</time>
      </trkpt>
      <trkpt lat="45.2633" lon="6.06805">
        <ele>1732.6</ele>
        <time>2019-08-23T19:32:27Z</time>
      </trkpt>
      <trkpt lat="45.2638" lon="6.06782">
        <ele>1722.2</ele>
        <time>2019-08-23T19:32:57Z</time>
      </trkpt>
      <trkpt lat="45.26427" lon="6.0679">
        <ele>1706</ele>
        <time>2019-08-23T19:33:28Z</time>
      </trkpt>
      <trkpt lat="45.26464" lon="6.06781">
        <ele>1695</ele>
        <time>2019-08-23T19:33:59Z</time>
      </trkpt>
      <trkpt lat="45.26516" lon="6.0682">
        <ele>1684.2</ele>
        <time>2019-08-23T19:34:57Z</time>
      </trkpt>
      <trkpt lat="45.26565" lon="6.06822">
        <ele>1679.6</ele>
        <time>2019-08-23T19:35:27Z</time>
      </trkpt>
      <trkpt lat="45.26584" lon="6.06749">
        <ele>1678.4</ele>
        <time>2019-08-23T19:36:27Z</time>
      </trkpt>
      <trkpt lat="45.26591" lon="6.06679">
        <ele>1690.6</ele>
        <time>2019-08-23T19:37:27Z</time>
      </trkpt>
      <trkpt lat="45.26573" lon="6.06633">
        <ele>1696.4</ele>
        <time>2019-08-23T19:38:27Z</time>
      </trkpt>
      <trkpt lat="45.26608" lon="6.06562">
        <ele>1705.4</ele>
        <time>2019-08-23T19:39:27Z</time>
      </trkpt>
      <trkpt lat="45.2663" lon="6.06508">
        <ele>1717.4</ele>
        <time>2019-08-23T19:40:27Z</time>
      </trkpt>
      <trkpt lat="45.2661" lon="6.06431">
        <ele>1722</ele>
        <time>2019-08-23T19:41:27Z</time>
      </trkpt>
      <trkpt lat="45.26568" lon="6.06412">
        <ele>1725.4</ele>
        <time>2019-08-23T19:41:57Z</time>
      </trkpt>
      <trkpt lat="45.26518" lon="6.06393">
        <ele>1732.8</ele>
        <time>2019-08-23T19:42:29Z</time>
      </trkpt>
      <trkpt lat="45.26486" lon="6.06355">
        <ele>1740.6</ele>
        <time>2019-08-23T19:43:27Z</time>
      </trkpt>
      <trkpt lat="45.26453" lon="6.06314">
        <ele>1747.4</ele>
        <time>2019-08-23T19:44:27Z</time>
      </trkpt>
      <trkpt lat="45.26406" lon="6.06284">
        <ele>1755.4</ele>
        <time>2019-08-23T19:45:29Z</time>
      </trkpt>
      <trkpt lat="45.26345" lon="6.06305">
        <ele>1757.2</ele>
        <time>2019-08-23T19:46:27Z</time>
      </trkpt>
      <trkpt lat="45.2631" lon="6.06289">
        <ele>1754.4</ele>
        <time>2019-08-23T19:46:57Z</time>
      </trkpt>
      <trkpt lat="45.26264" lon="6.06264">
        <ele>1743.4</ele>
        <time>2019-08-23T19:47:27Z</time>
      </trkpt>
      <trkpt lat="45.26228" lon="6.06276">
        <ele>1738.4</ele>
        <time>2019-08-23T19:47:58Z</time>
      </trkpt>
      <trkpt lat="45.26194" lon="6.06261">
        <ele>1743.4</ele>
        <time>2019-08-23T19:48:30Z</time>
      </trkpt>
      <trkpt lat="45.26119" lon="6.06219">
        <ele>1741.4</ele>
        <time>2019-08-23T19:49:27Z</time>
      </trkpt>
      <trkpt lat="45.26009" lon="6.06174">
        <ele>1738.4</ele>
        <time>2019-08-23T19:50:28Z</time>
      </trkpt>
      <trkpt lat="45.26068" lon="6.06144">
        <ele>1731.2</ele>
        <time>2019-08-23T19:50:59Z</time>
      </trkpt>
      <trkpt lat="45.26" lon="6.06153">
        <ele>1724.6</ele>
        <time>2019-08-23T19:51:59Z</time>
      </trkpt>
      <trkpt lat="45.25942" lon="6.06153">
        <ele>1697.6</ele>
        <time>2019-08-23T19:52:59Z</time>
      </trkpt>
      <trkpt lat="45.25882" lon="6.06134">
        <ele>1681.6</ele>
        <time>2019-08-23T19:53:58Z</time>
      </trkpt>
      <trkpt lat="45.25751" lon="6.06128">
        <ele>1671.4</ele>
        <time>2019-08-23T19:55:27Z</time>
      </trkpt>
      <trkpt lat="45.25708" lon="6.06083">
        <ele>1675.6</ele>
        <time>2019-08-23T19:55:57Z</time>
      </trkpt>
      <trkpt lat="45.25696" lon="6.06031">
        <ele>1669.2</ele>
        <time>2019-08-23T19:56:27Z</time>
      </trkpt>
      <trkpt lat="45.25654" lon="6.05957">
        <ele>1672.2</ele>
        <time>2019-08-23T19:57:27Z</time>
      </trkpt>
      <trkpt lat="45.25646" lon="6.05898">
        <ele>1674.4</ele>
        <time>2019-08-23T19:58:27Z</time>
      </trkpt>
      <trkpt lat="45.25609" lon="6.05857">
        <ele>1675.8</ele>
        <time>2019-08-23T19:58:57Z</time>
      </trkpt>
      <trkpt lat="45.25607" lon="6.05799">
        <ele>1675.6</ele>
        <time>2019-08-23T19:59:27Z</time>
      </trkpt>
      <trkpt lat="45.25619" lon="6.05737">
        <ele>1684</ele>
        <time>2019-08-23T20:00:28Z</time>
      </trkpt>
      <trkpt lat="45.25596" lon="6.05675">
        <ele>1699.2</ele>
        <time>2019-08-23T20:01:58Z</time>
      </trkpt>
      <trkpt lat="45.25577" lon="6.05613">
        <ele>1708.8</ele>
        <time>2019-08-23T20:03:27Z</time>
      </trkpt>
      <trkpt lat="45.25558" lon="6.05525">
        <ele>1717.2</ele>
        <time>2019-08-23T20:04:27Z</time>
      </trkpt>
      <trkpt lat="45.2555" lon="6.05445">
        <ele>1721.6</ele>
        <time>2019-08-23T20:05:27Z</time>
      </trkpt>
      <trkpt lat="45.25512" lon="6.05358">
        <ele>1720.2</ele>
        <time>2019-08-23T20:06:27Z</time>
      </trkpt>
      <trkpt lat="45.2549" lon="6.05314">
        <ele>1712.6</ele>
        <time>2019-08-23T20:06:57Z</time>
      </trkpt>
      <trkpt lat="45.25472" lon="6.05216">
        <ele>1715</ele>
        <time>2019-08-23T20:08:27Z</time>
      </trkpt>
      <trkpt lat="45.25468" lon="6.05132">
        <ele>1712.8</ele>
        <time>2019-08-23T20:09:27Z</time>
      </trkpt>
      <trkpt lat="45.25502" lon="6.05087">
        <ele>1709.8</ele>
        <time>2019-08-23T20:09:57Z</time>
      </trkpt>
      <trkpt lat="45.25487" lon="6.05033">
        <ele>1709</ele>
        <time>2019-08-23T20:10:27Z</time>
      </trkpt>
      <trkpt lat="45.25477" lon="6.04976">
        <ele>1709.2</ele>
        <time>2019-08-23T20:10:57Z</time>
      </trkpt>
      <trkpt lat="45.25496" lon="6.04894">
        <ele>1709.6</ele>
        <time>2019-08-23T20:11:57Z</time>
      </trkpt>
      <trkpt lat="45.25515" lon="6.04845">
        <ele>1707.4</ele>
        <time>2019-08-23T20:12:27Z</time>
      </trkpt>
      <trkpt lat="45.2555" lon="6.04793">
        <ele>1708.2</ele>
        <time>2019-08-23T20:13:27Z</time>
      </trkpt>
      <trkpt lat="45.256" lon="6.04768">
        <ele>1710.4</ele>
        <time>2019-08-23T20:14:27Z</time>
      </trkpt>
      <trkpt lat="45.25644" lon="6.04755">
        <ele>1712.8</ele>
        <time>2019-08-23T20:14:57Z</time>
      </trkpt>
      <trkpt lat="45.25728" lon="6.04782">
        <ele>1709.4</ele>
        <time>2019-08-23T20:15:57Z</time>
      </trkpt>
      <trkpt lat="45.25798" lon="6.0479">
        <ele>1720</ele>
        <time>2019-08-23T20:16:29Z</time>
      </trkpt>
      <trkpt lat="45.25911" lon="6.04792">
        <ele>1717.2</ele>
        <time>2019-08-23T20:17:27Z</time>
      </trkpt>
      <trkpt lat="45.25961" lon="6.0482">
        <ele>1705.8</ele>
        <time>2019-08-23T20:17:59Z</time>
      </trkpt>
      <trkpt lat="45.26066" lon="6.04812">
        <ele>1697.8</ele>
        <time>2019-08-23T20:18:58Z</time>
      </trkpt>
      <trkpt lat="45.26095" lon="6.04863">
        <ele>1686.4</ele>
        <time>2019-08-23T20:19:28Z</time>
      </trkpt>
      <trkpt lat="45.26123" lon="6.04927">
        <ele>1662.4</ele>
        <time>2019-08-23T20:19:58Z</time>
      </trkpt>
      <trkpt lat="45.26147" lon="6.04995">
        <ele>1652</ele>
        <time>2019-08-23T20:20:28Z</time>
      </trkpt>
      <trkpt lat="45.26252" lon="6.04984">
        <ele>1640.2</ele>
        <time>2019-08-23T20:21:30Z</time>
      </trkpt>
      <trkpt lat="45.26353" lon="6.04991">
        <ele>1629.2</ele>
        <time>2019-08-23T20:22:29Z</time>
      </trkpt>
      <trkpt lat="45.26423" lon="6.04965">
        <ele>1624.2</ele>
        <time>2019-08-23T20:23:00Z</time>
      </trkpt>
      <trkpt lat="45.26482" lon="6.05">
        <ele>1618.2</ele>
        <time>2019-08-23T20:23:30Z</time>
      </trkpt>
      <trkpt lat="45.26576" lon="6.0505">
        <ele>1604.8</ele>
        <time>2019-08-23T20:24:28Z</time>
      </trkpt>
      <trkpt lat="45.2661" lon="6.05076">
        <ele>1596</ele>
        <time>2019-08-23T20:24:58Z</time>
      </trkpt>
      <trkpt lat="45.26712" lon="6.05179">
        <ele>1581</ele>
        <time>2019-08-23T20:26:29Z</time>
      </trkpt>
      <trkpt lat="45.26755" lon="6.05187">
        <ele>1564.8</ele>
        <time>2019-08-23T20:26:59Z</time>
      </trkpt>
      <trkpt lat="45.26864" lon="6.05249">
        <ele>1548.2</ele>
        <time>2019-08-23T20:27:58Z</time>
      </trkpt>
      <trkpt lat="45.26917" lon="6.05282">
        <ele>1534.8</ele>
        <time>2019-08-23T20:28:29Z</time>
      </trkpt>
      <trkpt lat="45.27014" lon="6.0536">
        <ele>1523.8</ele>
        <time>2019-08-23T20:29:27Z</time>
      </trkpt>
      <trkpt lat="45.2702" lon="6.05411">
        <ele>1512.8</ele>
        <time>2019-08-23T20:29:57Z</time>
      </trkpt>
      <trkpt lat="45.27022" lon="6.05487">
        <ele>1503.8</ele>
        <time>2019-08-23T20:30:27Z</time>
      </trkpt>
      <trkpt lat="45.27076" lon="6.05511">
        <ele>1502.6</ele>
        <time>2019-08-23T20:30:57Z</time>
      </trkpt>
      <trkpt lat="45.27129" lon="6.05525">
        <ele>1489</ele>
        <time>2019-08-23T20:31:28Z</time>
      </trkpt>
      <trkpt lat="45.27208" lon="6.05566">
        <ele>1482.6</ele>
        <time>2019-08-23T20:32:28Z</time>
      </trkpt>
      <trkpt lat="45.27253" lon="6.05573">
        <ele>1482.2</ele>
        <time>2019-08-23T20:53:33Z</time>
      </trkpt>
      <trkpt lat="45.27227" lon="6.05537">
        <ele>1478.4</ele>
        <time>2019-08-23T21:14:33Z</time>
      </trkpt>
      <trkpt lat="45.2727" lon="6.0548">
        <ele>1476</ele>
        <time>2019-08-23T21:15:04Z</time>
      </trkpt>
      <trkpt lat="45.2724" lon="6.05537">
        <ele>1491.6</ele>
        <time>2019-08-23T21:15:34Z</time>
      </trkpt>
      <trkpt lat="45.27168" lon="6.05533">
        <ele>1498.2</ele>
        <time>2019-08-23T21:18:04Z</time>
      </trkpt>
      <trkpt lat="45.27135" lon="6.05571">
        <ele>1488</ele>
        <time>2019-08-23T21:19:04Z</time>
      </trkpt>
      <trkpt lat="45.27157" lon="6.05613">
        <ele>1480</ele>
        <time>2019-08-23T21:20:04Z</time>
      </trkpt>
      <trkpt lat="45.27182" lon="6.05675">
        <ele>1461</ele>
        <time>2019-08-23T21:21:05Z</time>
      </trkpt>
      <trkpt lat="45.27194" lon="6.05752">
        <ele>1440.6</ele>
        <time>2019-08-23T21:22:35Z</time>
      </trkpt>
      <trkpt lat="45.27248" lon="6.05819">
        <ele>1418</ele>
        <time>2019-08-23T21:23:39Z</time>
      </trkpt>
      <trkpt lat="45.27291" lon="6.05909">
        <ele>1406.4</ele>
        <time>2019-08-23T21:24:37Z</time>
      </trkpt>
      <trkpt lat="45.2733" lon="6.0596">
        <ele>1402.8</ele>
        <time>2019-08-23T21:25:36Z</time>
      </trkpt>
      <trkpt lat="45.27406" lon="6.06035">
        <ele>1403.4</ele>
        <time>2019-08-23T21:26:36Z</time>
      </trkpt>
      <trkpt lat="45.27454" lon="6.06072">
        <ele>1398.6</ele>
        <time>2019-08-23T21:27:38Z</time>
      </trkpt>
      <trkpt lat="45.27476" lon="6.06122">
        <ele>1391.8</ele>
        <time>2019-08-23T21:28:37Z</time>
      </trkpt>
      <trkpt lat="45.27496" lon="6.0617">
        <ele>1372.6</ele>
        <time>2019-08-23T21:29:07Z</time>
      </trkpt>
      <trkpt lat="45.2755" lon="6.06221">
        <ele>1353</ele>
        <time>2019-08-23T21:30:05Z</time>
      </trkpt>
      <trkpt lat="45.27547" lon="6.06295">
        <ele>1334.2</ele>
        <time>2019-08-23T21:31:06Z</time>
      </trkpt>
      <trkpt lat="45.27597" lon="6.06354">
        <ele>1302.4</ele>
        <time>2019-08-23T21:32:07Z</time>
      </trkpt>
      <trkpt lat="45.27619" lon="6.06433">
        <ele>1283</ele>
        <time>2019-08-23T21:33:35Z</time>
      </trkpt>
      <trkpt lat="45.27658" lon="6.06564">
        <ele>1282.2</ele>
        <time>2019-08-23T21:35:06Z</time>
      </trkpt>
      <trkpt lat="45.27669" lon="6.06674">
        <ele>1260.2</ele>
        <time>2019-08-23T21:36:38Z</time>
      </trkpt>
      <trkpt lat="45.27677" lon="6.06725">
        <ele>1243</ele>
        <time>2019-08-23T21:37:08Z</time>
      </trkpt>
      <trkpt lat="45.27698" lon="6.06793">
        <ele>1252.2</ele>
        <time>2019-08-23T21:38:06Z</time>
      </trkpt>
      <trkpt lat="45.27729" lon="6.0688">
        <ele>1234.8</ele>
        <time>2019-08-23T21:39:04Z</time>
      </trkpt>
      <trkpt lat="45.27729" lon="6.06935">
        <ele>1218.4</ele>
        <time>2019-08-23T21:39:34Z</time>
      </trkpt>
      <trkpt lat="45.27763" lon="6.06971">
        <ele>1208</ele>
        <time>2019-08-23T21:40:05Z</time>
      </trkpt>
      <trkpt lat="45.27792" lon="6.07086">
        <ele>1206.6</ele>
        <time>2019-08-23T21:41:05Z</time>
      </trkpt>
      <trkpt lat="45.27734" lon="6.07091">
        <ele>1191.6</ele>
        <time>2019-08-23T21:42:05Z</time>
      </trkpt>
      <trkpt lat="45.27759" lon="6.0718">
        <ele>1199</ele>
        <time>2019-08-23T21:43:05Z</time>
      </trkpt>
      <trkpt lat="45.27758" lon="6.07245">
        <ele>1206.2</ele>
        <time>2019-08-23T21:44:07Z</time>
      </trkpt>
      <trkpt lat="45.27753" lon="6.07319">
        <ele>1229.4</ele>
        <time>2019-08-23T21:45:08Z</time>
      </trkpt>
      <trkpt lat="45.27719" lon="6.07392">
        <ele>1229</ele>
        <time>2019-08-23T21:48:06Z</time>
      </trkpt>
      <trkpt lat="45.2771" lon="6.07469">
        <ele>1243.6</ele>
        <time>2019-08-23T21:49:04Z</time>
      </trkpt>
      <trkpt lat="45.27711" lon="6.07576">
        <ele>1248.4</ele>
        <time>2019-08-23T21:50:34Z</time>
      </trkpt>
      <trkpt lat="45.27669" lon="6.07628">
        <ele>1261.2</ele>
        <time>2019-08-23T21:51:04Z</time>
      </trkpt>
      <trkpt lat="45.27635" lon="6.07655">
        <ele>1253.6</ele>
        <time>2019-08-23T21:51:34Z</time>
      </trkpt>
      <trkpt lat="45.27567" lon="6.07745">
        <ele>1244.8</ele>
        <time>2019-08-23T21:53:05Z</time>
      </trkpt>
      <trkpt lat="45.27604" lon="6.07785">
        <ele>1239.4</ele>
        <time>2019-08-23T21:54:06Z</time>
      </trkpt>
      <trkpt lat="45.27564" lon="6.07832">
        <ele>1241</ele>
        <time>2019-08-23T21:55:04Z</time>
      </trkpt>
      <trkpt lat="45.27516" lon="6.07889">
        <ele>1235.8</ele>
        <time>2019-08-23T21:56:04Z</time>
      </trkpt>
      <trkpt lat="45.27407" lon="6.07935">
        <ele>1244.8</ele>
        <time>2019-08-23T21:57:37Z</time>
      </trkpt>
      <trkpt lat="45.27312" lon="6.07931">
        <ele>1264.8</ele>
        <time>2019-08-23T21:58:35Z</time>
      </trkpt>
      <trkpt lat="45.27327" lon="6.08033">
        <ele>1258.2</ele>
        <time>2019-08-23T22:01:07Z</time>
      </trkpt>
      <trkpt lat="45.27434" lon="6.08021">
        <ele>1264.4</ele>
        <time>2019-08-23T22:02:05Z</time>
      </trkpt>
      <trkpt lat="45.27496" lon="6.08033">
        <ele>1256.6</ele>
        <time>2019-08-23T22:03:37Z</time>
      </trkpt>
      <trkpt lat="45.27599" lon="6.08003">
        <ele>1242.8</ele>
        <time>2019-08-23T22:04:35Z</time>
      </trkpt>
      <trkpt lat="45.27643" lon="6.07958">
        <ele>1229.2</ele>
        <time>2019-08-23T22:05:07Z</time>
      </trkpt>
      <trkpt lat="45.27721" lon="6.07954">
        <ele>1217</ele>
        <time>2019-08-23T22:06:05Z</time>
      </trkpt>
      <trkpt lat="45.27761" lon="6.07945">
        <ele>1212.8</ele>
        <time>2019-08-23T22:06:36Z</time>
      </trkpt>
      <trkpt lat="45.27826" lon="6.07982">
        <ele>1205.2</ele>
        <time>2019-08-23T22:07:34Z</time>
      </trkpt>
      <trkpt lat="45.27882" lon="6.07963">
        <ele>1187.8</ele>
        <time>2019-08-23T22:08:05Z</time>
      </trkpt>
      <trkpt lat="45.27933" lon="6.07881">
        <ele>1176.2</ele>
        <time>2019-08-23T22:09:05Z</time>
      </trkpt>
      <trkpt lat="45.27979" lon="6.07833">
        <ele>1173</ele>
        <time>2019-08-23T22:09:35Z</time>
      </trkpt>
      <trkpt lat="45.28034" lon="6.07795">
        <ele>1159.2</ele>
        <time>2019-08-23T22:10:05Z</time>
      </trkpt>
      <trkpt lat="45.28123" lon="6.07761">
        <ele>1145.2</ele>
        <time>2019-08-23T22:11:04Z</time>
      </trkpt>
      <trkpt lat="45.28185" lon="6.07782">
        <ele>1160</ele>
        <time>2019-08-23T22:11:36Z</time>
      </trkpt>
      <trkpt lat="45.2825" lon="6.0783">
        <ele>1159</ele>
        <time>2019-08-23T22:12:34Z</time>
      </trkpt>
      <trkpt lat="45.28311" lon="6.07806">
        <ele>1169.8</ele>
        <time>2019-08-23T22:13:06Z</time>
      </trkpt>
      <trkpt lat="45.28358" lon="6.07795">
        <ele>1168.4</ele>
        <time>2019-08-23T22:13:36Z</time>
      </trkpt>
      <trkpt lat="45.28473" lon="6.07784">
        <ele>1164</ele>
        <time>2019-08-23T22:14:37Z</time>
      </trkpt>
      <trkpt lat="45.28585" lon="6.07733">
        <ele>1141.6</ele>
        <time>2019-08-23T22:15:40Z</time>
      </trkpt>
      <trkpt lat="45.28676" lon="6.07765">
        <ele>1131.4</ele>
        <time>2019-08-23T22:16:36Z</time>
      </trkpt>
      <trkpt lat="45.28758" lon="6.07713">
        <ele>1111.8</ele>
        <time>2019-08-23T22:17:34Z</time>
      </trkpt>
      <trkpt lat="45.28832" lon="6.07689">
        <ele>1099.4</ele>
        <time>2019-08-23T22:18:04Z</time>
      </trkpt>
      <trkpt lat="45.28892" lon="6.07756">
        <ele>1105</ele>
        <time>2019-08-23T22:19:04Z</time>
      </trkpt>
      <trkpt lat="45.28931" lon="6.07839">
        <ele>1111.2</ele>
        <time>2019-08-23T22:20:05Z</time>
      </trkpt>
      <trkpt lat="45.28948" lon="6.07899">
        <ele>1119.6</ele>
        <time>2019-08-23T22:21:04Z</time>
      </trkpt>
      <trkpt lat="45.28984" lon="6.07945">
        <ele>1127.2</ele>
        <time>2019-08-23T22:21:35Z</time>
      </trkpt>
      <trkpt lat="45.29034" lon="6.08034">
        <ele>1126</ele>
        <time>2019-08-23T22:22:39Z</time>
      </trkpt>
      <trkpt lat="45.29118" lon="6.08047">
        <ele>1118.2</ele>
        <time>2019-08-23T22:23:36Z</time>
      </trkpt>
      <trkpt lat="45.29157" lon="6.08015">
        <ele>1115.2</ele>
        <time>2019-08-23T22:24:36Z</time>
      </trkpt>
      <trkpt lat="45.29222" lon="6.07973">
        <ele>1105</ele>
        <time>2019-08-23T22:25:35Z</time>
      </trkpt>
      <trkpt lat="45.29258" lon="6.07981">
        <ele>1088.4</ele>
        <time>2019-08-23T22:26:06Z</time>
      </trkpt>
      <trkpt lat="45.29339" lon="6.0798">
        <ele>1078.8</ele>
        <time>2019-08-23T22:27:05Z</time>
      </trkpt>
      <trkpt lat="45.29454" lon="6.08016">
        <ele>1077.8</ele>
        <time>2019-08-23T22:28:04Z</time>
      </trkpt>
      <trkpt lat="45.29501" lon="6.08019">
        <ele>1068</ele>
        <time>2019-08-23T22:28:34Z</time>
      </trkpt>
      <trkpt lat="45.2956" lon="6.07995">
        <ele>1065.6</ele>
        <time>2019-08-23T22:29:04Z</time>
      </trkpt>
      <trkpt lat="45.29607" lon="6.07981">
        <ele>1067.4</ele>
        <time>2019-08-23T22:29:34Z</time>
      </trkpt>
      <trkpt lat="45.29662" lon="6.0796">
        <ele>1072.4</ele>
        <time>2019-08-23T22:30:04Z</time>
      </trkpt>
      <trkpt lat="45.29664" lon="6.08014">
        <ele>1076.4</ele>
        <time>2019-08-23T22:30:35Z</time>
      </trkpt>
      <trkpt lat="45.29649" lon="6.08077">
        <ele>1084.2</ele>
        <time>2019-08-23T22:31:35Z</time>
      </trkpt>
      <trkpt lat="45.29655" lon="6.08257">
        <ele>1098.4</ele>
        <time>2019-08-23T22:33:35Z</time>
      </trkpt>
      <trkpt lat="45.29633" lon="6.08312">
        <ele>1113.4</ele>
        <time>2019-08-23T22:34:05Z</time>
      </trkpt>
      <trkpt lat="45.2962" lon="6.08403">
        <ele>1127.2</ele>
        <time>2019-08-23T22:35:34Z</time>
      </trkpt>
      <trkpt lat="45.29582" lon="6.08474">
        <ele>1138.2</ele>
        <time>2019-08-23T22:36:34Z</time>
      </trkpt>
      <trkpt lat="45.29555" lon="6.08529">
        <ele>1155.2</ele>
        <time>2019-08-23T22:37:35Z</time>
      </trkpt>
      <trkpt lat="45.29527" lon="6.08632">
        <ele>1165.4</ele>
        <time>2019-08-23T22:39:05Z</time>
      </trkpt>
      <trkpt lat="45.29488" lon="6.08727">
        <ele>1178.2</ele>
        <time>2019-08-23T22:40:35Z</time>
      </trkpt>
      <trkpt lat="45.29471" lon="6.08774">
        <ele>1195.8</ele>
        <time>2019-08-23T22:41:37Z</time>
      </trkpt>
      <trkpt lat="45.29437" lon="6.08845">
        <ele>1210.4</ele>
        <time>2019-08-23T22:43:07Z</time>
      </trkpt>
      <trkpt lat="45.29433" lon="6.08972">
        <ele>1217.8</ele>
        <time>2019-08-23T22:45:09Z</time>
      </trkpt>
      <trkpt lat="45.29386" lon="6.09018">
        <ele>1232</ele>
        <time>2019-08-23T22:46:38Z</time>
      </trkpt>
      <trkpt lat="45.2935" lon="6.09049">
        <ele>1252.8</ele>
        <time>2019-08-23T22:48:37Z</time>
      </trkpt>
      <trkpt lat="45.29345" lon="6.09121">
        <ele>1273</ele>
        <time>2019-08-23T22:49:38Z</time>
      </trkpt>
      <trkpt lat="45.29298" lon="6.09022">
        <ele>1302.4</ele>
        <time>2019-08-23T22:52:08Z</time>
      </trkpt>
      <trkpt lat="45.29233" lon="6.09013">
        <ele>1337.4</ele>
        <time>2019-08-23T22:55:07Z</time>
      </trkpt>
      <trkpt lat="45.29203" lon="6.08956">
        <ele>1366.6</ele>
        <time>2019-08-23T22:57:37Z</time>
      </trkpt>
      <trkpt lat="45.29166" lon="6.08973">
        <ele>1385.2</ele>
        <time>2019-08-23T22:58:36Z</time>
      </trkpt>
      <trkpt lat="45.29161" lon="6.09039">
        <ele>1396</ele>
        <time>2019-08-23T22:59:38Z</time>
      </trkpt>
      <trkpt lat="45.29173" lon="6.09102">
        <ele>1409.2</ele>
        <time>2019-08-23T23:00:38Z</time>
      </trkpt>
      <trkpt lat="45.29137" lon="6.09193">
        <ele>1412.4</ele>
        <time>2019-08-23T23:03:08Z</time>
      </trkpt>
      <trkpt lat="45.2916" lon="6.09252">
        <ele>1428.2</ele>
        <time>2019-08-23T23:04:05Z</time>
      </trkpt>
      <trkpt lat="45.29138" lon="6.0932">
        <ele>1448.6</ele>
        <time>2019-08-23T23:08:06Z</time>
      </trkpt>
      <trkpt lat="45.29155" lon="6.09446">
        <ele>1478.2</ele>
        <time>2019-08-23T23:09:35Z</time>
      </trkpt>
      <trkpt lat="45.29118" lon="6.09457">
        <ele>1493.2</ele>
        <time>2019-08-23T23:10:06Z</time>
      </trkpt>
      <trkpt lat="45.29122" lon="6.09509">
        <ele>1523.4</ele>
        <time>2019-08-23T23:12:06Z</time>
      </trkpt>
      <trkpt lat="45.29017" lon="6.09608">
        <ele>1531.2</ele>
        <time>2019-08-23T23:13:35Z</time>
      </trkpt>
      <trkpt lat="45.29103" lon="6.09622">
        <ele>1542.8</ele>
        <time>2019-08-23T23:14:05Z</time>
      </trkpt>
      <trkpt lat="45.29136" lon="6.09687">
        <ele>1559.8</ele>
        <time>2019-08-23T23:15:37Z</time>
      </trkpt>
      <trkpt lat="45.2918" lon="6.09648">
        <ele>1574</ele>
        <time>2019-08-23T23:17:07Z</time>
      </trkpt>
      <trkpt lat="45.29222" lon="6.09659">
        <ele>1577.8</ele>
        <time>2019-08-23T23:18:35Z</time>
      </trkpt>
      <trkpt lat="45.29191" lon="6.09692">
        <ele>1589.2</ele>
        <time>2019-08-23T23:19:05Z</time>
      </trkpt>
      <trkpt lat="45.29213" lon="6.09755">
        <ele>1611.2</ele>
        <time>2019-08-23T23:21:05Z</time>
      </trkpt>
      <trkpt lat="45.29244" lon="6.09797">
        <ele>1608.8</ele>
        <time>2019-08-23T23:22:35Z</time>
      </trkpt>
      <trkpt lat="45.2931" lon="6.09825">
        <ele>1615</ele>
        <time>2019-08-23T23:25:34Z</time>
      </trkpt>
      <trkpt lat="45.29294" lon="6.09892">
        <ele>1633.6</ele>
        <time>2019-08-23T23:26:35Z</time>
      </trkpt>
      <trkpt lat="45.29294" lon="6.09977">
        <ele>1664.8</ele>
        <time>2019-08-23T23:28:05Z</time>
      </trkpt>
      <trkpt lat="45.29253" lon="6.09949">
        <ele>1678</ele>
        <time>2019-08-23T23:37:34Z</time>
      </trkpt>
      <trkpt lat="45.29204" lon="6.09984">
        <ele>1692.6</ele>
        <time>2019-08-23T23:40:35Z</time>
      </trkpt>
      <trkpt lat="45.29175" lon="6.10027">
        <ele>1723.6</ele>
        <time>2019-08-23T23:43:04Z</time>
      </trkpt>
      <trkpt lat="45.29105" lon="6.10077">
        <ele>1744.2</ele>
        <time>2019-08-23T23:44:35Z</time>
      </trkpt>
      <trkpt lat="45.29114" lon="6.10136">
        <ele>1755.8</ele>
        <time>2019-08-23T23:46:34Z</time>
      </trkpt>
      <trkpt lat="45.29141" lon="6.10199">
        <ele>1764</ele>
        <time>2019-08-23T23:48:05Z</time>
      </trkpt>
      <trkpt lat="45.29157" lon="6.10252">
        <ele>1788.4</ele>
        <time>2019-08-23T23:50:04Z</time>
      </trkpt>
      <trkpt lat="45.29217" lon="6.1027">
        <ele>1800.2</ele>
        <time>2019-08-23T23:51:06Z</time>
      </trkpt>
      <trkpt lat="45.29235" lon="6.10329">
        <ele>1814.6</ele>
        <time>2019-08-23T23:53:04Z</time>
      </trkpt>
      <trkpt lat="45.29243" lon="6.10406">
        <ele>1827</ele>
        <time>2019-08-23T23:54:34Z</time>
      </trkpt>
      <trkpt lat="45.29299" lon="6.10447">
        <ele>1851.2</ele>
        <time>2019-08-23T23:56:34Z</time>
      </trkpt>
      <trkpt lat="45.29321" lon="6.10523">
        <ele>1862</ele>
        <time>2019-08-23T23:58:04Z</time>
      </trkpt>
      <trkpt lat="45.293" lon="6.10569">
        <ele>1867.4</ele>
        <time>2019-08-23T23:59:04Z</time>
      </trkpt>
      <trkpt lat="45.29285" lon="6.10632">
        <ele>1872.4</ele>
        <time>2019-08-24T00:00:04Z</time>
      </trkpt>
      <trkpt lat="45.29295" lon="6.10695">
        <ele>1877.2</ele>
        <time>2019-08-24T00:01:04Z</time>
      </trkpt>
      <trkpt lat="45.29329" lon="6.10732">
        <ele>1878.2</ele>
        <time>2019-08-24T00:02:34Z</time>
      </trkpt>
      <trkpt lat="45.29391" lon="6.10716">
        <ele>1887.6</ele>
        <time>2019-08-24T00:04:05Z</time>
      </trkpt>
      <trkpt lat="45.29424" lon="6.10744">
        <ele>1896.4</ele>
        <time>2019-08-24T00:12:04Z</time>
      </trkpt>
      <trkpt lat="45.29461" lon="6.10853">
        <ele>1905.2</ele>
        <time>2019-08-24T00:14:04Z</time>
      </trkpt>
      <trkpt lat="45.29509" lon="6.10883">
        <ele>1910.4</ele>
        <time>2019-08-24T00:15:04Z</time>
      </trkpt>
      <trkpt lat="45.29558" lon="6.10868">
        <ele>1914.4</ele>
        <time>2019-08-24T00:16:04Z</time>
      </trkpt>
      <trkpt lat="45.29598" lon="6.10867">
        <ele>1912.6</ele>
        <time>2019-08-24T00:16:36Z</time>
      </trkpt>
      <trkpt lat="45.29653" lon="6.1086">
        <ele>1913</ele>
        <time>2019-08-24T00:17:35Z</time>
      </trkpt>
      <trkpt lat="45.29691" lon="6.10854">
        <ele>1907.2</ele>
        <time>2019-08-24T00:18:35Z</time>
      </trkpt>
      <trkpt lat="45.29753" lon="6.10856">
        <ele>1907.6</ele>
        <time>2019-08-24T00:20:05Z</time>
      </trkpt>
      <trkpt lat="45.29806" lon="6.10842">
        <ele>1907.8</ele>
        <time>2019-08-24T00:21:05Z</time>
      </trkpt>
      <trkpt lat="45.2986" lon="6.10854">
        <ele>1905.8</ele>
        <time>2019-08-24T00:22:05Z</time>
      </trkpt>
      <trkpt lat="45.29903" lon="6.10839">
        <ele>1901.8</ele>
        <time>2019-08-24T00:22:35Z</time>
      </trkpt>
      <trkpt lat="45.3" lon="6.1079">
        <ele>1904.6</ele>
        <time>2019-08-24T00:24:04Z</time>
      </trkpt>
      <trkpt lat="45.3004" lon="6.10742">
        <ele>1901</ele>
        <time>2019-08-24T00:25:04Z</time>
      </trkpt>
      <trkpt lat="45.30071" lon="6.10659">
        <ele>1894.6</ele>
        <time>2019-08-24T00:26:04Z</time>
      </trkpt>
      <trkpt lat="45.30093" lon="6.10615">
        <ele>1893.4</ele>
        <time>2019-08-24T00:27:04Z</time>
      </trkpt>
      <trkpt lat="45.30143" lon="6.10581">
        <ele>1896</ele>
        <time>2019-08-24T00:28:34Z</time>
      </trkpt>
      <trkpt lat="45.30204" lon="6.10553">
        <ele>1899</ele>
        <time>2019-08-24T00:30:04Z</time>
      </trkpt>
      <trkpt lat="45.30258" lon="6.10535">
        <ele>1905.2</ele>
        <time>2019-08-24T00:31:34Z</time>
      </trkpt>
      <trkpt lat="45.30267" lon="6.10606">
        <ele>1917.6</ele>
        <time>2019-08-24T00:32:34Z</time>
      </trkpt>
      <trkpt lat="45.30293" lon="6.10643">
        <ele>1930.8</ele>
        <time>2019-08-24T00:33:34Z</time>
      </trkpt>
      <trkpt lat="45.30328" lon="6.10671">
        <ele>1942</ele>
        <time>2019-08-24T00:35:04Z</time>
      </trkpt>
      <trkpt lat="45.30348" lon="6.10723">
        <ele>1954</ele>
        <time>2019-08-24T00:36:34Z</time>
      </trkpt>
      <trkpt lat="45.3037" lon="6.10798">
        <ele>1968</ele>
        <time>2019-08-24T00:38:04Z</time>
      </trkpt>
      <trkpt lat="45.30382" lon="6.10866">
        <ele>1979.4</ele>
        <time>2019-08-24T00:39:04Z</time>
      </trkpt>
      <trkpt lat="45.30405" lon="6.10929">
        <ele>1991.4</ele>
        <time>2019-08-24T00:40:34Z</time>
      </trkpt>
      <trkpt lat="45.30441" lon="6.10909">
        <ele>2010.4</ele>
        <time>2019-08-24T00:41:34Z</time>
      </trkpt>
      <trkpt lat="45.30463" lon="6.10861">
        <ele>2024.4</ele>
        <time>2019-08-24T00:43:35Z</time>
      </trkpt>
      <trkpt lat="45.30502" lon="6.1086">
        <ele>2032.6</ele>
        <time>2019-08-24T00:46:04Z</time>
      </trkpt>
      <trkpt lat="45.30527" lon="6.10899">
        <ele>2034.8</ele>
        <time>2019-08-24T00:47:04Z</time>
      </trkpt>
      <trkpt lat="45.30567" lon="6.10952">
        <ele>2033.8</ele>
        <time>2019-08-24T00:48:34Z</time>
      </trkpt>
      <trkpt lat="45.30605" lon="6.11012">
        <ele>2027.8</ele>
        <time>2019-08-24T00:50:04Z</time>
      </trkpt>
      <trkpt lat="45.30655" lon="6.11049">
        <ele>2021.2</ele>
        <time>2019-08-24T00:51:34Z</time>
      </trkpt>
      <trkpt lat="45.30697" lon="6.1104">
        <ele>2018.2</ele>
        <time>2019-08-24T00:52:34Z</time>
      </trkpt>
      <trkpt lat="45.30755" lon="6.11034">
        <ele>2013.8</ele>
        <time>2019-08-24T00:54:05Z</time>
      </trkpt>
      <trkpt lat="45.30793" lon="6.11034">
        <ele>2012</ele>
        <time>2019-08-24T00:55:04Z</time>
      </trkpt>
      <trkpt lat="45.30848" lon="6.11002">
        <ele>1989.8</ele>
        <time>2019-08-24T00:56:35Z</time>
      </trkpt>
      <trkpt lat="45.3088" lon="6.10977">
        <ele>1972.2</ele>
        <time>2019-08-24T00:57:34Z</time>
      </trkpt>
      <trkpt lat="45.30914" lon="6.10913">
        <ele>1951.6</ele>
        <time>2019-08-24T01:00:05Z</time>
      </trkpt>
      <trkpt lat="45.30947" lon="6.10888">
        <ele>1934.8</ele>
        <time>2019-08-24T01:01:05Z</time>
      </trkpt>
      <trkpt lat="45.30978" lon="6.10844">
        <ele>1899.8</ele>
        <time>2019-08-24T01:02:05Z</time>
      </trkpt>
      <trkpt lat="45.31027" lon="6.10804">
        <ele>1888.6</ele>
        <time>2019-08-24T01:03:05Z</time>
      </trkpt>
      <trkpt lat="45.31059" lon="6.10734">
        <ele>1875.8</ele>
        <time>2019-08-24T01:04:04Z</time>
      </trkpt>
      <trkpt lat="45.31103" lon="6.10696">
        <ele>1863</ele>
        <time>2019-08-24T01:05:05Z</time>
      </trkpt>
      <trkpt lat="45.31139" lon="6.10688">
        <ele>1852.8</ele>
        <time>2019-08-24T01:06:05Z</time>
      </trkpt>
      <trkpt lat="45.31185" lon="6.10608">
        <ele>1852.6</ele>
        <time>2019-08-24T01:07:34Z</time>
      </trkpt>
      <trkpt lat="45.31244" lon="6.10555">
        <ele>1839.6</ele>
        <time>2019-08-24T01:08:35Z</time>
      </trkpt>
      <trkpt lat="45.31333" lon="6.10519">
        <ele>1832.8</ele>
        <time>2019-08-24T01:10:04Z</time>
      </trkpt>
      <trkpt lat="45.31385" lon="6.1051">
        <ele>1822</ele>
        <time>2019-08-24T01:11:34Z</time>
      </trkpt>
      <trkpt lat="45.3136" lon="6.10568">
        <ele>1830.8</ele>
        <time>2019-08-24T01:12:34Z</time>
      </trkpt>
      <trkpt lat="45.31368" lon="6.10627">
        <ele>1822.8</ele>
        <time>2019-08-24T01:13:05Z</time>
      </trkpt>
      <trkpt lat="45.31402" lon="6.1075">
        <ele>1817.8</ele>
        <time>2019-08-24T01:14:34Z</time>
      </trkpt>
      <trkpt lat="45.31448" lon="6.10735">
        <ele>1831.2</ele>
        <time>2019-08-24T01:15:35Z</time>
      </trkpt>
      <trkpt lat="45.31492" lon="6.10739">
        <ele>1820</ele>
        <time>2019-08-24T01:16:35Z</time>
      </trkpt>
      <trkpt lat="45.31525" lon="6.10807">
        <ele>1794.2</ele>
        <time>2019-08-24T01:17:33Z</time>
      </trkpt>
      <trkpt lat="45.31564" lon="6.10804">
        <ele>1793</ele>
        <time>2019-08-24T01:18:05Z</time>
      </trkpt>
      <trkpt lat="45.31597" lon="6.1078">
        <ele>1792.2</ele>
        <time>2019-08-24T01:19:05Z</time>
      </trkpt>
      <trkpt lat="45.31635" lon="6.10786">
        <ele>1763.8</ele>
        <time>2019-08-24T01:19:35Z</time>
      </trkpt>
      <trkpt lat="45.31699" lon="6.1083">
        <ele>1769.4</ele>
        <time>2019-08-24T01:20:35Z</time>
      </trkpt>
      <trkpt lat="45.31764" lon="6.10832">
        <ele>1766.8</ele>
        <time>2019-08-24T01:21:36Z</time>
      </trkpt>
      <trkpt lat="45.31831" lon="6.10774">
        <ele>1753.8</ele>
        <time>2019-08-24T01:23:06Z</time>
      </trkpt>
      <trkpt lat="45.31901" lon="6.10789">
        <ele>1745</ele>
        <time>2019-08-24T01:24:05Z</time>
      </trkpt>
      <trkpt lat="45.31968" lon="6.10832">
        <ele>1740.8</ele>
        <time>2019-08-24T01:25:05Z</time>
      </trkpt>
      <trkpt lat="45.32019" lon="6.10866">
        <ele>1736</ele>
        <time>2019-08-24T01:26:05Z</time>
      </trkpt>
      <trkpt lat="45.32057" lon="6.10881">
        <ele>1731</ele>
        <time>2019-08-24T01:26:36Z</time>
      </trkpt>
      <trkpt lat="45.3212" lon="6.10921">
        <ele>1730.4</ele>
        <time>2019-08-24T01:27:37Z</time>
      </trkpt>
      <trkpt lat="45.32158" lon="6.10939">
        <ele>1725.4</ele>
        <time>2019-08-24T01:28:07Z</time>
      </trkpt>
      <trkpt lat="45.32207" lon="6.10916">
        <ele>1725.2</ele>
        <time>2019-08-24T01:29:07Z</time>
      </trkpt>
      <trkpt lat="45.32274" lon="6.10904">
        <ele>1708.2</ele>
        <time>2019-08-24T01:30:05Z</time>
      </trkpt>
      <trkpt lat="45.32297" lon="6.10956">
        <ele>1706.6</ele>
        <time>2019-08-24T01:31:06Z</time>
      </trkpt>
      <trkpt lat="45.32379" lon="6.10932">
        <ele>1696</ele>
        <time>2019-08-24T01:32:35Z</time>
      </trkpt>
      <trkpt lat="45.32415" lon="6.10906">
        <ele>1679</ele>
        <time>2019-08-24T01:33:07Z</time>
      </trkpt>
      <trkpt lat="45.32466" lon="6.10943">
        <ele>1661.8</ele>
        <time>2019-08-24T01:35:05Z</time>
      </trkpt>
      <trkpt lat="45.32511" lon="6.10891">
        <ele>1648.2</ele>
        <time>2019-08-24T01:35:36Z</time>
      </trkpt>
      <trkpt lat="45.32552" lon="6.10909">
        <ele>1625.2</ele>
        <time>2019-08-24T01:36:35Z</time>
      </trkpt>
      <trkpt lat="45.32614" lon="6.10887">
        <ele>1613.4</ele>
        <time>2019-08-24T01:37:36Z</time>
      </trkpt>
      <trkpt lat="45.32655" lon="6.109">
        <ele>1605</ele>
        <time>2019-08-24T01:38:06Z</time>
      </trkpt>
      <trkpt lat="45.32691" lon="6.10923">
        <ele>1588.2</ele>
        <time>2019-08-24T01:38:36Z</time>
      </trkpt>
      <trkpt lat="45.32725" lon="6.10864">
        <ele>1574</ele>
        <time>2019-08-24T01:39:36Z</time>
      </trkpt>
      <trkpt lat="45.32786" lon="6.1084">
        <ele>1565.4</ele>
        <time>2019-08-24T01:40:36Z</time>
      </trkpt>
      <trkpt lat="45.32835" lon="6.10773">
        <ele>1557.4</ele>
        <time>2019-08-24T01:41:07Z</time>
      </trkpt>
      <trkpt lat="45.32867" lon="6.10799">
        <ele>1553.4</ele>
        <time>2019-08-24T01:42:05Z</time>
      </trkpt>
      <trkpt lat="45.32901" lon="6.10742">
        <ele>1548.4</ele>
        <time>2019-08-24T01:42:36Z</time>
      </trkpt>
      <trkpt lat="45.32968" lon="6.10732">
        <ele>1540.4</ele>
        <time>2019-08-24T01:43:37Z</time>
      </trkpt>
      <trkpt lat="45.3301" lon="6.10701">
        <ele>1521.2</ele>
        <time>2019-08-24T01:44:09Z</time>
      </trkpt>
      <trkpt lat="45.33173" lon="6.10717">
        <ele>1499.6</ele>
        <time>2019-08-24T01:47:08Z</time>
      </trkpt>
      <trkpt lat="45.33214" lon="6.10797">
        <ele>1477.6</ele>
        <time>2019-08-24T01:48:06Z</time>
      </trkpt>
      <trkpt lat="45.33246" lon="6.10908">
        <ele>1460.4</ele>
        <time>2019-08-24T01:49:05Z</time>
      </trkpt>
      <trkpt lat="45.33298" lon="6.11023">
        <ele>1441.8</ele>
        <time>2019-08-24T01:50:36Z</time>
      </trkpt>
      <trkpt lat="45.33285" lon="6.11217">
        <ele>1422.6</ele>
        <time>2019-08-24T01:53:11Z</time>
      </trkpt>
      <trkpt lat="45.33224" lon="6.11294">
        <ele>1398.6</ele>
        <time>2019-08-24T01:54:43Z</time>
      </trkpt>
      <trkpt lat="45.33182" lon="6.11326">
        <ele>1376.8</ele>
        <time>2019-08-24T01:55:39Z</time>
      </trkpt>
      <trkpt lat="45.33226" lon="6.11404">
        <ele>1341</ele>
        <time>2019-08-24T01:57:39Z</time>
      </trkpt>
      <trkpt lat="45.33293" lon="6.11416">
        <ele>1318.8</ele>
        <time>2019-08-24T01:58:38Z</time>
      </trkpt>
      <trkpt lat="45.33345" lon="6.11408">
        <ele>1293.8</ele>
        <time>2019-08-24T01:59:41Z</time>
      </trkpt>
      <trkpt lat="45.33346" lon="6.1146">
        <ele>1272.4</ele>
        <time>2019-08-24T02:00:38Z</time>
      </trkpt>
      <trkpt lat="45.33282" lon="6.1153">
        <ele>1254</ele>
        <time>2019-08-24T02:01:39Z</time>
      </trkpt>
      <trkpt lat="45.33247" lon="6.11548">
        <ele>1234</ele>
        <time>2019-08-24T02:02:38Z</time>
      </trkpt>
      <trkpt lat="45.33192" lon="6.11572">
        <ele>1212.6</ele>
        <time>2019-08-24T02:03:08Z</time>
      </trkpt>
      <trkpt lat="45.331" lon="6.116">
        <ele>1206.8</ele>
        <time>2019-08-24T02:04:10Z</time>
      </trkpt>
      <trkpt lat="45.33084" lon="6.11685">
        <ele>1192.4</ele>
        <time>2019-08-24T02:05:13Z</time>
      </trkpt>
      <trkpt lat="45.33155" lon="6.11751">
        <ele>1178.4</ele>
        <time>2019-08-24T02:06:09Z</time>
      </trkpt>
      <trkpt lat="45.33114" lon="6.11872">
        <ele>1177.8</ele>
        <time>2019-08-24T02:07:39Z</time>
      </trkpt>
      <trkpt lat="45.33122" lon="6.1195">
        <ele>1178.2</ele>
        <time>2019-08-24T02:08:38Z</time>
      </trkpt>
      <trkpt lat="45.33213" lon="6.11965">
        <ele>1161.8</ele>
        <time>2019-08-24T02:09:37Z</time>
      </trkpt>
      <trkpt lat="45.33278" lon="6.12043">
        <ele>1162</ele>
        <time>2019-08-24T02:11:07Z</time>
      </trkpt>
      <trkpt lat="45.33355" lon="6.12026">
        <ele>1161</ele>
        <time>2019-08-24T02:12:06Z</time>
      </trkpt>
      <trkpt lat="45.33399" lon="6.12013">
        <ele>1158.4</ele>
        <time>2019-08-24T02:12:36Z</time>
      </trkpt>
      <trkpt lat="45.33475" lon="6.11976">
        <ele>1139</ele>
        <time>2019-08-24T02:13:36Z</time>
      </trkpt>
      <trkpt lat="45.33534" lon="6.12009">
        <ele>1135.2</ele>
        <time>2019-08-24T02:15:05Z</time>
      </trkpt>
      <trkpt lat="45.33664" lon="6.12053">
        <ele>1130.8</ele>
        <time>2019-08-24T02:15:39Z</time>
      </trkpt>
      <trkpt lat="45.33569" lon="6.12015">
        <ele>1128.2</ele>
        <time>2019-08-24T03:42:36Z</time>
      </trkpt>
      <trkpt lat="45.33523" lon="6.11998">
        <ele>1125.4</ele>
        <time>2019-08-24T03:43:09Z</time>
      </trkpt>
      <trkpt lat="45.33477" lon="6.12006">
        <ele>1139.8</ele>
        <time>2019-08-24T03:44:09Z</time>
      </trkpt>
      <trkpt lat="45.33434" lon="6.1199">
        <ele>1144.4</ele>
        <time>2019-08-24T03:44:39Z</time>
      </trkpt>
      <trkpt lat="45.33367" lon="6.12024">
        <ele>1149.6</ele>
        <time>2019-08-24T03:45:39Z</time>
      </trkpt>
      <trkpt lat="45.33318" lon="6.12051">
        <ele>1149.8</ele>
        <time>2019-08-24T03:46:09Z</time>
      </trkpt>
      <trkpt lat="45.33261" lon="6.12091">
        <ele>1153.4</ele>
        <time>2019-08-24T03:47:09Z</time>
      </trkpt>
      <trkpt lat="45.33234" lon="6.12135">
        <ele>1157.2</ele>
        <time>2019-08-24T03:47:39Z</time>
      </trkpt>
      <trkpt lat="45.33191" lon="6.12134">
        <ele>1165.6</ele>
        <time>2019-08-24T03:48:11Z</time>
      </trkpt>
      <trkpt lat="45.33091" lon="6.12164">
        <ele>1176</ele>
        <time>2019-08-24T03:49:39Z</time>
      </trkpt>
      <trkpt lat="45.33021" lon="6.12181">
        <ele>1185.8</ele>
        <time>2019-08-24T03:51:09Z</time>
      </trkpt>
      <trkpt lat="45.32978" lon="6.12205">
        <ele>1198.8</ele>
        <time>2019-08-24T03:52:09Z</time>
      </trkpt>
      <trkpt lat="45.32938" lon="6.12278">
        <ele>1211</ele>
        <time>2019-08-24T03:53:09Z</time>
      </trkpt>
      <trkpt lat="45.32893" lon="6.12313">
        <ele>1218.4</ele>
        <time>2019-08-24T03:54:09Z</time>
      </trkpt>
      <trkpt lat="45.32864" lon="6.12371">
        <ele>1224.6</ele>
        <time>2019-08-24T03:55:09Z</time>
      </trkpt>
      <trkpt lat="45.32806" lon="6.12397">
        <ele>1234.2</ele>
        <time>2019-08-24T03:56:09Z</time>
      </trkpt>
      <trkpt lat="45.3277" lon="6.12418">
        <ele>1242.4</ele>
        <time>2019-08-24T03:57:09Z</time>
      </trkpt>
      <trkpt lat="45.32725" lon="6.1244">
        <ele>1254.8</ele>
        <time>2019-08-24T03:58:10Z</time>
      </trkpt>
      <trkpt lat="45.32688" lon="6.12478">
        <ele>1277</ele>
        <time>2019-08-24T03:59:09Z</time>
      </trkpt>
      <trkpt lat="45.32643" lon="6.12512">
        <ele>1290</ele>
        <time>2019-08-24T04:00:40Z</time>
      </trkpt>
      <trkpt lat="45.32581" lon="6.12555">
        <ele>1309.6</ele>
        <time>2019-08-24T04:02:10Z</time>
      </trkpt>
      <trkpt lat="45.32513" lon="6.1261">
        <ele>1322</ele>
        <time>2019-08-24T04:04:10Z</time>
      </trkpt>
      <trkpt lat="45.32447" lon="6.12631">
        <ele>1332.6</ele>
        <time>2019-08-24T04:05:40Z</time>
      </trkpt>
      <trkpt lat="45.32404" lon="6.1263">
        <ele>1346.2</ele>
        <time>2019-08-24T04:07:40Z</time>
      </trkpt>
      <trkpt lat="45.32297" lon="6.12633">
        <ele>1363.6</ele>
        <time>2019-08-24T04:09:40Z</time>
      </trkpt>
      <trkpt lat="45.32273" lon="6.12684">
        <ele>1376</ele>
        <time>2019-08-24T04:11:42Z</time>
      </trkpt>
      <trkpt lat="45.32232" lon="6.12762">
        <ele>1394</ele>
        <time>2019-08-24T04:13:39Z</time>
      </trkpt>
      <trkpt lat="45.32196" lon="6.12785">
        <ele>1433.6</ele>
        <time>2019-08-24T04:14:39Z</time>
      </trkpt>
      <trkpt lat="45.32162" lon="6.12808">
        <ele>1441.8</ele>
        <time>2019-08-24T04:15:39Z</time>
      </trkpt>
      <trkpt lat="45.32161" lon="6.1275">
        <ele>1452.2</ele>
        <time>2019-08-24T04:16:39Z</time>
      </trkpt>
      <trkpt lat="45.32166" lon="6.12854">
        <ele>1457.4</ele>
        <time>2019-08-24T04:17:09Z</time>
      </trkpt>
      <trkpt lat="45.32112" lon="6.1287">
        <ele>1475</ele>
        <time>2019-08-24T04:19:09Z</time>
      </trkpt>
      <trkpt lat="45.3208" lon="6.12893">
        <ele>1459.8</ele>
        <time>2019-08-24T04:19:40Z</time>
      </trkpt>
      <trkpt lat="45.32025" lon="6.12895">
        <ele>1477</ele>
        <time>2019-08-24T04:21:39Z</time>
      </trkpt>
      <trkpt lat="45.32005" lon="6.12954">
        <ele>1492.6</ele>
        <time>2019-08-24T04:22:40Z</time>
      </trkpt>
      <trkpt lat="45.31994" lon="6.13007">
        <ele>1509.4</ele>
        <time>2019-08-24T04:24:39Z</time>
      </trkpt>
      <trkpt lat="45.31965" lon="6.13064">
        <ele>1514</ele>
        <time>2019-08-24T04:25:39Z</time>
      </trkpt>
      <trkpt lat="45.31965" lon="6.1312">
        <ele>1522.4</ele>
        <time>2019-08-24T04:27:09Z</time>
      </trkpt>
      <trkpt lat="45.3192" lon="6.13112">
        <ele>1520.2</ele>
        <time>2019-08-24T04:28:39Z</time>
      </trkpt>
      <trkpt lat="45.3199" lon="6.13199">
        <ele>1529.8</ele>
        <time>2019-08-24T04:30:10Z</time>
      </trkpt>
      <trkpt lat="45.31932" lon="6.13111">
        <ele>1532.8</ele>
        <time>2019-08-24T04:31:39Z</time>
      </trkpt>
      <trkpt lat="45.31968" lon="6.13159">
        <ele>1546</ele>
        <time>2019-08-24T04:37:39Z</time>
      </trkpt>
      <trkpt lat="45.31939" lon="6.13228">
        <ele>1565.4</ele>
        <time>2019-08-24T04:39:10Z</time>
      </trkpt>
      <trkpt lat="45.31991" lon="6.13248">
        <ele>1583.4</ele>
        <time>2019-08-24T04:41:10Z</time>
      </trkpt>
      <trkpt lat="45.32011" lon="6.13295">
        <ele>1597</ele>
        <time>2019-08-24T04:42:39Z</time>
      </trkpt>
      <trkpt lat="45.32006" lon="6.13345">
        <ele>1618.8</ele>
        <time>2019-08-24T04:44:09Z</time>
      </trkpt>
      <trkpt lat="45.31941" lon="6.13335">
        <ele>1628.2</ele>
        <time>2019-08-24T04:46:39Z</time>
      </trkpt>
      <trkpt lat="45.31903" lon="6.13331">
        <ele>1639.8</ele>
        <time>2019-08-24T04:47:10Z</time>
      </trkpt>
      <trkpt lat="45.31834" lon="6.13331">
        <ele>1654.2</ele>
        <time>2019-08-24T04:48:39Z</time>
      </trkpt>
      <trkpt lat="45.31795" lon="6.13274">
        <ele>1662.2</ele>
        <time>2019-08-24T04:50:39Z</time>
      </trkpt>
      <trkpt lat="45.31763" lon="6.13249">
        <ele>1675.2</ele>
        <time>2019-08-24T04:51:40Z</time>
      </trkpt>
      <trkpt lat="45.31686" lon="6.13206">
        <ele>1684.2</ele>
        <time>2019-08-24T04:54:09Z</time>
      </trkpt>
      <trkpt lat="45.31636" lon="6.13197">
        <ele>1697.2</ele>
        <time>2019-08-24T04:55:09Z</time>
      </trkpt>
      <trkpt lat="45.31582" lon="6.13184">
        <ele>1700.2</ele>
        <time>2019-08-24T04:56:39Z</time>
      </trkpt>
      <trkpt lat="45.3159" lon="6.13116">
        <ele>1705.6</ele>
        <time>2019-08-24T04:58:39Z</time>
      </trkpt>
      <trkpt lat="45.31546" lon="6.13134">
        <ele>1710</ele>
        <time>2019-08-24T04:59:09Z</time>
      </trkpt>
      <trkpt lat="45.31511" lon="6.1318">
        <ele>1730.4</ele>
        <time>2019-08-24T05:00:39Z</time>
      </trkpt>
      <trkpt lat="45.31468" lon="6.1327">
        <ele>1735.8</ele>
        <time>2019-08-24T05:02:39Z</time>
      </trkpt>
      <trkpt lat="45.31517" lon="6.13278">
        <ele>1750</ele>
        <time>2019-08-24T05:03:09Z</time>
      </trkpt>
      <trkpt lat="45.31453" lon="6.13291">
        <ele>1765.2</ele>
        <time>2019-08-24T05:03:39Z</time>
      </trkpt>
      <trkpt lat="45.31391" lon="6.1337">
        <ele>1782.2</ele>
        <time>2019-08-24T05:06:38Z</time>
      </trkpt>
      <trkpt lat="45.314" lon="6.13317">
        <ele>1785.4</ele>
        <time>2019-08-24T05:07:10Z</time>
      </trkpt>
      <trkpt lat="45.31383" lon="6.13374">
        <ele>1804.6</ele>
        <time>2019-08-24T05:09:41Z</time>
      </trkpt>
      <trkpt lat="45.31343" lon="6.13396">
        <ele>1829.4</ele>
        <time>2019-08-24T05:10:39Z</time>
      </trkpt>
      <trkpt lat="45.31382" lon="6.13383">
        <ele>1846.2</ele>
        <time>2019-08-24T05:11:11Z</time>
      </trkpt>
      <trkpt lat="45.31441" lon="6.13424">
        <ele>1854.6</ele>
        <time>2019-08-24T05:12:12Z</time>
      </trkpt>
      <trkpt lat="45.31376" lon="6.13452">
        <ele>1868.4</ele>
        <time>2019-08-24T05:13:11Z</time>
      </trkpt>
      <trkpt lat="45.31393" lon="6.13503">
        <ele>1876.6</ele>
        <time>2019-08-24T05:15:10Z</time>
      </trkpt>
      <trkpt lat="45.31407" lon="6.13592">
        <ele>1875.6</ele>
        <time>2019-08-24T05:17:10Z</time>
      </trkpt>
      <trkpt lat="45.31432" lon="6.13551">
        <ele>1879</ele>
        <time>2019-08-24T05:19:09Z</time>
      </trkpt>
      <trkpt lat="45.31393" lon="6.1357">
        <ele>1906.4</ele>
        <time>2019-08-24T05:24:10Z</time>
      </trkpt>
      <trkpt lat="45.31357" lon="6.13584">
        <ele>1919.6</ele>
        <time>2019-08-24T05:25:11Z</time>
      </trkpt>
      <trkpt lat="45.314" lon="6.13573">
        <ele>1923.2</ele>
        <time>2019-08-24T05:26:09Z</time>
      </trkpt>
      <trkpt lat="45.31342" lon="6.13582">
        <ele>1930.8</ele>
        <time>2019-08-24T05:26:41Z</time>
      </trkpt>
      <trkpt lat="45.31307" lon="6.13596">
        <ele>1941.2</ele>
        <time>2019-08-24T05:27:39Z</time>
      </trkpt>
      <trkpt lat="45.31238" lon="6.13603">
        <ele>1940.4</ele>
        <time>2019-08-24T05:28:12Z</time>
      </trkpt>
      <trkpt lat="45.31215" lon="6.13559">
        <ele>1952.4</ele>
        <time>2019-08-24T05:31:41Z</time>
      </trkpt>
      <trkpt lat="45.31253" lon="6.13563">
        <ele>1974</ele>
        <time>2019-08-24T05:32:41Z</time>
      </trkpt>
      <trkpt lat="45.31221" lon="6.13596">
        <ele>1993.4</ele>
        <time>2019-08-24T05:33:40Z</time>
      </trkpt>
      <trkpt lat="45.31179" lon="6.13631">
        <ele>2007.4</ele>
        <time>2019-08-24T05:35:39Z</time>
      </trkpt>
      <trkpt lat="45.31146" lon="6.13654">
        <ele>2026.6</ele>
        <time>2019-08-24T05:38:40Z</time>
      </trkpt>
      <trkpt lat="45.31104" lon="6.13666">
        <ele>2050.2</ele>
        <time>2019-08-24T05:42:40Z</time>
      </trkpt>
      <trkpt lat="45.31051" lon="6.13656">
        <ele>2070.6</ele>
        <time>2019-08-24T05:44:09Z</time>
      </trkpt>
      <trkpt lat="45.31008" lon="6.137">
        <ele>2097.8</ele>
        <time>2019-08-24T05:53:10Z</time>
      </trkpt>
      <trkpt lat="45.30976" lon="6.13744">
        <ele>2134</ele>
        <time>2019-08-24T05:55:09Z</time>
      </trkpt>
      <trkpt lat="45.30958" lon="6.1379">
        <ele>2151.8</ele>
        <time>2019-08-24T05:57:40Z</time>
      </trkpt>
      <trkpt lat="45.30953" lon="6.13875">
        <ele>2163.6</ele>
        <time>2019-08-24T06:00:09Z</time>
      </trkpt>
      <trkpt lat="45.30952" lon="6.13954">
        <ele>2176.2</ele>
        <time>2019-08-24T06:01:10Z</time>
      </trkpt>
      <trkpt lat="45.30941" lon="6.14018">
        <ele>2181.6</ele>
        <time>2019-08-24T06:02:10Z</time>
      </trkpt>
      <trkpt lat="45.3095" lon="6.14121">
        <ele>2180.4</ele>
        <time>2019-08-24T06:03:40Z</time>
      </trkpt>
      <trkpt lat="45.30971" lon="6.14217">
        <ele>2190</ele>
        <time>2019-08-24T06:05:09Z</time>
      </trkpt>
      <trkpt lat="45.30983" lon="6.14277">
        <ele>2199.2</ele>
        <time>2019-08-24T06:06:39Z</time>
      </trkpt>
      <trkpt lat="45.31016" lon="6.14339">
        <ele>2215</ele>
        <time>2019-08-24T06:08:09Z</time>
      </trkpt>
      <trkpt lat="45.31055" lon="6.14372">
        <ele>2236.8</ele>
        <time>2019-08-24T06:10:39Z</time>
      </trkpt>
      <trkpt lat="45.31068" lon="6.1445">
        <ele>2256.6</ele>
        <time>2019-08-24T06:12:09Z</time>
      </trkpt>
      <trkpt lat="45.31097" lon="6.14506">
        <ele>2269.4</ele>
        <time>2019-08-24T06:13:09Z</time>
      </trkpt>
      <trkpt lat="45.31158" lon="6.14581">
        <ele>2291.8</ele>
        <time>2019-08-24T06:17:40Z</time>
      </trkpt>
      <trkpt lat="45.31197" lon="6.1465">
        <ele>2307.2</ele>
        <time>2019-08-24T06:18:11Z</time>
      </trkpt>
      <trkpt lat="45.31207" lon="6.14716">
        <ele>2320.2</ele>
        <time>2019-08-24T06:21:39Z</time>
      </trkpt>
      <trkpt lat="45.31225" lon="6.14773">
        <ele>2344.4</ele>
        <time>2019-08-24T06:23:10Z</time>
      </trkpt>
      <trkpt lat="45.31222" lon="6.14842">
        <ele>2372.6</ele>
        <time>2019-08-24T06:25:09Z</time>
      </trkpt>
      <trkpt lat="45.31233" lon="6.14894">
        <ele>2383.8</ele>
        <time>2019-08-24T06:27:11Z</time>
      </trkpt>
      <trkpt lat="45.31283" lon="6.14965">
        <ele>2405.4</ele>
        <time>2019-08-24T06:33:11Z</time>
      </trkpt>
      <trkpt lat="45.31335" lon="6.15043">
        <ele>2411.4</ele>
        <time>2019-08-24T06:36:10Z</time>
      </trkpt>
      <trkpt lat="45.3135" lon="6.15097">
        <ele>2426.8</ele>
        <time>2019-08-24T06:38:40Z</time>
      </trkpt>
      <trkpt lat="45.31386" lon="6.15151">
        <ele>2439.2</ele>
        <time>2019-08-24T06:40:39Z</time>
      </trkpt>
      <trkpt lat="45.3139" lon="6.15211">
        <ele>2464</ele>
        <time>2019-08-24T06:43:10Z</time>
      </trkpt>
      <trkpt lat="45.31405" lon="6.15306">
        <ele>2477.8</ele>
        <time>2019-08-24T06:46:10Z</time>
      </trkpt>
      <trkpt lat="45.3143" lon="6.15356">
        <ele>2506.2</ele>
        <time>2019-08-24T06:48:10Z</time>
      </trkpt>
      <trkpt lat="45.31427" lon="6.15416">
        <ele>2508.2</ele>
        <time>2019-08-24T06:57:11Z</time>
      </trkpt>
      <trkpt lat="45.31436" lon="6.15486">
        <ele>2502</ele>
        <time>2019-08-24T06:59:11Z</time>
      </trkpt>
      <trkpt lat="45.31444" lon="6.15536">
        <ele>2484.4</ele>
        <time>2019-08-24T07:00:10Z</time>
      </trkpt>
      <trkpt lat="45.31469" lon="6.15595">
        <ele>2458.6</ele>
        <time>2019-08-24T07:01:11Z</time>
      </trkpt>
      <trkpt lat="45.31476" lon="6.15677">
        <ele>2429.8</ele>
        <time>2019-08-24T07:02:40Z</time>
      </trkpt>
      <trkpt lat="45.31479" lon="6.15778">
        <ele>2417.8</ele>
        <time>2019-08-24T07:04:10Z</time>
      </trkpt>
      <trkpt lat="45.31517" lon="6.15775">
        <ele>2399.2</ele>
        <time>2019-08-24T07:04:40Z</time>
      </trkpt>
      <trkpt lat="45.31555" lon="6.15837">
        <ele>2380.4</ele>
        <time>2019-08-24T07:06:41Z</time>
      </trkpt>
      <trkpt lat="45.31591" lon="6.15856">
        <ele>2367.6</ele>
        <time>2019-08-24T07:08:40Z</time>
      </trkpt>
      <trkpt lat="45.3163" lon="6.15849">
        <ele>2335</ele>
        <time>2019-08-24T07:10:40Z</time>
      </trkpt>
      <trkpt lat="45.31665" lon="6.15833">
        <ele>2294.6</ele>
        <time>2019-08-24T07:11:41Z</time>
      </trkpt>
      <trkpt lat="45.31714" lon="6.15799">
        <ele>2264.4</ele>
        <time>2019-08-24T07:15:12Z</time>
      </trkpt>
      <trkpt lat="45.31768" lon="6.15805">
        <ele>2201.6</ele>
        <time>2019-08-24T07:17:10Z</time>
      </trkpt>
      <trkpt lat="45.31811" lon="6.15791">
        <ele>2162.8</ele>
        <time>2019-08-24T07:18:10Z</time>
      </trkpt>
      <trkpt lat="45.31738" lon="6.15751">
        <ele>2153.8</ele>
        <time>2019-08-24T07:19:41Z</time>
      </trkpt>
      <trkpt lat="45.31852" lon="6.15782">
        <ele>2131</ele>
        <time>2019-08-24T07:20:41Z</time>
      </trkpt>
      <trkpt lat="45.31923" lon="6.1576">
        <ele>2110.4</ele>
        <time>2019-08-24T07:21:41Z</time>
      </trkpt>
      <trkpt lat="45.31946" lon="6.15719">
        <ele>2129.2</ele>
        <time>2019-08-24T07:23:11Z</time>
      </trkpt>
      <trkpt lat="45.31992" lon="6.15708">
        <ele>2122.4</ele>
        <time>2019-08-24T07:24:11Z</time>
      </trkpt>
      <trkpt lat="45.32046" lon="6.15684">
        <ele>2104</ele>
        <time>2019-08-24T07:25:11Z</time>
      </trkpt>
      <trkpt lat="45.32079" lon="6.15727">
        <ele>2109</ele>
        <time>2019-08-24T07:26:40Z</time>
      </trkpt>
      <trkpt lat="45.32134" lon="6.15709">
        <ele>2108.8</ele>
        <time>2019-08-24T07:27:11Z</time>
      </trkpt>
      <trkpt lat="45.32165" lon="6.15754">
        <ele>2109.4</ele>
        <time>2019-08-24T07:28:10Z</time>
      </trkpt>
      <trkpt lat="45.32183" lon="6.15798">
        <ele>2111</ele>
        <time>2019-08-24T07:29:41Z</time>
      </trkpt>
      <trkpt lat="45.32217" lon="6.15858">
        <ele>2113.8</ele>
        <time>2019-08-24T07:31:40Z</time>
      </trkpt>
      <trkpt lat="45.32249" lon="6.15883">
        <ele>2109.6</ele>
        <time>2019-08-24T07:32:40Z</time>
      </trkpt>
      <trkpt lat="45.32289" lon="6.15925">
        <ele>2104.8</ele>
        <time>2019-08-24T07:34:10Z</time>
      </trkpt>
      <trkpt lat="45.32302" lon="6.15984">
        <ele>2102</ele>
        <time>2019-08-24T07:35:10Z</time>
      </trkpt>
      <trkpt lat="45.32351" lon="6.16065">
        <ele>2105.2</ele>
        <time>2019-08-24T07:42:44Z</time>
      </trkpt>
      <trkpt lat="45.32407" lon="6.16106">
        <ele>2094.4</ele>
        <time>2019-08-24T07:43:42Z</time>
      </trkpt>
      <trkpt lat="45.32434" lon="6.16173">
        <ele>2086.2</ele>
        <time>2019-08-24T07:44:40Z</time>
      </trkpt>
      <trkpt lat="45.32478" lon="6.16206">
        <ele>2079.2</ele>
        <time>2019-08-24T07:46:12Z</time>
      </trkpt>
      <trkpt lat="45.32456" lon="6.16262">
        <ele>2066.8</ele>
        <time>2019-08-24T07:46:42Z</time>
      </trkpt>
      <trkpt lat="45.32481" lon="6.16318">
        <ele>2042</ele>
        <time>2019-08-24T07:48:12Z</time>
      </trkpt>
      <trkpt lat="45.32513" lon="6.16359">
        <ele>2031.8</ele>
        <time>2019-08-24T07:49:42Z</time>
      </trkpt>
      <trkpt lat="45.32558" lon="6.16406">
        <ele>2020.4</ele>
        <time>2019-08-24T07:51:11Z</time>
      </trkpt>
      <trkpt lat="45.32561" lon="6.16471">
        <ele>2008.4</ele>
        <time>2019-08-24T07:51:43Z</time>
      </trkpt>
      <trkpt lat="45.32571" lon="6.16543">
        <ele>1998.8</ele>
        <time>2019-08-24T07:52:45Z</time>
      </trkpt>
      <trkpt lat="45.32641" lon="6.16699">
        <ele>1996.2</ele>
        <time>2019-08-24T07:54:43Z</time>
      </trkpt>
      <trkpt lat="45.3271" lon="6.16685">
        <ele>1990</ele>
        <time>2019-08-24T07:55:44Z</time>
      </trkpt>
      <trkpt lat="45.32764" lon="6.16701">
        <ele>1974.2</ele>
        <time>2019-08-24T07:56:44Z</time>
      </trkpt>
      <trkpt lat="45.3277" lon="6.16647">
        <ele>1955.2</ele>
        <time>2019-08-24T07:57:15Z</time>
      </trkpt>
      <trkpt lat="45.32815" lon="6.16594">
        <ele>1931.8</ele>
        <time>2019-08-24T07:58:14Z</time>
      </trkpt>
      <trkpt lat="45.32874" lon="6.16542">
        <ele>1914.6</ele>
        <time>2019-08-24T07:59:44Z</time>
      </trkpt>
      <trkpt lat="45.32929" lon="6.16531">
        <ele>1904.2</ele>
        <time>2019-08-24T08:00:46Z</time>
      </trkpt>
      <trkpt lat="45.32986" lon="6.16521">
        <ele>1892.8</ele>
        <time>2019-08-24T08:01:42Z</time>
      </trkpt>
      <trkpt lat="45.33063" lon="6.16445">
        <ele>1889.6</ele>
        <time>2019-08-24T08:02:44Z</time>
      </trkpt>
      <trkpt lat="45.33103" lon="6.16418">
        <ele>1886.8</ele>
        <time>2019-08-24T08:03:16Z</time>
      </trkpt>
      <trkpt lat="45.33192" lon="6.16308">
        <ele>1880.2</ele>
        <time>2019-08-24T08:04:44Z</time>
      </trkpt>
      <trkpt lat="45.33228" lon="6.16258">
        <ele>1858.8</ele>
        <time>2019-08-24T08:05:15Z</time>
      </trkpt>
      <trkpt lat="45.3327" lon="6.16173">
        <ele>1854</ele>
        <time>2019-08-24T08:06:12Z</time>
      </trkpt>
      <trkpt lat="45.3332" lon="6.16121">
        <ele>1845.6</ele>
        <time>2019-08-24T08:07:13Z</time>
      </trkpt>
      <trkpt lat="45.33345" lon="6.16083">
        <ele>1836.6</ele>
        <time>2019-08-24T08:07:46Z</time>
      </trkpt>
      <trkpt lat="45.33445" lon="6.16009">
        <ele>1833.2</ele>
        <time>2019-08-24T08:09:12Z</time>
      </trkpt>
      <trkpt lat="45.33488" lon="6.15984">
        <ele>1862.6</ele>
        <time>2019-08-24T08:09:44Z</time>
      </trkpt>
      <trkpt lat="45.33525" lon="6.1599">
        <ele>1856.8</ele>
        <time>2019-08-24T08:11:13Z</time>
      </trkpt>
      <trkpt lat="45.33512" lon="6.16048">
        <ele>1867</ele>
        <time>2019-08-24T08:12:41Z</time>
      </trkpt>
      <trkpt lat="45.33703" lon="6.15912">
        <ele>1869</ele>
        <time>2019-08-24T08:31:25Z</time>
      </trkpt>
      <trkpt lat="45.33753" lon="6.15986">
        <ele>1868</ele>
        <time>2019-08-24T08:32:50Z</time>
      </trkpt>
      <trkpt lat="45.33845" lon="6.16016">
        <ele>1840.8</ele>
        <time>2019-08-24T08:33:49Z</time>
      </trkpt>
      <trkpt lat="45.33882" lon="6.15981">
        <ele>1835.4</ele>
        <time>2019-08-24T08:34:47Z</time>
      </trkpt>
      <trkpt lat="45.33967" lon="6.16014">
        <ele>1816.8</ele>
        <time>2019-08-24T08:35:53Z</time>
      </trkpt>
      <trkpt lat="45.34051" lon="6.16017">
        <ele>1813.2</ele>
        <time>2019-08-24T08:36:47Z</time>
      </trkpt>
      <trkpt lat="45.34164" lon="6.16031">
        <ele>1798.6</ele>
        <time>2019-08-24T08:38:18Z</time>
      </trkpt>
      <trkpt lat="45.34298" lon="6.1602">
        <ele>1790.4</ele>
        <time>2019-08-24T08:39:49Z</time>
      </trkpt>
      <trkpt lat="45.34347" lon="6.15964">
        <ele>1779.8</ele>
        <time>2019-08-24T08:40:52Z</time>
      </trkpt>
      <trkpt lat="45.3441" lon="6.15892">
        <ele>1772</ele>
        <time>2019-08-24T08:41:44Z</time>
      </trkpt>
      <trkpt lat="45.34444" lon="6.15801">
        <ele>1753.2</ele>
        <time>2019-08-24T08:43:16Z</time>
      </trkpt>
      <trkpt lat="45.34483" lon="6.15798">
        <ele>1744.4</ele>
        <time>2019-08-24T08:43:49Z</time>
      </trkpt>
      <trkpt lat="45.34523" lon="6.15785">
        <ele>1733.4</ele>
        <time>2019-08-24T08:45:17Z</time>
      </trkpt>
      <trkpt lat="45.3456" lon="6.1576">
        <ele>1717.8</ele>
        <time>2019-08-24T08:46:14Z</time>
      </trkpt>
      <trkpt lat="45.34604" lon="6.15745">
        <ele>1697</ele>
        <time>2019-08-24T08:46:48Z</time>
      </trkpt>
      <trkpt lat="45.34676" lon="6.15784">
        <ele>1690.4</ele>
        <time>2019-08-24T08:48:19Z</time>
      </trkpt>
      <trkpt lat="45.3473" lon="6.15787">
        <ele>1677.8</ele>
        <time>2019-08-24T08:49:21Z</time>
      </trkpt>
      <trkpt lat="45.34763" lon="6.15808">
        <ele>1667.8</ele>
        <time>2019-08-24T08:50:23Z</time>
      </trkpt>
      <trkpt lat="45.34812" lon="6.15801">
        <ele>1662.4</ele>
        <time>2019-08-24T08:51:16Z</time>
      </trkpt>
      <trkpt lat="45.34839" lon="6.15765">
        <ele>1656.6</ele>
        <time>2019-08-24T08:51:48Z</time>
      </trkpt>
      <trkpt lat="45.34858" lon="6.15712">
        <ele>1648.8</ele>
        <time>2019-08-24T08:52:55Z</time>
      </trkpt>
      <trkpt lat="45.34927" lon="6.15753">
        <ele>1647.2</ele>
        <time>2019-08-24T08:53:47Z</time>
      </trkpt>
      <trkpt lat="45.3501" lon="6.15657">
        <ele>1639</ele>
        <time>2019-08-24T08:54:54Z</time>
      </trkpt>
      <trkpt lat="45.35067" lon="6.15617">
        <ele>1637.8</ele>
        <time>2019-08-24T08:56:17Z</time>
      </trkpt>
      <trkpt lat="45.35072" lon="6.15566">
        <ele>1636.2</ele>
        <time>2019-08-24T08:56:47Z</time>
      </trkpt>
      <trkpt lat="45.35119" lon="6.15531">
        <ele>1644</ele>
        <time>2019-08-24T08:57:47Z</time>
      </trkpt>
      <trkpt lat="45.35177" lon="6.15412">
        <ele>1642.4</ele>
        <time>2019-08-24T08:59:15Z</time>
      </trkpt>
      <trkpt lat="45.35236" lon="6.1537">
        <ele>1631.2</ele>
        <time>2019-08-24T09:00:19Z</time>
      </trkpt>
      <trkpt lat="45.35279" lon="6.15335">
        <ele>1617.6</ele>
        <time>2019-08-24T09:00:50Z</time>
      </trkpt>
      <trkpt lat="45.35348" lon="6.15338">
        <ele>1612.8</ele>
        <time>2019-08-24T09:02:00Z</time>
      </trkpt>
      <trkpt lat="45.35339" lon="6.15272">
        <ele>1595.6</ele>
        <time>2019-08-24T09:02:34Z</time>
      </trkpt>
      <trkpt lat="45.35397" lon="6.15222">
        <ele>1573.6</ele>
        <time>2019-08-24T09:03:49Z</time>
      </trkpt>
      <trkpt lat="45.35506" lon="6.15237">
        <ele>1553.4</ele>
        <time>2019-08-24T09:05:46Z</time>
      </trkpt>
      <trkpt lat="45.35527" lon="6.15181">
        <ele>1532</ele>
        <time>2019-08-24T09:09:32Z</time>
      </trkpt>
      <trkpt lat="45.35571" lon="6.15111">
        <ele>1509.2</ele>
        <time>2019-08-24T09:11:56Z</time>
      </trkpt>
      <trkpt lat="45.35631" lon="6.15104">
        <ele>1487.4</ele>
        <time>2019-08-24T09:13:25Z</time>
      </trkpt>
      <trkpt lat="45.35639" lon="6.15029">
        <ele>1463.4</ele>
        <time>2019-08-24T09:14:07Z</time>
      </trkpt>
      <trkpt lat="45.357" lon="6.15042">
        <ele>1456</ele>
        <time>2019-08-24T09:14:57Z</time>
      </trkpt>
      <trkpt lat="45.3564" lon="6.14977">
        <ele>1454.6</ele>
        <time>2019-08-24T09:15:38Z</time>
      </trkpt>
      <trkpt lat="45.35687" lon="6.14993">
        <ele>1438.4</ele>
        <time>2019-08-24T09:16:11Z</time>
      </trkpt>
      <trkpt lat="45.3571" lon="6.14928">
        <ele>1423.8</ele>
        <time>2019-08-24T09:17:01Z</time>
      </trkpt>
      <trkpt lat="45.35752" lon="6.14917">
        <ele>1415.2</ele>
        <time>2019-08-24T09:18:26Z</time>
      </trkpt>
      <trkpt lat="45.35771" lon="6.14867">
        <ele>1401.8</ele>
        <time>2019-08-24T09:19:40Z</time>
      </trkpt>
      <trkpt lat="45.35818" lon="6.1486">
        <ele>1372.8</ele>
        <time>2019-08-24T09:20:22Z</time>
      </trkpt>
      <trkpt lat="45.35792" lon="6.14754">
        <ele>1368.8</ele>
        <time>2019-08-24T09:21:45Z</time>
      </trkpt>
      <trkpt lat="45.35802" lon="6.14657">
        <ele>1365.2</ele>
        <time>2019-08-24T09:23:44Z</time>
      </trkpt>
      <trkpt lat="45.35861" lon="6.14605">
        <ele>1351.6</ele>
        <time>2019-08-24T09:24:34Z</time>
      </trkpt>
      <trkpt lat="45.35909" lon="6.1456">
        <ele>1344</ele>
        <time>2019-08-24T09:25:07Z</time>
      </trkpt>
      <trkpt lat="45.35991" lon="6.14488">
        <ele>1345.8</ele>
        <time>2019-08-24T09:27:07Z</time>
      </trkpt>
      <trkpt lat="45.36048" lon="6.14511">
        <ele>1333.6</ele>
        <time>2019-08-24T09:27:40Z</time>
      </trkpt>
      <trkpt lat="45.36085" lon="6.14443">
        <ele>1302.2</ele>
        <time>2019-08-24T09:28:39Z</time>
      </trkpt>
      <trkpt lat="45.36132" lon="6.14434">
        <ele>1296.8</ele>
        <time>2019-08-24T09:29:17Z</time>
      </trkpt>
      <trkpt lat="45.362" lon="6.14488">
        <ele>1296.6</ele>
        <time>2019-08-24T09:30:05Z</time>
      </trkpt>
      <trkpt lat="45.36283" lon="6.14622">
        <ele>1293.2</ele>
        <time>2019-08-24T09:30:46Z</time>
      </trkpt>
      <trkpt lat="45.36361" lon="6.14607">
        <ele>1295.8</ele>
        <time>2019-08-24T09:32:12Z</time>
      </trkpt>
      <trkpt lat="45.36436" lon="6.14562">
        <ele>1312.6</ele>
        <time>2019-08-24T09:33:08Z</time>
      </trkpt>
      <trkpt lat="45.36478" lon="6.1458">
        <ele>1321.4</ele>
        <time>2019-08-24T09:33:48Z</time>
      </trkpt>
      <trkpt lat="45.36539" lon="6.14522">
        <ele>1321</ele>
        <time>2019-08-24T09:34:54Z</time>
      </trkpt>
      <trkpt lat="45.36577" lon="6.14521">
        <ele>1321.8</ele>
        <time>2019-08-24T09:35:43Z</time>
      </trkpt>
      <trkpt lat="45.36628" lon="6.14507">
        <ele>1330</ele>
        <time>2019-08-24T09:37:13Z</time>
      </trkpt>
      <trkpt lat="45.36629" lon="6.1456">
        <ele>1344.6</ele>
        <time>2019-08-24T09:41:09Z</time>
      </trkpt>
      <trkpt lat="45.36575" lon="6.14691">
        <ele>1370</ele>
        <time>2019-08-24T09:41:39Z</time>
      </trkpt>
      <trkpt lat="45.36627" lon="6.14663">
        <ele>1401</ele>
        <time>2019-08-24T09:44:42Z</time>
      </trkpt>
      <trkpt lat="45.36672" lon="6.14723">
        <ele>1438.2</ele>
        <time>2019-08-24T09:46:44Z</time>
      </trkpt>
      <trkpt lat="45.36689" lon="6.14793">
        <ele>1460.4</ele>
        <time>2019-08-24T09:49:39Z</time>
      </trkpt>
      <trkpt lat="45.36649" lon="6.14759">
        <ele>1473.8</ele>
        <time>2019-08-24T09:50:39Z</time>
      </trkpt>
      <trkpt lat="45.36625" lon="6.14823">
        <ele>1487.4</ele>
        <time>2019-08-24T09:51:43Z</time>
      </trkpt>
      <trkpt lat="45.36659" lon="6.1487">
        <ele>1499.2</ele>
        <time>2019-08-24T09:52:19Z</time>
      </trkpt>
      <trkpt lat="45.36694" lon="6.14913">
        <ele>1508.6</ele>
        <time>2019-08-24T09:56:43Z</time>
      </trkpt>
      <trkpt lat="45.36832" lon="6.14958">
        <ele>1524.6</ele>
        <time>2019-08-24T09:58:42Z</time>
      </trkpt>
      <trkpt lat="45.36874" lon="6.14971">
        <ele>1549</ele>
        <time>2019-08-24T10:00:54Z</time>
      </trkpt>
      <trkpt lat="45.36905" lon="6.15009">
        <ele>1562.8</ele>
        <time>2019-08-24T10:01:40Z</time>
      </trkpt>
      <trkpt lat="45.36944" lon="6.14992">
        <ele>1579.6</ele>
        <time>2019-08-24T10:06:10Z</time>
      </trkpt>
      <trkpt lat="45.37034" lon="6.14888">
        <ele>1598.6</ele>
        <time>2019-08-24T10:06:42Z</time>
      </trkpt>
      <trkpt lat="45.37071" lon="6.14846">
        <ele>1620.8</ele>
        <time>2019-08-24T10:08:39Z</time>
      </trkpt>
      <trkpt lat="45.37074" lon="6.14918">
        <ele>1641.2</ele>
        <time>2019-08-24T10:10:14Z</time>
      </trkpt>
      <trkpt lat="45.37036" lon="6.15012">
        <ele>1661</ele>
        <time>2019-08-24T10:12:08Z</time>
      </trkpt>
      <trkpt lat="45.37065" lon="6.15064">
        <ele>1680.8</ele>
        <time>2019-08-24T10:17:15Z</time>
      </trkpt>
      <trkpt lat="45.3722" lon="6.15008">
        <ele>1710.8</ele>
        <time>2019-08-24T10:20:10Z</time>
      </trkpt>
      <trkpt lat="45.37225" lon="6.14956">
        <ele>1725.4</ele>
        <time>2019-08-24T10:20:46Z</time>
      </trkpt>
      <trkpt lat="45.37266" lon="6.14932">
        <ele>1739.2</ele>
        <time>2019-08-24T10:23:17Z</time>
      </trkpt>
      <trkpt lat="45.37305" lon="6.14966">
        <ele>1758.4</ele>
        <time>2019-08-24T10:24:26Z</time>
      </trkpt>
      <trkpt lat="45.37344" lon="6.14934">
        <ele>1767.8</ele>
        <time>2019-08-24T10:27:15Z</time>
      </trkpt>
      <trkpt lat="45.37443" lon="6.14854">
        <ele>1768.4</ele>
        <time>2019-08-24T10:28:09Z</time>
      </trkpt>
      <trkpt lat="45.37501" lon="6.14784">
        <ele>1776.6</ele>
        <time>2019-08-24T10:29:11Z</time>
      </trkpt>
      <trkpt lat="45.3753" lon="6.14869">
        <ele>1785.2</ele>
        <time>2019-08-24T10:30:09Z</time>
      </trkpt>
      <trkpt lat="45.37613" lon="6.14828">
        <ele>1788.2</ele>
        <time>2019-08-24T10:31:38Z</time>
      </trkpt>
      <trkpt lat="45.37644" lon="6.14779">
        <ele>1791.6</ele>
        <time>2019-08-24T10:32:10Z</time>
      </trkpt>
      <trkpt lat="45.37683" lon="6.14756">
        <ele>1795.4</ele>
        <time>2019-08-24T10:32:40Z</time>
      </trkpt>
      <trkpt lat="45.37726" lon="6.14788">
        <ele>1787.2</ele>
        <time>2019-08-24T10:33:42Z</time>
      </trkpt>
      <trkpt lat="45.37813" lon="6.14739">
        <ele>1794.6</ele>
        <time>2019-08-24T10:35:14Z</time>
      </trkpt>
      <trkpt lat="45.3784" lon="6.14693">
        <ele>1800.2</ele>
        <time>2019-08-24T10:39:20Z</time>
      </trkpt>
      <trkpt lat="45.37876" lon="6.14442">
        <ele>1805.6</ele>
        <time>2019-08-24T10:41:25Z</time>
      </trkpt>
      <trkpt lat="45.37871" lon="6.14378">
        <ele>1805</ele>
        <time>2019-08-24T10:42:54Z</time>
      </trkpt>
      <trkpt lat="45.37856" lon="6.14331">
        <ele>1818.8</ele>
        <time>2019-08-24T10:43:56Z</time>
      </trkpt>
      <trkpt lat="45.37892" lon="6.14306">
        <ele>1826</ele>
        <time>2019-08-24T10:46:25Z</time>
      </trkpt>
      <trkpt lat="45.38031" lon="6.14335">
        <ele>1837.2</ele>
        <time>2019-08-24T10:49:00Z</time>
      </trkpt>
      <trkpt lat="45.38077" lon="6.14338">
        <ele>1856.8</ele>
        <time>2019-08-24T10:49:55Z</time>
      </trkpt>
      <trkpt lat="45.38199" lon="6.14348">
        <ele>1868.6</ele>
        <time>2019-08-24T10:51:26Z</time>
      </trkpt>
      <trkpt lat="45.38307" lon="6.14365">
        <ele>1877.8</ele>
        <time>2019-08-24T10:54:57Z</time>
      </trkpt>
      <trkpt lat="45.38386" lon="6.14331">
        <ele>1873.6</ele>
        <time>2019-08-24T10:56:28Z</time>
      </trkpt>
      <trkpt lat="45.38392" lon="6.14235">
        <ele>1866.8</ele>
        <time>2019-08-24T10:58:26Z</time>
      </trkpt>
      <trkpt lat="45.3839" lon="6.14183">
        <ele>1859.2</ele>
        <time>2019-08-24T10:59:26Z</time>
      </trkpt>
      <trkpt lat="45.38405" lon="6.14124">
        <ele>1855.8</ele>
        <time>2019-08-24T11:00:00Z</time>
      </trkpt>
      <trkpt lat="45.38433" lon="6.14076">
        <ele>1852.8</ele>
        <time>2019-08-24T11:00:55Z</time>
      </trkpt>
      <trkpt lat="45.38462" lon="6.14043">
        <ele>1856.4</ele>
        <time>2019-08-24T11:01:55Z</time>
      </trkpt>
      <trkpt lat="45.38505" lon="6.14016">
        <ele>1850</ele>
        <time>2019-08-24T11:02:27Z</time>
      </trkpt>
      <trkpt lat="45.38529" lon="6.13946">
        <ele>1837</ele>
        <time>2019-08-24T11:03:33Z</time>
      </trkpt>
      <trkpt lat="45.38568" lon="6.13927">
        <ele>1834.4</ele>
        <time>2019-08-24T11:04:37Z</time>
      </trkpt>
      <trkpt lat="45.38573" lon="6.13865">
        <ele>1836.8</ele>
        <time>2019-08-24T11:06:04Z</time>
      </trkpt>
      <trkpt lat="45.38641" lon="6.13788">
        <ele>1833.8</ele>
        <time>2019-08-24T11:07:26Z</time>
      </trkpt>
      <trkpt lat="45.38647" lon="6.13674">
        <ele>1842.6</ele>
        <time>2019-08-24T11:08:54Z</time>
      </trkpt>
      <trkpt lat="45.38691" lon="6.13672">
        <ele>1854.8</ele>
        <time>2019-08-24T11:09:30Z</time>
      </trkpt>
      <trkpt lat="45.38704" lon="6.13579">
        <ele>1860.4</ele>
        <time>2019-08-24T11:11:00Z</time>
      </trkpt>
      <trkpt lat="45.38758" lon="6.13515">
        <ele>1847.2</ele>
        <time>2019-08-24T11:12:07Z</time>
      </trkpt>
      <trkpt lat="45.38799" lon="6.13504">
        <ele>1839.8</ele>
        <time>2019-08-24T11:12:55Z</time>
      </trkpt>
      <trkpt lat="45.3881" lon="6.13381">
        <ele>1835.6</ele>
        <time>2019-08-24T11:15:26Z</time>
      </trkpt>
      <trkpt lat="45.38837" lon="6.13312">
        <ele>1829</ele>
        <time>2019-08-24T11:16:25Z</time>
      </trkpt>
      <trkpt lat="45.38846" lon="6.1326">
        <ele>1806</ele>
        <time>2019-08-24T11:17:28Z</time>
      </trkpt>
      <trkpt lat="45.38859" lon="6.13202">
        <ele>1791.8</ele>
        <time>2019-08-24T11:19:24Z</time>
      </trkpt>
      <trkpt lat="45.38921" lon="6.13053">
        <ele>1776.2</ele>
        <time>2019-08-24T11:22:26Z</time>
      </trkpt>
      <trkpt lat="45.38954" lon="6.1297">
        <ele>1759.4</ele>
        <time>2019-08-24T11:23:27Z</time>
      </trkpt>
      <trkpt lat="45.38963" lon="6.12917">
        <ele>1744.4</ele>
        <time>2019-08-24T11:24:25Z</time>
      </trkpt>
      <trkpt lat="45.3901" lon="6.12853">
        <ele>1746.6</ele>
        <time>2019-08-24T11:25:24Z</time>
      </trkpt>
      <trkpt lat="45.39039" lon="6.12733">
        <ele>1750.6</ele>
        <time>2019-08-24T11:26:55Z</time>
      </trkpt>
      <trkpt lat="45.39082" lon="6.12666">
        <ele>1748</ele>
        <time>2019-08-24T11:28:27Z</time>
      </trkpt>
      <trkpt lat="45.39046" lon="6.12634">
        <ele>1740.6</ele>
        <time>2019-08-24T11:29:00Z</time>
      </trkpt>
      <trkpt lat="45.39098" lon="6.12562">
        <ele>1732.8</ele>
        <time>2019-08-24T11:29:54Z</time>
      </trkpt>
      <trkpt lat="45.3912" lon="6.12518">
        <ele>1723</ele>
        <time>2019-08-24T11:30:24Z</time>
      </trkpt>
      <trkpt lat="45.39156" lon="6.12528">
        <ele>1711.2</ele>
        <time>2019-08-24T11:30:56Z</time>
      </trkpt>
      <trkpt lat="45.39163" lon="6.12634">
        <ele>1699.6</ele>
        <time>2019-08-24T11:31:26Z</time>
      </trkpt>
      <trkpt lat="45.39238" lon="6.12775">
        <ele>1694.2</ele>
        <time>2019-08-24T11:32:24Z</time>
      </trkpt>
      <trkpt lat="45.39291" lon="6.1278">
        <ele>1675.2</ele>
        <time>2019-08-24T11:32:54Z</time>
      </trkpt>
      <trkpt lat="45.39317" lon="6.12834">
        <ele>1677</ele>
        <time>2019-08-24T11:33:25Z</time>
      </trkpt>
      <trkpt lat="45.39283" lon="6.12805">
        <ele>1680.6</ele>
        <time>2019-08-24T11:39:22Z</time>
      </trkpt>
      <trkpt lat="45.39327" lon="6.12808">
        <ele>1689.2</ele>
        <time>2019-08-24T11:39:53Z</time>
      </trkpt>
      <trkpt lat="45.39339" lon="6.12863">
        <ele>1695.8</ele>
        <time>2019-08-24T12:43:22Z</time>
      </trkpt>
      <trkpt lat="45.39301" lon="6.12891">
        <ele>1717.4</ele>
        <time>2019-08-24T12:51:24Z</time>
      </trkpt>
      <trkpt lat="45.39291" lon="6.12972">
        <ele>1718.6</ele>
        <time>2019-08-24T12:52:24Z</time>
      </trkpt>
      <trkpt lat="45.39257" lon="6.13036">
        <ele>1729.4</ele>
        <time>2019-08-24T12:53:23Z</time>
      </trkpt>
      <trkpt lat="45.39236" lon="6.13108">
        <ele>1737.4</ele>
        <time>2019-08-24T12:54:24Z</time>
      </trkpt>
      <trkpt lat="45.39207" lon="6.13178">
        <ele>1742</ele>
        <time>2019-08-24T12:55:24Z</time>
      </trkpt>
      <trkpt lat="45.39185" lon="6.13247">
        <ele>1753</ele>
        <time>2019-08-24T12:56:25Z</time>
      </trkpt>
      <trkpt lat="45.39119" lon="6.13242">
        <ele>1756.2</ele>
        <time>2019-08-24T12:57:27Z</time>
      </trkpt>
      <trkpt lat="45.39173" lon="6.13257">
        <ele>1768.2</ele>
        <time>2019-08-24T12:58:23Z</time>
      </trkpt>
      <trkpt lat="45.39123" lon="6.1325">
        <ele>1763.8</ele>
        <time>2019-08-24T12:58:54Z</time>
      </trkpt>
      <trkpt lat="45.39103" lon="6.13395">
        <ele>1775.4</ele>
        <time>2019-08-24T13:02:24Z</time>
      </trkpt>
      <trkpt lat="45.39119" lon="6.13457">
        <ele>1771</ele>
        <time>2019-08-24T13:03:24Z</time>
      </trkpt>
      <trkpt lat="45.39124" lon="6.13532">
        <ele>1794.4</ele>
        <time>2019-08-24T13:04:24Z</time>
      </trkpt>
      <trkpt lat="45.39129" lon="6.13604">
        <ele>1796.2</ele>
        <time>2019-08-24T13:05:54Z</time>
      </trkpt>
      <trkpt lat="45.39131" lon="6.13666">
        <ele>1817.4</ele>
        <time>2019-08-24T13:06:55Z</time>
      </trkpt>
      <trkpt lat="45.39174" lon="6.13693">
        <ele>1819.8</ele>
        <time>2019-08-24T13:07:54Z</time>
      </trkpt>
      <trkpt lat="45.39213" lon="6.13747">
        <ele>1846</ele>
        <time>2019-08-24T13:09:24Z</time>
      </trkpt>
      <trkpt lat="45.39266" lon="6.13776">
        <ele>1857.8</ele>
        <time>2019-08-24T13:10:24Z</time>
      </trkpt>
      <trkpt lat="45.39304" lon="6.13798">
        <ele>1884.8</ele>
        <time>2019-08-24T13:11:54Z</time>
      </trkpt>
      <trkpt lat="45.39316" lon="6.13894">
        <ele>1892.4</ele>
        <time>2019-08-24T13:13:24Z</time>
      </trkpt>
      <trkpt lat="45.39281" lon="6.13933">
        <ele>1915.4</ele>
        <time>2019-08-24T13:14:24Z</time>
      </trkpt>
      <trkpt lat="45.39327" lon="6.13973">
        <ele>1918</ele>
        <time>2019-08-24T13:15:24Z</time>
      </trkpt>
      <trkpt lat="45.39379" lon="6.13986">
        <ele>1920.4</ele>
        <time>2019-08-24T13:16:53Z</time>
      </trkpt>
      <trkpt lat="45.39423" lon="6.13977">
        <ele>1916.2</ele>
        <time>2019-08-24T13:17:53Z</time>
      </trkpt>
      <trkpt lat="45.39388" lon="6.1406">
        <ele>1931.6</ele>
        <time>2019-08-24T13:19:25Z</time>
      </trkpt>
      <trkpt lat="45.39359" lon="6.14097">
        <ele>1938</ele>
        <time>2019-08-24T13:19:55Z</time>
      </trkpt>
      <trkpt lat="45.39322" lon="6.14132">
        <ele>1952.6</ele>
        <time>2019-08-24T13:20:56Z</time>
      </trkpt>
      <trkpt lat="45.39243" lon="6.14167">
        <ele>1961.4</ele>
        <time>2019-08-24T13:22:56Z</time>
      </trkpt>
      <trkpt lat="45.39179" lon="6.14191">
        <ele>1973.8</ele>
        <time>2019-08-24T13:24:25Z</time>
      </trkpt>
      <trkpt lat="45.39121" lon="6.14221">
        <ele>1983</ele>
        <time>2019-08-24T13:25:25Z</time>
      </trkpt>
      <trkpt lat="45.39071" lon="6.14226">
        <ele>1982.8</ele>
        <time>2019-08-24T13:26:24Z</time>
      </trkpt>
      <trkpt lat="45.39034" lon="6.14223">
        <ele>1988.4</ele>
        <time>2019-08-24T13:26:55Z</time>
      </trkpt>
      <trkpt lat="45.38995" lon="6.14209">
        <ele>1989.2</ele>
        <time>2019-08-24T13:27:25Z</time>
      </trkpt>
      <trkpt lat="45.38981" lon="6.1426">
        <ele>1992.8</ele>
        <time>2019-08-24T13:27:56Z</time>
      </trkpt>
      <trkpt lat="45.38889" lon="6.14279">
        <ele>1988.2</ele>
        <time>2019-08-24T13:29:25Z</time>
      </trkpt>
      <trkpt lat="45.38881" lon="6.14351">
        <ele>1996.6</ele>
        <time>2019-08-24T13:29:56Z</time>
      </trkpt>
      <trkpt lat="45.38808" lon="6.1436">
        <ele>1994</ele>
        <time>2019-08-24T13:30:56Z</time>
      </trkpt>
      <trkpt lat="45.3876" lon="6.14359">
        <ele>2002.8</ele>
        <time>2019-08-24T13:31:56Z</time>
      </trkpt>
      <trkpt lat="45.38711" lon="6.14382">
        <ele>2002.8</ele>
        <time>2019-08-24T13:32:56Z</time>
      </trkpt>
      <trkpt lat="45.38688" lon="6.14471">
        <ele>2016</ele>
        <time>2019-08-24T13:33:55Z</time>
      </trkpt>
      <trkpt lat="45.38633" lon="6.14476">
        <ele>2021.6</ele>
        <time>2019-08-24T13:34:54Z</time>
      </trkpt>
      <trkpt lat="45.38562" lon="6.14399">
        <ele>2039.2</ele>
        <time>2019-08-24T13:35:54Z</time>
      </trkpt>
      <trkpt lat="45.38666" lon="6.14665">
        <ele>2050.4</ele>
        <time>2019-08-24T13:36:24Z</time>
      </trkpt>
      <trkpt lat="45.38613" lon="6.14663">
        <ele>2069.2</ele>
        <time>2019-08-24T13:38:23Z</time>
      </trkpt>
      <trkpt lat="45.38635" lon="6.14801">
        <ele>2084.4</ele>
        <time>2019-08-24T13:39:56Z</time>
      </trkpt>
      <trkpt lat="45.38605" lon="6.14844">
        <ele>2102.2</ele>
        <time>2019-08-24T13:41:26Z</time>
      </trkpt>
      <trkpt lat="45.38594" lon="6.14959">
        <ele>2109.6</ele>
        <time>2019-08-24T13:42:24Z</time>
      </trkpt>
      <trkpt lat="45.3854" lon="6.14878">
        <ele>2116.2</ele>
        <time>2019-08-24T13:42:54Z</time>
      </trkpt>
      <trkpt lat="45.38459" lon="6.14867">
        <ele>2118.8</ele>
        <time>2019-08-24T13:43:24Z</time>
      </trkpt>
      <trkpt lat="45.38418" lon="6.14917">
        <ele>2122.6</ele>
        <time>2019-08-24T13:44:24Z</time>
      </trkpt>
      <trkpt lat="45.38334" lon="6.14945">
        <ele>2123</ele>
        <time>2019-08-24T13:45:25Z</time>
      </trkpt>
      <trkpt lat="45.38251" lon="6.15004">
        <ele>2120.8</ele>
        <time>2019-08-24T13:46:25Z</time>
      </trkpt>
      <trkpt lat="45.38203" lon="6.15192">
        <ele>2123.2</ele>
        <time>2019-08-24T13:47:25Z</time>
      </trkpt>
      <trkpt lat="45.38129" lon="6.15244">
        <ele>2118</ele>
        <time>2019-08-24T13:48:25Z</time>
      </trkpt>
      <trkpt lat="45.3807" lon="6.15288">
        <ele>2103.2</ele>
        <time>2019-08-24T13:49:23Z</time>
      </trkpt>
      <trkpt lat="45.38042" lon="6.15339">
        <ele>2093.8</ele>
        <time>2019-08-24T13:49:53Z</time>
      </trkpt>
      <trkpt lat="45.38019" lon="6.15389">
        <ele>2079.2</ele>
        <time>2019-08-24T13:50:25Z</time>
      </trkpt>
      <trkpt lat="45.37949" lon="6.15348">
        <ele>2056.2</ele>
        <time>2019-08-24T13:51:24Z</time>
      </trkpt>
      <trkpt lat="45.37912" lon="6.15361">
        <ele>2042.6</ele>
        <time>2019-08-24T13:51:54Z</time>
      </trkpt>
      <trkpt lat="45.37847" lon="6.15388">
        <ele>2031.4</ele>
        <time>2019-08-24T13:52:55Z</time>
      </trkpt>
      <trkpt lat="45.37805" lon="6.15352">
        <ele>2015.4</ele>
        <time>2019-08-24T13:53:26Z</time>
      </trkpt>
      <trkpt lat="45.37732" lon="6.15396">
        <ele>2012</ele>
        <time>2019-08-24T13:54:25Z</time>
      </trkpt>
      <trkpt lat="45.3766" lon="6.15385">
        <ele>2000.4</ele>
        <time>2019-08-24T13:55:25Z</time>
      </trkpt>
      <trkpt lat="45.37666" lon="6.15498">
        <ele>1982.8</ele>
        <time>2019-08-24T13:56:24Z</time>
      </trkpt>
      <trkpt lat="45.37779" lon="6.15557">
        <ele>1970</ele>
        <time>2019-08-24T13:57:54Z</time>
      </trkpt>
      <trkpt lat="45.37789" lon="6.15669">
        <ele>1958.2</ele>
        <time>2019-08-24T13:58:54Z</time>
      </trkpt>
      <trkpt lat="45.37792" lon="6.15789">
        <ele>1942.6</ele>
        <time>2019-08-24T14:00:25Z</time>
      </trkpt>
      <trkpt lat="45.37871" lon="6.15868">
        <ele>1936.2</ele>
        <time>2019-08-24T14:01:24Z</time>
      </trkpt>
      <trkpt lat="45.37905" lon="6.15908">
        <ele>1923.2</ele>
        <time>2019-08-24T14:01:54Z</time>
      </trkpt>
      <trkpt lat="45.37925" lon="6.15973">
        <ele>1909.6</ele>
        <time>2019-08-24T14:02:55Z</time>
      </trkpt>
      <trkpt lat="45.3798" lon="6.16002">
        <ele>1891.4</ele>
        <time>2019-08-24T14:03:54Z</time>
      </trkpt>
      <trkpt lat="45.38016" lon="6.16059">
        <ele>1865.4</ele>
        <time>2019-08-24T14:04:56Z</time>
      </trkpt>
      <trkpt lat="45.38042" lon="6.16145">
        <ele>1844.4</ele>
        <time>2019-08-24T14:05:55Z</time>
      </trkpt>
      <trkpt lat="45.37984" lon="6.16157">
        <ele>1836.6</ele>
        <time>2019-08-24T14:06:25Z</time>
      </trkpt>
      <trkpt lat="45.37985" lon="6.16223">
        <ele>1806.6</ele>
        <time>2019-08-24T14:07:25Z</time>
      </trkpt>
      <trkpt lat="45.38006" lon="6.16285">
        <ele>1795.4</ele>
        <time>2019-08-24T14:07:56Z</time>
      </trkpt>
      <trkpt lat="45.37983" lon="6.16328">
        <ele>1782.8</ele>
        <time>2019-08-24T14:09:25Z</time>
      </trkpt>
      <trkpt lat="45.37998" lon="6.16414">
        <ele>1770</ele>
        <time>2019-08-24T14:10:24Z</time>
      </trkpt>
      <trkpt lat="45.37974" lon="6.16459">
        <ele>1761.2</ele>
        <time>2019-08-24T14:10:57Z</time>
      </trkpt>
      <trkpt lat="45.37942" lon="6.16548">
        <ele>1771.4</ele>
        <time>2019-08-24T14:11:56Z</time>
      </trkpt>
      <trkpt lat="45.37939" lon="6.16612">
        <ele>1761.4</ele>
        <time>2019-08-24T14:13:25Z</time>
      </trkpt>
      <trkpt lat="45.37901" lon="6.1661">
        <ele>1771.2</ele>
        <time>2019-08-24T14:14:25Z</time>
      </trkpt>
      <trkpt lat="45.37879" lon="6.16675">
        <ele>1774</ele>
        <time>2019-08-24T14:15:25Z</time>
      </trkpt>
      <trkpt lat="45.37908" lon="6.1673">
        <ele>1778.2</ele>
        <time>2019-08-24T14:16:24Z</time>
      </trkpt>
      <trkpt lat="45.37902" lon="6.16843">
        <ele>1783.4</ele>
        <time>2019-08-24T14:17:55Z</time>
      </trkpt>
      <trkpt lat="45.37939" lon="6.16884">
        <ele>1799</ele>
        <time>2019-08-24T14:18:54Z</time>
      </trkpt>
      <trkpt lat="45.37967" lon="6.16927">
        <ele>1797</ele>
        <time>2019-08-24T14:19:55Z</time>
      </trkpt>
      <trkpt lat="45.38008" lon="6.17029">
        <ele>1797.8</ele>
        <time>2019-08-24T14:21:25Z</time>
      </trkpt>
      <trkpt lat="45.37974" lon="6.17062">
        <ele>1785.2</ele>
        <time>2019-08-24T14:22:25Z</time>
      </trkpt>
      <trkpt lat="45.37913" lon="6.17107">
        <ele>1768.8</ele>
        <time>2019-08-24T14:23:23Z</time>
      </trkpt>
      <trkpt lat="45.37881" lon="6.17064">
        <ele>1751</ele>
        <time>2019-08-24T14:23:55Z</time>
      </trkpt>
      <trkpt lat="45.37804" lon="6.17143">
        <ele>1720.8</ele>
        <time>2019-08-24T14:25:24Z</time>
      </trkpt>
      <trkpt lat="45.37726" lon="6.17188">
        <ele>1704.2</ele>
        <time>2019-08-24T14:27:24Z</time>
      </trkpt>
      <trkpt lat="45.37694" lon="6.17314">
        <ele>1705.8</ele>
        <time>2019-08-24T14:28:24Z</time>
      </trkpt>
      <trkpt lat="45.3765" lon="6.17286">
        <ele>1698.8</ele>
        <time>2019-08-24T14:28:54Z</time>
      </trkpt>
      <trkpt lat="45.37666" lon="6.17335">
        <ele>1685.4</ele>
        <time>2019-08-24T14:29:24Z</time>
      </trkpt>
      <trkpt lat="45.37684" lon="6.17389">
        <ele>1686.6</ele>
        <time>2019-08-24T14:29:54Z</time>
      </trkpt>
      <trkpt lat="45.37731" lon="6.17427">
        <ele>1689.6</ele>
        <time>2019-08-24T14:30:25Z</time>
      </trkpt>
      <trkpt lat="45.37774" lon="6.1749">
        <ele>1670.6</ele>
        <time>2019-08-24T14:31:24Z</time>
      </trkpt>
      <trkpt lat="45.37772" lon="6.17541">
        <ele>1672</ele>
        <time>2019-08-24T14:32:54Z</time>
      </trkpt>
      <trkpt lat="45.3779" lon="6.1763">
        <ele>1682.8</ele>
        <time>2019-08-24T14:33:25Z</time>
      </trkpt>
      <trkpt lat="45.37778" lon="6.1768">
        <ele>1695.2</ele>
        <time>2019-08-24T14:34:25Z</time>
      </trkpt>
      <trkpt lat="45.37771" lon="6.17775">
        <ele>1685.6</ele>
        <time>2019-08-24T14:35:54Z</time>
      </trkpt>
      <trkpt lat="45.37807" lon="6.17807">
        <ele>1678</ele>
        <time>2019-08-24T14:36:24Z</time>
      </trkpt>
      <trkpt lat="45.37818" lon="6.1791">
        <ele>1651.6</ele>
        <time>2019-08-24T14:37:55Z</time>
      </trkpt>
      <trkpt lat="45.3778" lon="6.17952">
        <ele>1617</ele>
        <time>2019-08-24T14:39:24Z</time>
      </trkpt>
      <trkpt lat="45.37735" lon="6.18079">
        <ele>1585.8</ele>
        <time>2019-08-24T14:41:56Z</time>
      </trkpt>
      <trkpt lat="45.3769" lon="6.18148">
        <ele>1558.8</ele>
        <time>2019-08-24T14:42:55Z</time>
      </trkpt>
      <trkpt lat="45.37694" lon="6.18266">
        <ele>1539.6</ele>
        <time>2019-08-24T14:43:55Z</time>
      </trkpt>
      <trkpt lat="45.37711" lon="6.18326">
        <ele>1532.8</ele>
        <time>2019-08-24T14:45:25Z</time>
      </trkpt>
      <trkpt lat="45.37738" lon="6.1844">
        <ele>1513.8</ele>
        <time>2019-08-24T14:46:55Z</time>
      </trkpt>
      <trkpt lat="45.37785" lon="6.18456">
        <ele>1492.4</ele>
        <time>2019-08-24T14:48:25Z</time>
      </trkpt>
      <trkpt lat="45.37843" lon="6.18442">
        <ele>1481.4</ele>
        <time>2019-08-24T14:49:25Z</time>
      </trkpt>
      <trkpt lat="45.37896" lon="6.18474">
        <ele>1475.4</ele>
        <time>2019-08-24T14:50:55Z</time>
      </trkpt>
      <trkpt lat="45.37933" lon="6.18488">
        <ele>1475.8</ele>
        <time>2019-08-24T14:53:56Z</time>
      </trkpt>
      <trkpt lat="45.37942" lon="6.18556">
        <ele>1481.2</ele>
        <time>2019-08-24T14:54:56Z</time>
      </trkpt>
      <trkpt lat="45.37883" lon="6.18547">
        <ele>1495.6</ele>
        <time>2019-08-24T14:56:25Z</time>
      </trkpt>
      <trkpt lat="45.37847" lon="6.18599">
        <ele>1512</ele>
        <time>2019-08-24T14:57:24Z</time>
      </trkpt>
      <trkpt lat="45.37809" lon="6.18674">
        <ele>1525.6</ele>
        <time>2019-08-24T14:59:23Z</time>
      </trkpt>
      <trkpt lat="45.37784" lon="6.18717">
        <ele>1534.8</ele>
        <time>2019-08-24T15:01:54Z</time>
      </trkpt>
      <trkpt lat="45.37753" lon="6.18772">
        <ele>1561.2</ele>
        <time>2019-08-24T15:02:25Z</time>
      </trkpt>
      <trkpt lat="45.37717" lon="6.18793">
        <ele>1576.8</ele>
        <time>2019-08-24T15:03:25Z</time>
      </trkpt>
      <trkpt lat="45.37686" lon="6.18873">
        <ele>1590.8</ele>
        <time>2019-08-24T15:05:24Z</time>
      </trkpt>
      <trkpt lat="45.37649" lon="6.18909">
        <ele>1603.2</ele>
        <time>2019-08-24T15:06:55Z</time>
      </trkpt>
      <trkpt lat="45.37609" lon="6.18886">
        <ele>1619.4</ele>
        <time>2019-08-24T15:07:53Z</time>
      </trkpt>
      <trkpt lat="45.3757" lon="6.18913">
        <ele>1634.8</ele>
        <time>2019-08-24T15:09:24Z</time>
      </trkpt>
      <trkpt lat="45.37581" lon="6.18966">
        <ele>1657.6</ele>
        <time>2019-08-24T15:10:25Z</time>
      </trkpt>
      <trkpt lat="45.37432" lon="6.18901">
        <ele>1668.8</ele>
        <time>2019-08-24T15:12:54Z</time>
      </trkpt>
      <trkpt lat="45.37494" lon="6.18923">
        <ele>1676</ele>
        <time>2019-08-24T15:13:24Z</time>
      </trkpt>
      <trkpt lat="45.3744" lon="6.18909">
        <ele>1689.2</ele>
        <time>2019-08-24T15:18:24Z</time>
      </trkpt>
      <trkpt lat="45.3743" lon="6.18964">
        <ele>1697.6</ele>
        <time>2019-08-24T15:19:24Z</time>
      </trkpt>
      <trkpt lat="45.37373" lon="6.18952">
        <ele>1703.2</ele>
        <time>2019-08-24T15:22:54Z</time>
      </trkpt>
      <trkpt lat="45.37325" lon="6.18919">
        <ele>1722</ele>
        <time>2019-08-24T15:24:56Z</time>
      </trkpt>
      <trkpt lat="45.37237" lon="6.18908">
        <ele>1747</ele>
        <time>2019-08-24T15:27:54Z</time>
      </trkpt>
      <trkpt lat="45.37262" lon="6.18958">
        <ele>1769.4</ele>
        <time>2019-08-24T15:28:54Z</time>
      </trkpt>
      <trkpt lat="45.37197" lon="6.19035">
        <ele>1790.6</ele>
        <time>2019-08-24T15:32:24Z</time>
      </trkpt>
      <trkpt lat="45.37208" lon="6.19127">
        <ele>1813.6</ele>
        <time>2019-08-24T15:33:24Z</time>
      </trkpt>
      <trkpt lat="45.37176" lon="6.19087">
        <ele>1836</ele>
        <time>2019-08-24T15:34:54Z</time>
      </trkpt>
      <trkpt lat="45.37138" lon="6.19128">
        <ele>1859.2</ele>
        <time>2019-08-24T15:36:25Z</time>
      </trkpt>
      <trkpt lat="45.3712" lon="6.19082">
        <ele>1880.8</ele>
        <time>2019-08-24T15:37:24Z</time>
      </trkpt>
      <trkpt lat="45.37074" lon="6.19098">
        <ele>1897.4</ele>
        <time>2019-08-24T15:39:24Z</time>
      </trkpt>
      <trkpt lat="45.37072" lon="6.19155">
        <ele>1912.8</ele>
        <time>2019-08-24T15:40:55Z</time>
      </trkpt>
      <trkpt lat="45.37049" lon="6.19238">
        <ele>1928.8</ele>
        <time>2019-08-24T15:41:54Z</time>
      </trkpt>
      <trkpt lat="45.37086" lon="6.19217">
        <ele>1937.6</ele>
        <time>2019-08-24T15:42:25Z</time>
      </trkpt>
      <trkpt lat="45.37059" lon="6.19267">
        <ele>1942.8</ele>
        <time>2019-08-24T15:44:25Z</time>
      </trkpt>
      <trkpt lat="45.37098" lon="6.19302">
        <ele>1955</ele>
        <time>2019-08-24T15:45:25Z</time>
      </trkpt>
      <trkpt lat="45.37181" lon="6.19349">
        <ele>1961.8</ele>
        <time>2019-08-24T15:46:56Z</time>
      </trkpt>
      <trkpt lat="45.37199" lon="6.19426">
        <ele>1960.2</ele>
        <time>2019-08-24T15:49:25Z</time>
      </trkpt>
      <trkpt lat="45.37281" lon="6.19445">
        <ele>1951.8</ele>
        <time>2019-08-24T15:56:25Z</time>
      </trkpt>
      <trkpt lat="45.3732" lon="6.19487">
        <ele>1947.6</ele>
        <time>2019-08-24T15:57:26Z</time>
      </trkpt>
      <trkpt lat="45.37403" lon="6.1953">
        <ele>1932.4</ele>
        <time>2019-08-24T15:58:54Z</time>
      </trkpt>
      <trkpt lat="45.37491" lon="6.19462">
        <ele>1924.2</ele>
        <time>2019-08-24T16:00:55Z</time>
      </trkpt>
      <trkpt lat="45.37544" lon="6.19457">
        <ele>1911.8</ele>
        <time>2019-08-24T16:01:55Z</time>
      </trkpt>
      <trkpt lat="45.37596" lon="6.19462">
        <ele>1927.8</ele>
        <time>2019-08-24T16:02:56Z</time>
      </trkpt>
      <trkpt lat="45.37633" lon="6.19477">
        <ele>1935.2</ele>
        <time>2019-08-24T16:03:54Z</time>
      </trkpt>
      <trkpt lat="45.37654" lon="6.19528">
        <ele>1947.4</ele>
        <time>2019-08-24T16:04:56Z</time>
      </trkpt>
      <trkpt lat="45.37715" lon="6.19482">
        <ele>1960.8</ele>
        <time>2019-08-24T16:06:25Z</time>
      </trkpt>
      <trkpt lat="45.37756" lon="6.19462">
        <ele>1981.6</ele>
        <time>2019-08-24T16:06:56Z</time>
      </trkpt>
      <trkpt lat="45.37816" lon="6.19497">
        <ele>1986.8</ele>
        <time>2019-08-24T16:09:25Z</time>
      </trkpt>
      <trkpt lat="45.37863" lon="6.19518">
        <ele>1994.8</ele>
        <time>2019-08-24T16:10:55Z</time>
      </trkpt>
      <trkpt lat="45.3786" lon="6.19575">
        <ele>2006.6</ele>
        <time>2019-08-24T16:12:25Z</time>
      </trkpt>
      <trkpt lat="45.37896" lon="6.19577">
        <ele>2021</ele>
        <time>2019-08-24T16:12:55Z</time>
      </trkpt>
      <trkpt lat="45.37937" lon="6.19586">
        <ele>2033</ele>
        <time>2019-08-24T16:13:55Z</time>
      </trkpt>
      <trkpt lat="45.3797" lon="6.19619">
        <ele>2047.6</ele>
        <time>2019-08-24T16:15:25Z</time>
      </trkpt>
      <trkpt lat="45.38005" lon="6.19634">
        <ele>2068</ele>
        <time>2019-08-24T16:19:25Z</time>
      </trkpt>
      <trkpt lat="45.38042" lon="6.19684">
        <ele>2083.4</ele>
        <time>2019-08-24T16:19:56Z</time>
      </trkpt>
      <trkpt lat="45.38078" lon="6.197">
        <ele>2095</ele>
        <time>2019-08-24T16:21:25Z</time>
      </trkpt>
      <trkpt lat="45.38107" lon="6.19636">
        <ele>2115</ele>
        <time>2019-08-24T16:22:56Z</time>
      </trkpt>
      <trkpt lat="45.38112" lon="6.19723">
        <ele>2127.8</ele>
        <time>2019-08-24T16:23:55Z</time>
      </trkpt>
      <trkpt lat="45.38144" lon="6.19753">
        <ele>2116.2</ele>
        <time>2019-08-24T16:24:26Z</time>
      </trkpt>
      <trkpt lat="45.38182" lon="6.19757">
        <ele>2113.4</ele>
        <time>2019-08-24T16:24:56Z</time>
      </trkpt>
      <trkpt lat="45.38218" lon="6.19738">
        <ele>2114</ele>
        <time>2019-08-24T16:25:55Z</time>
      </trkpt>
      <trkpt lat="45.38301" lon="6.1971">
        <ele>2105.8</ele>
        <time>2019-08-24T16:27:54Z</time>
      </trkpt>
      <trkpt lat="45.38344" lon="6.19709">
        <ele>2094</ele>
        <time>2019-08-24T16:28:56Z</time>
      </trkpt>
      <trkpt lat="45.38387" lon="6.19653">
        <ele>2090.6</ele>
        <time>2019-08-24T16:29:55Z</time>
      </trkpt>
      <trkpt lat="45.38436" lon="6.19584">
        <ele>2093.4</ele>
        <time>2019-08-24T16:31:54Z</time>
      </trkpt>
      <trkpt lat="45.38503" lon="6.19567">
        <ele>2096</ele>
        <time>2019-08-24T16:33:55Z</time>
      </trkpt>
      <trkpt lat="45.38538" lon="6.19608">
        <ele>2090.8</ele>
        <time>2019-08-24T16:35:25Z</time>
      </trkpt>
      <trkpt lat="45.38552" lon="6.19664">
        <ele>2082.6</ele>
        <time>2019-08-24T16:42:54Z</time>
      </trkpt>
      <trkpt lat="45.38576" lon="6.19735">
        <ele>2091</ele>
        <time>2019-08-24T16:43:56Z</time>
      </trkpt>
      <trkpt lat="45.38608" lon="6.19772">
        <ele>2100</ele>
        <time>2019-08-24T16:44:57Z</time>
      </trkpt>
      <trkpt lat="45.38534" lon="6.19802">
        <ele>2075.8</ele>
        <time>2019-08-24T16:45:28Z</time>
      </trkpt>
      <trkpt lat="45.38591" lon="6.19797">
        <ele>2074.2</ele>
        <time>2019-08-24T16:46:57Z</time>
      </trkpt>
      <trkpt lat="45.38663" lon="6.1982">
        <ele>2074</ele>
        <time>2019-08-24T16:47:56Z</time>
      </trkpt>
      <trkpt lat="45.38669" lon="6.19874">
        <ele>2092.6</ele>
        <time>2019-08-24T16:48:58Z</time>
      </trkpt>
      <trkpt lat="45.38709" lon="6.19917">
        <ele>2111.4</ele>
        <time>2019-08-24T16:49:28Z</time>
      </trkpt>
      <trkpt lat="45.38651" lon="6.19824">
        <ele>2145</ele>
        <time>2019-08-24T16:50:26Z</time>
      </trkpt>
      <trkpt lat="45.3867" lon="6.19779">
        <ele>2177.6</ele>
        <time>2019-08-24T16:52:56Z</time>
      </trkpt>
      <trkpt lat="45.38702" lon="6.19705">
        <ele>2217</ele>
        <time>2019-08-24T16:53:54Z</time>
      </trkpt>
      <trkpt lat="45.38743" lon="6.19724">
        <ele>2236.8</ele>
        <time>2019-08-24T16:55:26Z</time>
      </trkpt>
      <trkpt lat="45.38792" lon="6.19738">
        <ele>2238</ele>
        <time>2019-08-24T16:57:27Z</time>
      </trkpt>
      <trkpt lat="45.38833" lon="6.19789">
        <ele>2258.6</ele>
        <time>2019-08-24T16:58:27Z</time>
      </trkpt>
      <trkpt lat="45.38883" lon="6.19831">
        <ele>2270.4</ele>
        <time>2019-08-24T16:59:26Z</time>
      </trkpt>
      <trkpt lat="45.38941" lon="6.19827">
        <ele>2262.4</ele>
        <time>2019-08-24T17:00:56Z</time>
      </trkpt>
      <trkpt lat="45.38989" lon="6.19862">
        <ele>2252.4</ele>
        <time>2019-08-24T17:01:56Z</time>
      </trkpt>
      <trkpt lat="45.39064" lon="6.19879">
        <ele>2264</ele>
        <time>2019-08-24T17:03:55Z</time>
      </trkpt>
      <trkpt lat="45.39111" lon="6.19854">
        <ele>2262.2</ele>
        <time>2019-08-24T17:04:25Z</time>
      </trkpt>
      <trkpt lat="45.39143" lon="6.19876">
        <ele>2257.6</ele>
        <time>2019-08-24T17:05:25Z</time>
      </trkpt>
      <trkpt lat="45.3919" lon="6.19911">
        <ele>2271</ele>
        <time>2019-08-24T17:06:25Z</time>
      </trkpt>
      <trkpt lat="45.39222" lon="6.19955">
        <ele>2277</ele>
        <time>2019-08-24T17:07:54Z</time>
      </trkpt>
      <trkpt lat="45.39256" lon="6.2">
        <ele>2265.2</ele>
        <time>2019-08-24T17:08:55Z</time>
      </trkpt>
      <trkpt lat="45.39313" lon="6.20042">
        <ele>2261</ele>
        <time>2019-08-24T17:10:25Z</time>
      </trkpt>
      <trkpt lat="45.39355" lon="6.20105">
        <ele>2251.4</ele>
        <time>2019-08-24T17:11:55Z</time>
      </trkpt>
      <trkpt lat="45.39422" lon="6.20098">
        <ele>2242.8</ele>
        <time>2019-08-24T17:13:24Z</time>
      </trkpt>
      <trkpt lat="45.39461" lon="6.20109">
        <ele>2249.2</ele>
        <time>2019-08-24T17:13:56Z</time>
      </trkpt>
      <trkpt lat="45.39525" lon="6.20089">
        <ele>2258.2</ele>
        <time>2019-08-24T17:15:25Z</time>
      </trkpt>
      <trkpt lat="45.39495" lon="6.20038">
        <ele>2264.2</ele>
        <time>2019-08-24T17:15:55Z</time>
      </trkpt>
      <trkpt lat="45.39541" lon="6.20067">
        <ele>2268.6</ele>
        <time>2019-08-24T17:17:26Z</time>
      </trkpt>
      <trkpt lat="45.39605" lon="6.20027">
        <ele>2281.4</ele>
        <time>2019-08-24T17:19:25Z</time>
      </trkpt>
      <trkpt lat="45.3963" lon="6.19941">
        <ele>2276.8</ele>
        <time>2019-08-24T17:21:25Z</time>
      </trkpt>
      <trkpt lat="45.39651" lon="6.19855">
        <ele>2284.4</ele>
        <time>2019-08-24T17:22:54Z</time>
      </trkpt>
      <trkpt lat="45.39688" lon="6.1986">
        <ele>2285</ele>
        <time>2019-08-24T17:23:26Z</time>
      </trkpt>
      <trkpt lat="45.39738" lon="6.19973">
        <ele>2287.6</ele>
        <time>2019-08-24T17:29:56Z</time>
      </trkpt>
      <trkpt lat="45.39702" lon="6.1988">
        <ele>2259.4</ele>
        <time>2019-08-24T17:30:56Z</time>
      </trkpt>
      <trkpt lat="45.39728" lon="6.19947">
        <ele>2238.2</ele>
        <time>2019-08-24T17:32:25Z</time>
      </trkpt>
      <trkpt lat="45.39776" lon="6.19996">
        <ele>2204.8</ele>
        <time>2019-08-24T17:34:27Z</time>
      </trkpt>
      <trkpt lat="45.39815" lon="6.19978">
        <ele>2173.6</ele>
        <time>2019-08-24T17:35:24Z</time>
      </trkpt>
      <trkpt lat="45.39875" lon="6.19919">
        <ele>2148.4</ele>
        <time>2019-08-24T17:36:24Z</time>
      </trkpt>
      <trkpt lat="45.39915" lon="6.19916">
        <ele>2143.2</ele>
        <time>2019-08-24T17:36:55Z</time>
      </trkpt>
      <trkpt lat="45.39966" lon="6.19818">
        <ele>2125</ele>
        <time>2019-08-24T17:38:55Z</time>
      </trkpt>
      <trkpt lat="45.39982" lon="6.19769">
        <ele>2113.6</ele>
        <time>2019-08-24T17:39:55Z</time>
      </trkpt>
      <trkpt lat="45.39981" lon="6.19716">
        <ele>2108.6</ele>
        <time>2019-08-24T17:40:55Z</time>
      </trkpt>
      <trkpt lat="45.39953" lon="6.19673">
        <ele>2095.4</ele>
        <time>2019-08-24T17:41:55Z</time>
      </trkpt>
      <trkpt lat="45.39949" lon="6.19615">
        <ele>2075.4</ele>
        <time>2019-08-24T17:42:55Z</time>
      </trkpt>
      <trkpt lat="45.39997" lon="6.19589">
        <ele>2060.2</ele>
        <time>2019-08-24T17:43:55Z</time>
      </trkpt>
      <trkpt lat="45.40024" lon="6.19526">
        <ele>2045.8</ele>
        <time>2019-08-24T17:44:55Z</time>
      </trkpt>
      <trkpt lat="45.40071" lon="6.19392">
        <ele>2031.2</ele>
        <time>2019-08-24T17:46:25Z</time>
      </trkpt>
      <trkpt lat="45.40094" lon="6.19304">
        <ele>2022.6</ele>
        <time>2019-08-24T17:47:55Z</time>
      </trkpt>
      <trkpt lat="45.40125" lon="6.19235">
        <ele>2021.6</ele>
        <time>2019-08-24T17:48:55Z</time>
      </trkpt>
      <trkpt lat="45.40168" lon="6.1923">
        <ele>2022.4</ele>
        <time>2019-08-24T17:49:54Z</time>
      </trkpt>
      <trkpt lat="45.40203" lon="6.19165">
        <ele>2023</ele>
        <time>2019-08-24T17:51:24Z</time>
      </trkpt>
      <trkpt lat="45.40228" lon="6.19116">
        <ele>2015.2</ele>
        <time>2019-08-24T17:52:24Z</time>
      </trkpt>
      <trkpt lat="45.40246" lon="6.19014">
        <ele>2005.8</ele>
        <time>2019-08-24T17:53:24Z</time>
      </trkpt>
      <trkpt lat="45.40298" lon="6.19038">
        <ele>1993.4</ele>
        <time>2019-08-24T17:53:54Z</time>
      </trkpt>
      <trkpt lat="45.4034" lon="6.18999">
        <ele>1988</ele>
        <time>2019-08-24T17:54:24Z</time>
      </trkpt>
      <trkpt lat="45.40399" lon="6.18966">
        <ele>1970.8</ele>
        <time>2019-08-24T17:55:24Z</time>
      </trkpt>
      <trkpt lat="45.40457" lon="6.18937">
        <ele>1956.2</ele>
        <time>2019-08-24T17:56:55Z</time>
      </trkpt>
      <trkpt lat="45.40523" lon="6.18905">
        <ele>1945.8</ele>
        <time>2019-08-24T17:57:54Z</time>
      </trkpt>
      <trkpt lat="45.4059" lon="6.1886">
        <ele>1937.4</ele>
        <time>2019-08-24T17:58:55Z</time>
      </trkpt>
      <trkpt lat="45.40627" lon="6.18806">
        <ele>1921.6</ele>
        <time>2019-08-24T17:59:54Z</time>
      </trkpt>
      <trkpt lat="45.40664" lon="6.18719">
        <ele>1911.6</ele>
        <time>2019-08-24T18:01:24Z</time>
      </trkpt>
      <trkpt lat="45.40745" lon="6.18665">
        <ele>1907</ele>
        <time>2019-08-24T18:02:54Z</time>
      </trkpt>
      <trkpt lat="45.40778" lon="6.18593">
        <ele>1890</ele>
        <time>2019-08-24T18:04:24Z</time>
      </trkpt>
      <trkpt lat="45.40776" lon="6.18526">
        <ele>1885.2</ele>
        <time>2019-08-24T18:04:54Z</time>
      </trkpt>
      <trkpt lat="45.40824" lon="6.18467">
        <ele>1888</ele>
        <time>2019-08-24T18:05:25Z</time>
      </trkpt>
      <trkpt lat="45.40858" lon="6.18506">
        <ele>1896.8</ele>
        <time>2019-08-24T18:06:24Z</time>
      </trkpt>
      <trkpt lat="45.4092" lon="6.18474">
        <ele>1899</ele>
        <time>2019-08-24T18:07:25Z</time>
      </trkpt>
      <trkpt lat="45.41013" lon="6.18476">
        <ele>1913</ele>
        <time>2019-08-24T18:08:55Z</time>
      </trkpt>
      <trkpt lat="45.41087" lon="6.18451">
        <ele>1925.6</ele>
        <time>2019-08-24T18:09:54Z</time>
      </trkpt>
      <trkpt lat="45.41124" lon="6.18456">
        <ele>1931.4</ele>
        <time>2019-08-24T18:10:24Z</time>
      </trkpt>
      <trkpt lat="45.41176" lon="6.18455">
        <ele>1930</ele>
        <time>2019-08-24T18:11:24Z</time>
      </trkpt>
      <trkpt lat="45.41217" lon="6.18413">
        <ele>1939</ele>
        <time>2019-08-24T18:12:55Z</time>
      </trkpt>
      <trkpt lat="45.41279" lon="6.18353">
        <ele>1940.2</ele>
        <time>2019-08-24T18:13:54Z</time>
      </trkpt>
      <trkpt lat="45.41282" lon="6.18235">
        <ele>1926.6</ele>
        <time>2019-08-24T18:14:25Z</time>
      </trkpt>
      <trkpt lat="45.41331" lon="6.18181">
        <ele>1917.6</ele>
        <time>2019-08-24T18:15:26Z</time>
      </trkpt>
      <trkpt lat="45.41344" lon="6.18045">
        <ele>1901.8</ele>
        <time>2019-08-24T18:16:24Z</time>
      </trkpt>
      <trkpt lat="45.41329" lon="6.17966">
        <ele>1879.8</ele>
        <time>2019-08-24T18:16:55Z</time>
      </trkpt>
      <trkpt lat="45.41269" lon="6.17842">
        <ele>1863.8</ele>
        <time>2019-08-24T18:18:24Z</time>
      </trkpt>
      <trkpt lat="45.41326" lon="6.17848">
        <ele>1855.8</ele>
        <time>2019-08-24T18:18:55Z</time>
      </trkpt>
      <trkpt lat="45.41409" lon="6.17859">
        <ele>1848.4</ele>
        <time>2019-08-24T18:19:54Z</time>
      </trkpt>
      <trkpt lat="45.41454" lon="6.17847">
        <ele>1849.4</ele>
        <time>2019-08-24T18:20:24Z</time>
      </trkpt>
      <trkpt lat="45.41511" lon="6.17847">
        <ele>1850.8</ele>
        <time>2019-08-24T18:21:25Z</time>
      </trkpt>
      <trkpt lat="45.41574" lon="6.17803">
        <ele>1850</ele>
        <time>2019-08-24T18:22:24Z</time>
      </trkpt>
      <trkpt lat="45.41607" lon="6.17761">
        <ele>1848.8</ele>
        <time>2019-08-24T18:22:54Z</time>
      </trkpt>
      <trkpt lat="45.41625" lon="6.17693">
        <ele>1849.6</ele>
        <time>2019-08-24T18:23:25Z</time>
      </trkpt>
      <trkpt lat="45.4164" lon="6.1762">
        <ele>1846.6</ele>
        <time>2019-08-24T18:23:55Z</time>
      </trkpt>
      <trkpt lat="45.41663" lon="6.17563">
        <ele>1832.8</ele>
        <time>2019-08-24T18:24:25Z</time>
      </trkpt>
      <trkpt lat="45.41741" lon="6.1751">
        <ele>1833.6</ele>
        <time>2019-08-24T18:25:25Z</time>
      </trkpt>
      <trkpt lat="45.41825" lon="6.17412">
        <ele>1832.6</ele>
        <time>2019-08-24T18:26:25Z</time>
      </trkpt>
      <trkpt lat="45.41877" lon="6.17346">
        <ele>1816.2</ele>
        <time>2019-08-24T18:27:26Z</time>
      </trkpt>
      <trkpt lat="45.41888" lon="6.1728">
        <ele>1800.4</ele>
        <time>2019-08-24T18:27:57Z</time>
      </trkpt>
      <trkpt lat="45.41915" lon="6.17198">
        <ele>1799</ele>
        <time>2019-08-24T18:28:56Z</time>
      </trkpt>
      <trkpt lat="45.41933" lon="6.17047">
        <ele>1781</ele>
        <time>2019-08-24T18:31:24Z</time>
      </trkpt>
      <trkpt lat="45.41924" lon="6.16976">
        <ele>1765.6</ele>
        <time>2019-08-24T18:31:54Z</time>
      </trkpt>
      <trkpt lat="45.41893" lon="6.1691">
        <ele>1766.4</ele>
        <time>2019-08-24T18:32:54Z</time>
      </trkpt>
      <trkpt lat="45.41919" lon="6.16874">
        <ele>1772.8</ele>
        <time>2019-08-24T18:43:55Z</time>
      </trkpt>
      <trkpt lat="45.41923" lon="6.16934">
        <ele>1776.2</ele>
        <time>2019-08-24T19:09:55Z</time>
      </trkpt>
      <trkpt lat="45.41972" lon="6.16973">
        <ele>1792.8</ele>
        <time>2019-08-24T19:10:55Z</time>
      </trkpt>
      <trkpt lat="45.42004" lon="6.17033">
        <ele>1812</ele>
        <time>2019-08-24T19:12:25Z</time>
      </trkpt>
      <trkpt lat="45.42052" lon="6.1712">
        <ele>1828.8</ele>
        <time>2019-08-24T19:14:55Z</time>
      </trkpt>
      <trkpt lat="45.42102" lon="6.17154">
        <ele>1842.8</ele>
        <time>2019-08-24T19:16:25Z</time>
      </trkpt>
      <trkpt lat="45.42119" lon="6.17239">
        <ele>1871.8</ele>
        <time>2019-08-24T19:18:55Z</time>
      </trkpt>
      <trkpt lat="45.42116" lon="6.17307">
        <ele>1888.8</ele>
        <time>2019-08-24T19:19:54Z</time>
      </trkpt>
      <trkpt lat="45.42097" lon="6.17355">
        <ele>1901</ele>
        <time>2019-08-24T19:21:55Z</time>
      </trkpt>
      <trkpt lat="45.42088" lon="6.17416">
        <ele>1921.4</ele>
        <time>2019-08-24T19:22:25Z</time>
      </trkpt>
      <trkpt lat="45.42057" lon="6.17457">
        <ele>1942.2</ele>
        <time>2019-08-24T19:23:25Z</time>
      </trkpt>
      <trkpt lat="45.42017" lon="6.17557">
        <ele>1948.4</ele>
        <time>2019-08-24T19:24:25Z</time>
      </trkpt>
      <trkpt lat="45.41957" lon="6.17639">
        <ele>1953.4</ele>
        <time>2019-08-24T19:25:25Z</time>
      </trkpt>
      <trkpt lat="45.419" lon="6.17643">
        <ele>1958.2</ele>
        <time>2019-08-24T19:26:25Z</time>
      </trkpt>
      <trkpt lat="45.41858" lon="6.17712">
        <ele>1956.6</ele>
        <time>2019-08-24T19:27:25Z</time>
      </trkpt>
      <trkpt lat="45.41799" lon="6.17784">
        <ele>1957.6</ele>
        <time>2019-08-24T19:28:25Z</time>
      </trkpt>
      <trkpt lat="45.41733" lon="6.17892">
        <ele>1959</ele>
        <time>2019-08-24T19:29:25Z</time>
      </trkpt>
      <trkpt lat="45.41693" lon="6.17993">
        <ele>1971.6</ele>
        <time>2019-08-24T19:30:55Z</time>
      </trkpt>
      <trkpt lat="45.41658" lon="6.18037">
        <ele>1986.6</ele>
        <time>2019-08-24T19:31:55Z</time>
      </trkpt>
      <trkpt lat="45.41638" lon="6.18103">
        <ele>2000.6</ele>
        <time>2019-08-24T19:33:24Z</time>
      </trkpt>
      <trkpt lat="45.41611" lon="6.18163">
        <ele>2017.6</ele>
        <time>2019-08-24T19:34:55Z</time>
      </trkpt>
      <trkpt lat="45.41589" lon="6.18218">
        <ele>2033.6</ele>
        <time>2019-08-24T19:36:25Z</time>
      </trkpt>
      <trkpt lat="45.41542" lon="6.18272">
        <ele>2049</ele>
        <time>2019-08-24T19:37:55Z</time>
      </trkpt>
      <trkpt lat="45.41515" lon="6.18327">
        <ele>2059.2</ele>
        <time>2019-08-24T19:38:55Z</time>
      </trkpt>
      <trkpt lat="45.41501" lon="6.18388">
        <ele>2072.4</ele>
        <time>2019-08-24T19:39:55Z</time>
      </trkpt>
      <trkpt lat="45.41495" lon="6.18487">
        <ele>2075</ele>
        <time>2019-08-24T19:40:55Z</time>
      </trkpt>
      <trkpt lat="45.41477" lon="6.18532">
        <ele>2070.8</ele>
        <time>2019-08-24T19:41:25Z</time>
      </trkpt>
      <trkpt lat="45.4138" lon="6.18656">
        <ele>2064.2</ele>
        <time>2019-08-24T19:42:55Z</time>
      </trkpt>
      <trkpt lat="45.41324" lon="6.18721">
        <ele>2060.4</ele>
        <time>2019-08-24T19:43:54Z</time>
      </trkpt>
      <trkpt lat="45.41288" lon="6.18742">
        <ele>2056</ele>
        <time>2019-08-24T19:44:25Z</time>
      </trkpt>
      <trkpt lat="45.41268" lon="6.1868">
        <ele>2052.2</ele>
        <time>2019-08-24T19:44:55Z</time>
      </trkpt>
      <trkpt lat="45.41223" lon="6.18754">
        <ele>2054.2</ele>
        <time>2019-08-24T19:45:26Z</time>
      </trkpt>
      <trkpt lat="45.41164" lon="6.18786">
        <ele>2028</ele>
        <time>2019-08-24T19:46:25Z</time>
      </trkpt>
      <trkpt lat="45.41111" lon="6.18826">
        <ele>2012.4</ele>
        <time>2019-08-24T19:47:25Z</time>
      </trkpt>
      <trkpt lat="45.4108" lon="6.18881">
        <ele>1982</ele>
        <time>2019-08-24T19:49:27Z</time>
      </trkpt>
      <trkpt lat="45.41112" lon="6.18963">
        <ele>1955.4</ele>
        <time>2019-08-24T19:51:25Z</time>
      </trkpt>
      <trkpt lat="45.4114" lon="6.19022">
        <ele>1935.8</ele>
        <time>2019-08-24T19:51:55Z</time>
      </trkpt>
      <trkpt lat="45.41182" lon="6.19136">
        <ele>1929</ele>
        <time>2019-08-24T19:53:25Z</time>
      </trkpt>
      <trkpt lat="45.41226" lon="6.19168">
        <ele>1912.6</ele>
        <time>2019-08-24T19:53:56Z</time>
      </trkpt>
      <trkpt lat="45.41269" lon="6.19221">
        <ele>1901</ele>
        <time>2019-08-24T19:54:55Z</time>
      </trkpt>
      <trkpt lat="45.41301" lon="6.19262">
        <ele>1891.4</ele>
        <time>2019-08-24T19:55:25Z</time>
      </trkpt>
      <trkpt lat="45.41344" lon="6.19281">
        <ele>1878</ele>
        <time>2019-08-24T19:55:56Z</time>
      </trkpt>
      <trkpt lat="45.41377" lon="6.19308">
        <ele>1876</ele>
        <time>2019-08-24T19:56:57Z</time>
      </trkpt>
      <trkpt lat="45.41426" lon="6.19309">
        <ele>1868</ele>
        <time>2019-08-24T19:57:56Z</time>
      </trkpt>
      <trkpt lat="45.41459" lon="6.19336">
        <ele>1861.6</ele>
        <time>2019-08-24T19:58:55Z</time>
      </trkpt>
      <trkpt lat="45.4151" lon="6.19363">
        <ele>1849.4</ele>
        <time>2019-08-24T19:59:56Z</time>
      </trkpt>
      <trkpt lat="45.41554" lon="6.1937">
        <ele>1831.6</ele>
        <time>2019-08-24T20:00:56Z</time>
      </trkpt>
      <trkpt lat="45.41626" lon="6.19476">
        <ele>1820.2</ele>
        <time>2019-08-24T20:02:26Z</time>
      </trkpt>
      <trkpt lat="45.41663" lon="6.19514">
        <ele>1814</ele>
        <time>2019-08-24T20:03:25Z</time>
      </trkpt>
      <trkpt lat="45.41687" lon="6.19556">
        <ele>1806.2</ele>
        <time>2019-08-24T20:03:55Z</time>
      </trkpt>
      <trkpt lat="45.41749" lon="6.19616">
        <ele>1797.4</ele>
        <time>2019-08-24T20:04:56Z</time>
      </trkpt>
      <trkpt lat="45.4177" lon="6.19678">
        <ele>1792.6</ele>
        <time>2019-08-24T20:05:55Z</time>
      </trkpt>
      <trkpt lat="45.4182" lon="6.19731">
        <ele>1779</ele>
        <time>2019-08-24T20:06:56Z</time>
      </trkpt>
      <trkpt lat="45.41844" lon="6.19774">
        <ele>1763.8</ele>
        <time>2019-08-24T20:07:26Z</time>
      </trkpt>
      <trkpt lat="45.41861" lon="6.19836">
        <ele>1745.6</ele>
        <time>2019-08-24T20:08:26Z</time>
      </trkpt>
      <trkpt lat="45.41911" lon="6.19835">
        <ele>1738.6</ele>
        <time>2019-08-24T20:08:57Z</time>
      </trkpt>
      <trkpt lat="45.41959" lon="6.19836">
        <ele>1722.2</ele>
        <time>2019-08-24T20:09:57Z</time>
      </trkpt>
      <trkpt lat="45.42023" lon="6.19864">
        <ele>1710.6</ele>
        <time>2019-08-24T20:10:27Z</time>
      </trkpt>
      <trkpt lat="45.4207" lon="6.19857">
        <ele>1705.8</ele>
        <time>2019-08-24T20:11:27Z</time>
      </trkpt>
      <trkpt lat="45.42135" lon="6.19884">
        <ele>1702.8</ele>
        <time>2019-08-24T20:11:58Z</time>
      </trkpt>
      <trkpt lat="45.42191" lon="6.19935">
        <ele>1699.8</ele>
        <time>2019-08-24T20:12:55Z</time>
      </trkpt>
      <trkpt lat="45.42233" lon="6.19966">
        <ele>1696.8</ele>
        <time>2019-08-24T20:13:26Z</time>
      </trkpt>
      <trkpt lat="45.42279" lon="6.19899">
        <ele>1690.6</ele>
        <time>2019-08-24T20:14:56Z</time>
      </trkpt>
      <trkpt lat="45.42343" lon="6.19854">
        <ele>1691.6</ele>
        <time>2019-08-24T20:15:55Z</time>
      </trkpt>
      <trkpt lat="45.42375" lon="6.19908">
        <ele>1698.6</ele>
        <time>2019-08-24T20:17:56Z</time>
      </trkpt>
      <trkpt lat="45.42439" lon="6.19882">
        <ele>1706.8</ele>
        <time>2019-08-24T20:19:55Z</time>
      </trkpt>
      <trkpt lat="45.42428" lon="6.19967">
        <ele>1731.6</ele>
        <time>2019-08-24T20:21:26Z</time>
      </trkpt>
      <trkpt lat="45.42478" lon="6.20003">
        <ele>1751.6</ele>
        <time>2019-08-24T20:23:25Z</time>
      </trkpt>
      <trkpt lat="45.42453" lon="6.20044">
        <ele>1764.8</ele>
        <time>2019-08-24T20:24:25Z</time>
      </trkpt>
      <trkpt lat="45.42467" lon="6.20093">
        <ele>1786.8</ele>
        <time>2019-08-24T20:24:55Z</time>
      </trkpt>
      <trkpt lat="45.42446" lon="6.20149">
        <ele>1806.2</ele>
        <time>2019-08-24T20:26:25Z</time>
      </trkpt>
      <trkpt lat="45.42412" lon="6.20204">
        <ele>1814.8</ele>
        <time>2019-08-24T20:27:55Z</time>
      </trkpt>
      <trkpt lat="45.42432" lon="6.20253">
        <ele>1838.6</ele>
        <time>2019-08-24T20:29:25Z</time>
      </trkpt>
      <trkpt lat="45.42452" lon="6.20298">
        <ele>1856.6</ele>
        <time>2019-08-24T20:30:25Z</time>
      </trkpt>
      <trkpt lat="45.42484" lon="6.20342">
        <ele>1865.4</ele>
        <time>2019-08-24T20:31:55Z</time>
      </trkpt>
      <trkpt lat="45.42496" lon="6.20411">
        <ele>1866.4</ele>
        <time>2019-08-24T20:32:56Z</time>
      </trkpt>
      <trkpt lat="45.42516" lon="6.20471">
        <ele>1887.6</ele>
        <time>2019-08-24T20:34:25Z</time>
      </trkpt>
      <trkpt lat="45.42557" lon="6.20519">
        <ele>1898.2</ele>
        <time>2019-08-24T20:34:55Z</time>
      </trkpt>
      <trkpt lat="45.4258" lon="6.20587">
        <ele>1908.6</ele>
        <time>2019-08-24T20:36:25Z</time>
      </trkpt>
      <trkpt lat="45.42612" lon="6.20623">
        <ele>1925</ele>
        <time>2019-08-24T20:36:55Z</time>
      </trkpt>
      <trkpt lat="45.42641" lon="6.20687">
        <ele>1943</ele>
        <time>2019-08-24T20:37:55Z</time>
      </trkpt>
      <trkpt lat="45.42666" lon="6.2075">
        <ele>1947.4</ele>
        <time>2019-08-24T20:38:55Z</time>
      </trkpt>
      <trkpt lat="45.42708" lon="6.20772">
        <ele>1955.8</ele>
        <time>2019-08-24T20:39:26Z</time>
      </trkpt>
      <trkpt lat="45.42723" lon="6.20821">
        <ele>1958</ele>
        <time>2019-08-24T20:39:56Z</time>
      </trkpt>
      <trkpt lat="45.42751" lon="6.20927">
        <ele>1974.2</ele>
        <time>2019-08-24T20:41:26Z</time>
      </trkpt>
      <trkpt lat="45.4277" lon="6.21026">
        <ele>1982.4</ele>
        <time>2019-08-24T20:42:27Z</time>
      </trkpt>
      <trkpt lat="45.42779" lon="6.21113">
        <ele>1992.2</ele>
        <time>2019-08-24T20:45:25Z</time>
      </trkpt>
      <trkpt lat="45.42826" lon="6.21136">
        <ele>1988.8</ele>
        <time>2019-08-24T20:45:57Z</time>
      </trkpt>
      <trkpt lat="45.42884" lon="6.21208">
        <ele>1995.4</ele>
        <time>2019-08-24T20:46:57Z</time>
      </trkpt>
      <trkpt lat="45.42934" lon="6.21223">
        <ele>1978.4</ele>
        <time>2019-08-24T20:47:28Z</time>
      </trkpt>
      <trkpt lat="45.4297" lon="6.21235">
        <ele>1980.6</ele>
        <time>2019-08-24T20:47:59Z</time>
      </trkpt>
      <trkpt lat="45.43074" lon="6.21282">
        <ele>1974.6</ele>
        <time>2019-08-24T20:48:56Z</time>
      </trkpt>
      <trkpt lat="45.43187" lon="6.21329">
        <ele>1976.6</ele>
        <time>2019-08-24T20:49:55Z</time>
      </trkpt>
      <trkpt lat="45.4326" lon="6.21306">
        <ele>1970.2</ele>
        <time>2019-08-24T20:50:25Z</time>
      </trkpt>
      <trkpt lat="45.4329" lon="6.21372">
        <ele>1962.4</ele>
        <time>2019-08-24T20:50:55Z</time>
      </trkpt>
      <trkpt lat="45.43348" lon="6.21385">
        <ele>1953</ele>
        <time>2019-08-24T20:51:26Z</time>
      </trkpt>
      <trkpt lat="45.43457" lon="6.21482">
        <ele>1944.2</ele>
        <time>2019-08-24T20:52:25Z</time>
      </trkpt>
      <trkpt lat="45.43514" lon="6.21523">
        <ele>1936.6</ele>
        <time>2019-08-24T20:52:57Z</time>
      </trkpt>
      <trkpt lat="45.43601" lon="6.21575">
        <ele>1933.8</ele>
        <time>2019-08-24T20:53:55Z</time>
      </trkpt>
      <trkpt lat="45.43677" lon="6.21611">
        <ele>1934</ele>
        <time>2019-08-24T20:54:26Z</time>
      </trkpt>
      <trkpt lat="45.4372" lon="6.21678">
        <ele>1926</ele>
        <time>2019-08-24T20:54:56Z</time>
      </trkpt>
      <trkpt lat="45.43811" lon="6.21724">
        <ele>1921.4</ele>
        <time>2019-08-24T20:55:55Z</time>
      </trkpt>
      <trkpt lat="45.43867" lon="6.21713">
        <ele>1925.2</ele>
        <time>2019-08-24T20:56:25Z</time>
      </trkpt>
      <trkpt lat="45.43909" lon="6.21717">
        <ele>1926.6</ele>
        <time>2019-08-24T20:56:55Z</time>
      </trkpt>
      <trkpt lat="45.43973" lon="6.21782">
        <ele>1933.4</ele>
        <time>2019-08-24T20:57:56Z</time>
      </trkpt>
      <trkpt lat="45.44027" lon="6.21766">
        <ele>1942</ele>
        <time>2019-08-24T20:58:55Z</time>
      </trkpt>
      <trkpt lat="45.44085" lon="6.21718">
        <ele>1955.4</ele>
        <time>2019-08-24T20:59:55Z</time>
      </trkpt>
      <trkpt lat="45.44142" lon="6.21695">
        <ele>1962.8</ele>
        <time>2019-08-24T21:00:55Z</time>
      </trkpt>
      <trkpt lat="45.44191" lon="6.21708">
        <ele>1971.6</ele>
        <time>2019-08-24T21:01:26Z</time>
      </trkpt>
      <trkpt lat="45.4427" lon="6.21698">
        <ele>1979.8</ele>
        <time>2019-08-24T21:02:26Z</time>
      </trkpt>
      <trkpt lat="45.44328" lon="6.21681">
        <ele>1982.2</ele>
        <time>2019-08-24T21:02:56Z</time>
      </trkpt>
      <trkpt lat="45.44388" lon="6.21671">
        <ele>1982.6</ele>
        <time>2019-08-24T21:03:26Z</time>
      </trkpt>
      <trkpt lat="45.44456" lon="6.21626">
        <ele>1989.4</ele>
        <time>2019-08-24T21:04:25Z</time>
      </trkpt>
      <trkpt lat="45.445" lon="6.21595">
        <ele>1995.6</ele>
        <time>2019-08-24T21:05:25Z</time>
      </trkpt>
      <trkpt lat="45.4454" lon="6.21564">
        <ele>2003.6</ele>
        <time>2019-08-24T21:06:25Z</time>
      </trkpt>
      <trkpt lat="45.44594" lon="6.2148">
        <ele>2016.2</ele>
        <time>2019-08-24T21:07:55Z</time>
      </trkpt>
      <trkpt lat="45.44685" lon="6.21468">
        <ele>2027.8</ele>
        <time>2019-08-24T21:09:25Z</time>
      </trkpt>
      <trkpt lat="45.44725" lon="6.21469">
        <ele>2031.2</ele>
        <time>2019-08-24T21:09:55Z</time>
      </trkpt>
      <trkpt lat="45.44767" lon="6.21474">
        <ele>2035</ele>
        <time>2019-08-24T21:10:25Z</time>
      </trkpt>
      <trkpt lat="45.44832" lon="6.21463">
        <ele>2033.2</ele>
        <time>2019-08-24T21:10:56Z</time>
      </trkpt>
      <trkpt lat="45.4489" lon="6.21443">
        <ele>2035.6</ele>
        <time>2019-08-24T21:11:26Z</time>
      </trkpt>
      <trkpt lat="45.44982" lon="6.21389">
        <ele>2031.8</ele>
        <time>2019-08-24T21:12:25Z</time>
      </trkpt>
      <trkpt lat="45.45007" lon="6.21347">
        <ele>2031.8</ele>
        <time>2019-08-24T21:12:56Z</time>
      </trkpt>
      <trkpt lat="45.45126" lon="6.21318">
        <ele>2031.2</ele>
        <time>2019-08-24T21:13:55Z</time>
      </trkpt>
      <trkpt lat="45.45169" lon="6.21313">
        <ele>2025.2</ele>
        <time>2019-08-24T21:14:25Z</time>
      </trkpt>
      <trkpt lat="45.45232" lon="6.21307">
        <ele>2008</ele>
        <time>2019-08-24T21:15:26Z</time>
      </trkpt>
      <trkpt lat="45.45306" lon="6.21343">
        <ele>1996.4</ele>
        <time>2019-08-24T21:16:25Z</time>
      </trkpt>
      <trkpt lat="45.45357" lon="6.21341">
        <ele>1973.6</ele>
        <time>2019-08-24T21:17:25Z</time>
      </trkpt>
      <trkpt lat="45.454" lon="6.21373">
        <ele>1954.6</ele>
        <time>2019-08-24T21:17:55Z</time>
      </trkpt>
      <trkpt lat="45.45454" lon="6.2135">
        <ele>1942.4</ele>
        <time>2019-08-24T21:18:26Z</time>
      </trkpt>
      <trkpt lat="45.4554" lon="6.21402">
        <ele>1943</ele>
        <time>2019-08-24T21:19:25Z</time>
      </trkpt>
      <trkpt lat="45.45595" lon="6.21433">
        <ele>1943</ele>
        <time>2019-08-24T21:19:56Z</time>
      </trkpt>
      <trkpt lat="45.45624" lon="6.21487">
        <ele>1939.8</ele>
        <time>2019-08-24T21:20:26Z</time>
      </trkpt>
      <trkpt lat="45.45687" lon="6.21581">
        <ele>1934.4</ele>
        <time>2019-08-24T21:20:56Z</time>
      </trkpt>
      <trkpt lat="45.45772" lon="6.21625">
        <ele>1922.6</ele>
        <time>2019-08-24T21:21:56Z</time>
      </trkpt>
      <trkpt lat="45.45836" lon="6.21748">
        <ele>1908.2</ele>
        <time>2019-08-24T21:22:55Z</time>
      </trkpt>
      <trkpt lat="45.45872" lon="6.2179">
        <ele>1888.6</ele>
        <time>2019-08-24T21:23:25Z</time>
      </trkpt>
      <trkpt lat="45.45903" lon="6.21843">
        <ele>1869.6</ele>
        <time>2019-08-24T21:23:55Z</time>
      </trkpt>
      <trkpt lat="45.45983" lon="6.21928">
        <ele>1844.8</ele>
        <time>2019-08-24T21:25:25Z</time>
      </trkpt>
      <trkpt lat="45.46012" lon="6.21981">
        <ele>1826</ele>
        <time>2019-08-24T21:26:26Z</time>
      </trkpt>
      <trkpt lat="45.46094" lon="6.22024">
        <ele>1805.4</ele>
        <time>2019-08-24T21:27:55Z</time>
      </trkpt>
      <trkpt lat="45.46152" lon="6.22024">
        <ele>1780.6</ele>
        <time>2019-08-24T21:28:25Z</time>
      </trkpt>
      <trkpt lat="45.46159" lon="6.21974">
        <ele>1764.8</ele>
        <time>2019-08-24T21:28:56Z</time>
      </trkpt>
      <trkpt lat="45.46209" lon="6.2195">
        <ele>1751.2</ele>
        <time>2019-08-24T21:29:26Z</time>
      </trkpt>
      <trkpt lat="45.46339" lon="6.21989">
        <ele>1738.2</ele>
        <time>2019-08-24T21:30:26Z</time>
      </trkpt>
      <trkpt lat="45.46379" lon="6.21995">
        <ele>1723.2</ele>
        <time>2019-08-24T21:30:56Z</time>
      </trkpt>
      <trkpt lat="45.4645" lon="6.21968">
        <ele>1719.2</ele>
        <time>2019-08-24T21:31:27Z</time>
      </trkpt>
      <trkpt lat="45.46534" lon="6.21896">
        <ele>1697.6</ele>
        <time>2019-08-24T21:32:28Z</time>
      </trkpt>
      <trkpt lat="45.46592" lon="6.21845">
        <ele>1673.8</ele>
        <time>2019-08-24T21:33:26Z</time>
      </trkpt>
      <trkpt lat="45.46582" lon="6.21746">
        <ele>1648.2</ele>
        <time>2019-08-24T21:34:26Z</time>
      </trkpt>
      <trkpt lat="45.46599" lon="6.21655">
        <ele>1620.6</ele>
        <time>2019-08-24T21:35:27Z</time>
      </trkpt>
      <trkpt lat="45.46642" lon="6.21718">
        <ele>1581</ele>
        <time>2019-08-24T21:36:26Z</time>
      </trkpt>
      <trkpt lat="45.46732" lon="6.21757">
        <ele>1564</ele>
        <time>2019-08-24T21:36:56Z</time>
      </trkpt>
      <trkpt lat="45.46785" lon="6.21782">
        <ele>1556.2</ele>
        <time>2019-08-24T21:37:26Z</time>
      </trkpt>
      <trkpt lat="45.46901" lon="6.21817">
        <ele>1546</ele>
        <time>2019-08-24T21:37:56Z</time>
      </trkpt>
      <trkpt lat="45.46971" lon="6.21798">
        <ele>1536.8</ele>
        <time>2019-08-24T21:38:26Z</time>
      </trkpt>
      <trkpt lat="45.47028" lon="6.21853">
        <ele>1536</ele>
        <time>2019-08-24T21:38:56Z</time>
      </trkpt>
      <trkpt lat="45.47104" lon="6.21909">
        <ele>1584.6</ele>
        <time>2019-08-24T21:39:26Z</time>
      </trkpt>
      <trkpt lat="45.4722" lon="6.21863">
        <ele>1573.8</ele>
        <time>2019-08-24T21:40:27Z</time>
      </trkpt>
      <trkpt lat="45.47374" lon="6.2182">
        <ele>1561.6</ele>
        <time>2019-08-24T21:41:26Z</time>
      </trkpt>
      <trkpt lat="45.47275" lon="6.21793">
        <ele>1551</ele>
        <time>2019-08-24T21:41:56Z</time>
      </trkpt>
      <trkpt lat="45.47339" lon="6.21806">
        <ele>1534.2</ele>
        <time>2019-08-24T21:42:26Z</time>
      </trkpt>
      <trkpt lat="45.47393" lon="6.21833">
        <ele>1448.8</ele>
        <time>2019-08-24T21:42:57Z</time>
      </trkpt>
      <trkpt lat="45.47412" lon="6.21771">
        <ele>1414.4</ele>
        <time>2019-08-24T21:43:28Z</time>
      </trkpt>
      <trkpt lat="45.47455" lon="6.21741">
        <ele>1377.6</ele>
        <time>2019-08-24T21:44:57Z</time>
      </trkpt>
      <trkpt lat="45.47582" lon="6.21825">
        <ele>1334.2</ele>
        <time>2019-08-24T21:46:26Z</time>
      </trkpt>
      <trkpt lat="45.47632" lon="6.2177">
        <ele>1295</ele>
        <time>2019-08-24T21:47:57Z</time>
      </trkpt>
      <trkpt lat="45.47659" lon="6.21706">
        <ele>1272.8</ele>
        <time>2019-08-24T21:48:57Z</time>
      </trkpt>
      <trkpt lat="45.47721" lon="6.21773">
        <ele>1254.6</ele>
        <time>2019-08-24T21:49:58Z</time>
      </trkpt>
      <trkpt lat="45.47805" lon="6.21711">
        <ele>1237</ele>
        <time>2019-08-24T21:50:56Z</time>
      </trkpt>
      <trkpt lat="45.47744" lon="6.21639">
        <ele>1221</ele>
        <time>2019-08-24T21:51:26Z</time>
      </trkpt>
      <trkpt lat="45.4776" lon="6.21756">
        <ele>1204.4</ele>
        <time>2019-08-24T21:51:57Z</time>
      </trkpt>
      <trkpt lat="45.47822" lon="6.21694">
        <ele>1186.6</ele>
        <time>2019-08-24T21:52:27Z</time>
      </trkpt>
      <trkpt lat="45.47822" lon="6.21529">
        <ele>1165.2</ele>
        <time>2019-08-24T21:53:28Z</time>
      </trkpt>
      <trkpt lat="45.47817" lon="6.21455">
        <ele>1169.2</ele>
        <time>2019-08-24T21:53:59Z</time>
      </trkpt>
      <trkpt lat="45.4779" lon="6.21307">
        <ele>1161.4</ele>
        <time>2019-08-24T21:54:56Z</time>
      </trkpt>
      <trkpt lat="45.47778" lon="6.21182">
        <ele>1146.8</ele>
        <time>2019-08-24T21:55:26Z</time>
      </trkpt>
      <trkpt lat="45.478" lon="6.21106">
        <ele>1131.4</ele>
        <time>2019-08-24T21:55:57Z</time>
      </trkpt>
      <trkpt lat="45.47815" lon="6.21204">
        <ele>1118</ele>
        <time>2019-08-24T21:56:57Z</time>
      </trkpt>
      <trkpt lat="45.4787" lon="6.21307">
        <ele>1088.2</ele>
        <time>2019-08-24T21:57:28Z</time>
      </trkpt>
      <trkpt lat="45.47924" lon="6.21385">
        <ele>1064.4</ele>
        <time>2019-08-24T21:58:02Z</time>
      </trkpt>
      <trkpt lat="45.48013" lon="6.2154">
        <ele>1058.4</ele>
        <time>2019-08-24T21:58:59Z</time>
      </trkpt>
      <trkpt lat="45.48115" lon="6.21585">
        <ele>1045</ele>
        <time>2019-08-24T21:59:57Z</time>
      </trkpt>
      <trkpt lat="45.48184" lon="6.21612">
        <ele>1039.8</ele>
        <time>2019-08-24T22:00:27Z</time>
      </trkpt>
      <trkpt lat="45.48277" lon="6.21619">
        <ele>1021</ele>
        <time>2019-08-24T22:00:58Z</time>
      </trkpt>
      <trkpt lat="45.48364" lon="6.21692">
        <ele>1014.4</ele>
        <time>2019-08-24T22:02:28Z</time>
      </trkpt>
      <trkpt lat="45.48459" lon="6.21802">
        <ele>999.2</ele>
        <time>2019-08-24T22:03:26Z</time>
      </trkpt>
      <trkpt lat="45.48495" lon="6.21852">
        <ele>999.6</ele>
        <time>2019-08-24T22:03:58Z</time>
      </trkpt>
      <trkpt lat="45.48573" lon="6.21905">
        <ele>987</ele>
        <time>2019-08-24T22:04:29Z</time>
      </trkpt>
      <trkpt lat="45.48644" lon="6.22044">
        <ele>988</ele>
        <time>2019-08-24T22:05:26Z</time>
      </trkpt>
      <trkpt lat="45.48702" lon="6.22103">
        <ele>978.2</ele>
        <time>2019-08-24T22:05:56Z</time>
      </trkpt>
      <trkpt lat="45.48788" lon="6.22198">
        <ele>968.2</ele>
        <time>2019-08-24T22:06:28Z</time>
      </trkpt>
      <trkpt lat="45.488" lon="6.22273">
        <ele>950.8</ele>
        <time>2019-08-24T22:07:27Z</time>
      </trkpt>
      <trkpt lat="45.48878" lon="6.22375">
        <ele>941.4</ele>
        <time>2019-08-24T22:08:27Z</time>
      </trkpt>
      <trkpt lat="45.48935" lon="6.22408">
        <ele>942.8</ele>
        <time>2019-08-24T22:08:57Z</time>
      </trkpt>
      <trkpt lat="45.48948" lon="6.22558">
        <ele>954.8</ele>
        <time>2019-08-24T22:10:28Z</time>
      </trkpt>
      <trkpt lat="45.49036" lon="6.22659">
        <ele>961.2</ele>
        <time>2019-08-24T22:11:56Z</time>
      </trkpt>
      <trkpt lat="45.49076" lon="6.22652">
        <ele>959</ele>
        <time>2019-08-24T22:12:27Z</time>
      </trkpt>
      <trkpt lat="45.49118" lon="6.22708">
        <ele>965.8</ele>
        <time>2019-08-24T22:12:59Z</time>
      </trkpt>
      <trkpt lat="45.49204" lon="6.2279">
        <ele>958.8</ele>
        <time>2019-08-24T22:13:57Z</time>
      </trkpt>
      <trkpt lat="45.49268" lon="6.22883">
        <ele>949.6</ele>
        <time>2019-08-24T22:14:58Z</time>
      </trkpt>
      <trkpt lat="45.49319" lon="6.23047">
        <ele>942.6</ele>
        <time>2019-08-24T22:15:56Z</time>
      </trkpt>
      <trkpt lat="45.49327" lon="6.23104">
        <ele>933.6</ele>
        <time>2019-08-24T22:16:28Z</time>
      </trkpt>
      <trkpt lat="45.49343" lon="6.23235">
        <ele>915.4</ele>
        <time>2019-08-24T22:17:27Z</time>
      </trkpt>
      <trkpt lat="45.49369" lon="6.23364">
        <ele>902.2</ele>
        <time>2019-08-24T22:18:26Z</time>
      </trkpt>
      <trkpt lat="45.49406" lon="6.2342">
        <ele>895</ele>
        <time>2019-08-24T22:18:57Z</time>
      </trkpt>
      <trkpt lat="45.4946" lon="6.23493">
        <ele>903.6</ele>
        <time>2019-08-24T22:19:27Z</time>
      </trkpt>
      <trkpt lat="45.49521" lon="6.2355">
        <ele>912.6</ele>
        <time>2019-08-24T22:19:59Z</time>
      </trkpt>
      <trkpt lat="45.49547" lon="6.23635">
        <ele>927</ele>
        <time>2019-08-24T22:20:57Z</time>
      </trkpt>
      <trkpt lat="45.49603" lon="6.23704">
        <ele>942</ele>
        <time>2019-08-24T22:21:29Z</time>
      </trkpt>
      <trkpt lat="45.49669" lon="6.2379">
        <ele>949.2</ele>
        <time>2019-08-24T22:22:28Z</time>
      </trkpt>
      <trkpt lat="45.49746" lon="6.23921">
        <ele>947</ele>
        <time>2019-08-24T22:23:58Z</time>
      </trkpt>
      <trkpt lat="45.49812" lon="6.23972">
        <ele>951.2</ele>
        <time>2019-08-24T22:24:30Z</time>
      </trkpt>
      <trkpt lat="45.49868" lon="6.24044">
        <ele>948</ele>
        <time>2019-08-24T22:25:30Z</time>
      </trkpt>
      <trkpt lat="45.49927" lon="6.24138">
        <ele>940.4</ele>
        <time>2019-08-24T22:26:27Z</time>
      </trkpt>
      <trkpt lat="45.50024" lon="6.24105">
        <ele>937.2</ele>
        <time>2019-08-24T22:27:26Z</time>
      </trkpt>
      <trkpt lat="45.50067" lon="6.24035">
        <ele>936.4</ele>
        <time>2019-08-24T22:47:00Z</time>
      </trkpt>
      <trkpt lat="45.5011" lon="6.24005">
        <ele>935.6</ele>
        <time>2019-08-24T22:48:02Z</time>
      </trkpt>
      <trkpt lat="45.50117" lon="6.23939">
        <ele>944.6</ele>
        <time>2019-08-24T22:49:02Z</time>
      </trkpt>
      <trkpt lat="45.50143" lon="6.2383">
        <ele>955.6</ele>
        <time>2019-08-24T22:50:01Z</time>
      </trkpt>
      <trkpt lat="45.50124" lon="6.23765">
        <ele>955.4</ele>
        <time>2019-08-24T22:51:03Z</time>
      </trkpt>
      <trkpt lat="45.50188" lon="6.23778">
        <ele>959.4</ele>
        <time>2019-08-24T22:52:02Z</time>
      </trkpt>
      <trkpt lat="45.50232" lon="6.2382">
        <ele>968.4</ele>
        <time>2019-08-24T22:52:33Z</time>
      </trkpt>
      <trkpt lat="45.50242" lon="6.23887">
        <ele>975.4</ele>
        <time>2019-08-24T22:53:34Z</time>
      </trkpt>
      <trkpt lat="45.50271" lon="6.23969">
        <ele>972.8</ele>
        <time>2019-08-24T22:54:34Z</time>
      </trkpt>
      <trkpt lat="45.50304" lon="6.24028">
        <ele>985.2</ele>
        <time>2019-08-24T22:55:33Z</time>
      </trkpt>
      <trkpt lat="45.50342" lon="6.24123">
        <ele>994.2</ele>
        <time>2019-08-24T22:56:32Z</time>
      </trkpt>
      <trkpt lat="45.50328" lon="6.24196">
        <ele>1003.4</ele>
        <time>2019-08-24T22:57:33Z</time>
      </trkpt>
      <trkpt lat="45.50392" lon="6.24226">
        <ele>1009.8</ele>
        <time>2019-08-24T22:58:32Z</time>
      </trkpt>
      <trkpt lat="45.50425" lon="6.24131">
        <ele>1025</ele>
        <time>2019-08-24T23:00:02Z</time>
      </trkpt>
      <trkpt lat="45.50455" lon="6.24024">
        <ele>1039.6</ele>
        <time>2019-08-24T23:01:32Z</time>
      </trkpt>
      <trkpt lat="45.50502" lon="6.24123">
        <ele>1054.8</ele>
        <time>2019-08-24T23:02:33Z</time>
      </trkpt>
      <trkpt lat="45.50556" lon="6.2424">
        <ele>1067</ele>
        <time>2019-08-24T23:04:02Z</time>
      </trkpt>
      <trkpt lat="45.50533" lon="6.24328">
        <ele>1074.4</ele>
        <time>2019-08-24T23:05:03Z</time>
      </trkpt>
      <trkpt lat="45.50586" lon="6.24376">
        <ele>1095.6</ele>
        <time>2019-08-24T23:06:03Z</time>
      </trkpt>
      <trkpt lat="45.50677" lon="6.24523">
        <ele>1117.8</ele>
        <time>2019-08-24T23:08:32Z</time>
      </trkpt>
      <trkpt lat="45.50729" lon="6.24607">
        <ele>1125.2</ele>
        <time>2019-08-24T23:10:32Z</time>
      </trkpt>
      <trkpt lat="45.50775" lon="6.24663">
        <ele>1147</ele>
        <time>2019-08-24T23:12:03Z</time>
      </trkpt>
      <trkpt lat="45.50811" lon="6.24723">
        <ele>1170.2</ele>
        <time>2019-08-24T23:13:01Z</time>
      </trkpt>
      <trkpt lat="45.50803" lon="6.24786">
        <ele>1184.4</ele>
        <time>2019-08-24T23:13:33Z</time>
      </trkpt>
      <trkpt lat="45.5084" lon="6.24795">
        <ele>1194.8</ele>
        <time>2019-08-24T23:14:03Z</time>
      </trkpt>
      <trkpt lat="45.5086" lon="6.24841">
        <ele>1215.8</ele>
        <time>2019-08-24T23:15:05Z</time>
      </trkpt>
      <trkpt lat="45.50883" lon="6.24915">
        <ele>1220</ele>
        <time>2019-08-24T23:16:33Z</time>
      </trkpt>
      <trkpt lat="45.50908" lon="6.24985">
        <ele>1229.4</ele>
        <time>2019-08-24T23:17:03Z</time>
      </trkpt>
      <trkpt lat="45.50968" lon="6.25032">
        <ele>1235.8</ele>
        <time>2019-08-24T23:20:02Z</time>
      </trkpt>
      <trkpt lat="45.50986" lon="6.25152">
        <ele>1247</ele>
        <time>2019-08-24T23:20:32Z</time>
      </trkpt>
      <trkpt lat="45.51005" lon="6.252">
        <ele>1251.6</ele>
        <time>2019-08-24T23:21:04Z</time>
      </trkpt>
      <trkpt lat="45.51008" lon="6.25277">
        <ele>1262.2</ele>
        <time>2019-08-24T23:22:06Z</time>
      </trkpt>
      <trkpt lat="45.51058" lon="6.25352">
        <ele>1269.8</ele>
        <time>2019-08-24T23:23:01Z</time>
      </trkpt>
      <trkpt lat="45.51073" lon="6.25416">
        <ele>1269.2</ele>
        <time>2019-08-24T23:24:01Z</time>
      </trkpt>
      <trkpt lat="45.51098" lon="6.25459">
        <ele>1265</ele>
        <time>2019-08-24T23:24:34Z</time>
      </trkpt>
      <trkpt lat="45.51117" lon="6.25561">
        <ele>1270.4</ele>
        <time>2019-08-24T23:25:33Z</time>
      </trkpt>
      <trkpt lat="45.51136" lon="6.25658">
        <ele>1276.2</ele>
        <time>2019-08-24T23:26:32Z</time>
      </trkpt>
      <trkpt lat="45.5111" lon="6.25718">
        <ele>1284.6</ele>
        <time>2019-08-24T23:27:02Z</time>
      </trkpt>
      <trkpt lat="45.51115" lon="6.25775">
        <ele>1292.6</ele>
        <time>2019-08-24T23:27:32Z</time>
      </trkpt>
      <trkpt lat="45.51078" lon="6.25836">
        <ele>1300.8</ele>
        <time>2019-08-24T23:28:32Z</time>
      </trkpt>
      <trkpt lat="45.51095" lon="6.25944">
        <ele>1315.6</ele>
        <time>2019-08-24T23:29:31Z</time>
      </trkpt>
      <trkpt lat="45.51098" lon="6.2602">
        <ele>1329.4</ele>
        <time>2019-08-24T23:30:01Z</time>
      </trkpt>
      <trkpt lat="45.51173" lon="6.26065">
        <ele>1339.6</ele>
        <time>2019-08-24T23:31:03Z</time>
      </trkpt>
      <trkpt lat="45.5124" lon="6.26038">
        <ele>1357.2</ele>
        <time>2019-08-24T23:33:33Z</time>
      </trkpt>
      <trkpt lat="45.51286" lon="6.26089">
        <ele>1371.4</ele>
        <time>2019-08-24T23:34:32Z</time>
      </trkpt>
      <trkpt lat="45.51362" lon="6.26106">
        <ele>1374.2</ele>
        <time>2019-08-24T23:35:33Z</time>
      </trkpt>
      <trkpt lat="45.51384" lon="6.262">
        <ele>1381.2</ele>
        <time>2019-08-24T23:36:35Z</time>
      </trkpt>
      <trkpt lat="45.5144" lon="6.26262">
        <ele>1376</ele>
        <time>2019-08-24T23:37:36Z</time>
      </trkpt>
      <trkpt lat="45.51517" lon="6.26259">
        <ele>1375.4</ele>
        <time>2019-08-24T23:39:02Z</time>
      </trkpt>
      <trkpt lat="45.51479" lon="6.26187">
        <ele>1379.2</ele>
        <time>2019-08-24T23:39:32Z</time>
      </trkpt>
      <trkpt lat="45.51546" lon="6.26099">
        <ele>1382</ele>
        <time>2019-08-24T23:40:33Z</time>
      </trkpt>
      <trkpt lat="45.51586" lon="6.26045">
        <ele>1377.2</ele>
        <time>2019-08-24T23:41:35Z</time>
      </trkpt>
      <trkpt lat="45.51643" lon="6.26034">
        <ele>1383.6</ele>
        <time>2019-08-24T23:42:06Z</time>
      </trkpt>
      <trkpt lat="45.51708" lon="6.26003">
        <ele>1388.2</ele>
        <time>2019-08-24T23:43:04Z</time>
      </trkpt>
      <trkpt lat="45.51796" lon="6.26013">
        <ele>1394</ele>
        <time>2019-08-24T23:44:04Z</time>
      </trkpt>
      <trkpt lat="45.5187" lon="6.26015">
        <ele>1400.6</ele>
        <time>2019-08-24T23:45:04Z</time>
      </trkpt>
      <trkpt lat="45.51938" lon="6.26023">
        <ele>1410.8</ele>
        <time>2019-08-24T23:46:02Z</time>
      </trkpt>
      <trkpt lat="45.51978" lon="6.26032">
        <ele>1419.8</ele>
        <time>2019-08-24T23:46:33Z</time>
      </trkpt>
      <trkpt lat="45.52052" lon="6.26067">
        <ele>1424</ele>
        <time>2019-08-24T23:47:32Z</time>
      </trkpt>
      <trkpt lat="45.52104" lon="6.26078">
        <ele>1418.6</ele>
        <time>2019-08-24T23:48:03Z</time>
      </trkpt>
      <trkpt lat="45.52146" lon="6.2603">
        <ele>1420.4</ele>
        <time>2019-08-24T23:49:33Z</time>
      </trkpt>
      <trkpt lat="45.52168" lon="6.2598">
        <ele>1410.2</ele>
        <time>2019-08-24T23:50:04Z</time>
      </trkpt>
      <trkpt lat="45.52252" lon="6.25951">
        <ele>1403.8</ele>
        <time>2019-08-24T23:51:03Z</time>
      </trkpt>
      <trkpt lat="45.52336" lon="6.25963">
        <ele>1393.2</ele>
        <time>2019-08-24T23:52:22Z</time>
      </trkpt>
      <trkpt lat="45.52374" lon="6.25964">
        <ele>1388.4</ele>
        <time>2019-08-24T23:53:02Z</time>
      </trkpt>
      <trkpt lat="45.52435" lon="6.26002">
        <ele>1367.6</ele>
        <time>2019-08-24T23:53:34Z</time>
      </trkpt>
      <trkpt lat="45.52501" lon="6.26018">
        <ele>1361</ele>
        <time>2019-08-24T23:54:32Z</time>
      </trkpt>
      <trkpt lat="45.52604" lon="6.25874">
        <ele>1352.4</ele>
        <time>2019-08-24T23:55:33Z</time>
      </trkpt>
      <trkpt lat="45.52736" lon="6.25784">
        <ele>1348.2</ele>
        <time>2019-08-24T23:56:32Z</time>
      </trkpt>
      <trkpt lat="45.52828" lon="6.25733">
        <ele>1347.6</ele>
        <time>2019-08-24T23:58:32Z</time>
      </trkpt>
      <trkpt lat="45.52913" lon="6.2571">
        <ele>1345.6</ele>
        <time>2019-08-24T23:59:04Z</time>
      </trkpt>
      <trkpt lat="45.53021" lon="6.25658">
        <ele>1337.2</ele>
        <time>2019-08-25T00:00:02Z</time>
      </trkpt>
      <trkpt lat="45.53087" lon="6.25604">
        <ele>1307</ele>
        <time>2019-08-25T00:00:32Z</time>
      </trkpt>
      <trkpt lat="45.53129" lon="6.2568">
        <ele>1282.4</ele>
        <time>2019-08-25T00:01:03Z</time>
      </trkpt>
      <trkpt lat="45.53224" lon="6.25696">
        <ele>1254.2</ele>
        <time>2019-08-25T00:02:31Z</time>
      </trkpt>
      <trkpt lat="45.53281" lon="6.25738">
        <ele>1233.6</ele>
        <time>2019-08-25T00:03:02Z</time>
      </trkpt>
      <trkpt lat="45.53353" lon="6.25806">
        <ele>1203.4</ele>
        <time>2019-08-25T00:03:32Z</time>
      </trkpt>
      <trkpt lat="45.53489" lon="6.25903">
        <ele>1181.4</ele>
        <time>2019-08-25T00:04:33Z</time>
      </trkpt>
      <trkpt lat="45.53606" lon="6.25978">
        <ele>1196.6</ele>
        <time>2019-08-25T00:05:32Z</time>
      </trkpt>
      <trkpt lat="45.53684" lon="6.26112">
        <ele>1178.2</ele>
        <time>2019-08-25T00:06:32Z</time>
      </trkpt>
      <trkpt lat="45.53778" lon="6.26247">
        <ele>1166.4</ele>
        <time>2019-08-25T00:07:32Z</time>
      </trkpt>
      <trkpt lat="45.53808" lon="6.26213">
        <ele>1147</ele>
        <time>2019-08-25T00:08:05Z</time>
      </trkpt>
      <trkpt lat="45.53907" lon="6.26299">
        <ele>1138.4</ele>
        <time>2019-08-25T00:09:03Z</time>
      </trkpt>
      <trkpt lat="45.53996" lon="6.26419">
        <ele>1081.2</ele>
        <time>2019-08-25T00:10:31Z</time>
      </trkpt>
      <trkpt lat="45.54051" lon="6.26506">
        <ele>1051.2</ele>
        <time>2019-08-25T00:11:04Z</time>
      </trkpt>
      <trkpt lat="45.54055" lon="6.26641">
        <ele>1010.8</ele>
        <time>2019-08-25T00:12:02Z</time>
      </trkpt>
      <trkpt lat="45.54088" lon="6.26712">
        <ele>994.4</ele>
        <time>2019-08-25T00:12:32Z</time>
      </trkpt>
      <trkpt lat="45.54132" lon="6.26764">
        <ele>968.8</ele>
        <time>2019-08-25T00:13:02Z</time>
      </trkpt>
      <trkpt lat="45.54169" lon="6.26826">
        <ele>946</ele>
        <time>2019-08-25T00:13:33Z</time>
      </trkpt>
      <trkpt lat="45.54207" lon="6.26866">
        <ele>926.4</ele>
        <time>2019-08-25T00:14:04Z</time>
      </trkpt>
      <trkpt lat="45.54275" lon="6.26958">
        <ele>909.6</ele>
        <time>2019-08-25T00:15:01Z</time>
      </trkpt>
      <trkpt lat="45.54321" lon="6.2701">
        <ele>889.2</ele>
        <time>2019-08-25T00:15:31Z</time>
      </trkpt>
      <trkpt lat="45.54348" lon="6.27074">
        <ele>872.4</ele>
        <time>2019-08-25T00:16:32Z</time>
      </trkpt>
      <trkpt lat="45.54304" lon="6.27108">
        <ele>862</ele>
        <time>2019-08-25T00:17:02Z</time>
      </trkpt>
      <trkpt lat="45.54262" lon="6.27151">
        <ele>849</ele>
        <time>2019-08-25T00:17:32Z</time>
      </trkpt>
      <trkpt lat="45.54159" lon="6.27166">
        <ele>835.8</ele>
        <time>2019-08-25T00:18:32Z</time>
      </trkpt>
      <trkpt lat="45.54215" lon="6.27259">
        <ele>826.4</ele>
        <time>2019-08-25T00:19:31Z</time>
      </trkpt>
      <trkpt lat="45.54149" lon="6.27242">
        <ele>826.6</ele>
        <time>2019-08-25T00:20:01Z</time>
      </trkpt>
      <trkpt lat="45.54086" lon="6.27208">
        <ele>807</ele>
        <time>2019-08-25T00:20:33Z</time>
      </trkpt>
      <trkpt lat="45.53957" lon="6.27133">
        <ele>788.2</ele>
        <time>2019-08-25T00:21:36Z</time>
      </trkpt>
      <trkpt lat="45.5401" lon="6.27258">
        <ele>782.8</ele>
        <time>2019-08-25T00:22:31Z</time>
      </trkpt>
      <trkpt lat="45.54036" lon="6.27336">
        <ele>770.4</ele>
        <time>2019-08-25T00:23:02Z</time>
      </trkpt>
      <trkpt lat="45.54112" lon="6.27383">
        <ele>752.4</ele>
        <time>2019-08-25T00:23:32Z</time>
      </trkpt>
      <trkpt lat="45.54147" lon="6.27413">
        <ele>743.4</ele>
        <time>2019-08-25T00:24:02Z</time>
      </trkpt>
      <trkpt lat="45.54188" lon="6.27467">
        <ele>743.6</ele>
        <time>2019-08-25T00:24:32Z</time>
      </trkpt>
      <trkpt lat="45.54241" lon="6.27518">
        <ele>737.6</ele>
        <time>2019-08-25T00:25:05Z</time>
      </trkpt>
      <trkpt lat="45.54258" lon="6.27685">
        <ele>711.6</ele>
        <time>2019-08-25T00:26:01Z</time>
      </trkpt>
      <trkpt lat="45.54311" lon="6.27767">
        <ele>699.6</ele>
        <time>2019-08-25T00:26:34Z</time>
      </trkpt>
      <trkpt lat="45.54397" lon="6.2784">
        <ele>697</ele>
        <time>2019-08-25T00:27:31Z</time>
      </trkpt>
      <trkpt lat="45.54415" lon="6.27943">
        <ele>682.8</ele>
        <time>2019-08-25T00:28:03Z</time>
      </trkpt>
      <trkpt lat="45.54511" lon="6.28067">
        <ele>662</ele>
        <time>2019-08-25T00:29:01Z</time>
      </trkpt>
      <trkpt lat="45.54564" lon="6.28109">
        <ele>663.2</ele>
        <time>2019-08-25T00:29:32Z</time>
      </trkpt>
      <trkpt lat="45.54599" lon="6.28161">
        <ele>652.6</ele>
        <time>2019-08-25T00:30:02Z</time>
      </trkpt>
      <trkpt lat="45.54648" lon="6.28218">
        <ele>645</ele>
        <time>2019-08-25T00:30:32Z</time>
      </trkpt>
      <trkpt lat="45.54715" lon="6.28277">
        <ele>635</ele>
        <time>2019-08-25T00:31:03Z</time>
      </trkpt>
      <trkpt lat="45.54823" lon="6.28369">
        <ele>633.8</ele>
        <time>2019-08-25T00:32:01Z</time>
      </trkpt>
      <trkpt lat="45.54884" lon="6.28392">
        <ele>622.6</ele>
        <time>2019-08-25T00:32:31Z</time>
      </trkpt>
      <trkpt lat="45.54948" lon="6.28412">
        <ele>616.4</ele>
        <time>2019-08-25T00:33:01Z</time>
      </trkpt>
      <trkpt lat="45.55018" lon="6.2847">
        <ele>600.8</ele>
        <time>2019-08-25T00:34:01Z</time>
      </trkpt>
      <trkpt lat="45.5498" lon="6.28539">
        <ele>586.8</ele>
        <time>2019-08-25T00:34:31Z</time>
      </trkpt>
      <trkpt lat="45.54898" lon="6.2865">
        <ele>558</ele>
        <time>2019-08-25T00:35:36Z</time>
      </trkpt>
      <trkpt lat="45.54765" lon="6.28631">
        <ele>537.4</ele>
        <time>2019-08-25T00:36:38Z</time>
      </trkpt>
      <trkpt lat="45.54694" lon="6.28626">
        <ele>508.6</ele>
        <time>2019-08-25T00:37:32Z</time>
      </trkpt>
      <trkpt lat="45.54682" lon="6.28777">
        <ele>482.2</ele>
        <time>2019-08-25T00:39:01Z</time>
      </trkpt>
      <trkpt lat="45.54729" lon="6.28837">
        <ele>446.2</ele>
        <time>2019-08-25T00:39:33Z</time>
      </trkpt>
      <trkpt lat="45.54811" lon="6.28958">
        <ele>581.4</ele>
        <time>2019-08-25T00:40:33Z</time>
      </trkpt>
      <trkpt lat="45.54878" lon="6.28914">
        <ele>566.6</ele>
        <time>2019-08-25T00:41:03Z</time>
      </trkpt>
      <trkpt lat="45.54824" lon="6.29326">
        <ele>549</ele>
        <time>2019-08-25T00:41:38Z</time>
      </trkpt>
      <trkpt lat="45.54751" lon="6.29039">
        <ele>535.8</ele>
        <time>2019-08-25T00:42:33Z</time>
      </trkpt>
      <trkpt lat="45.54748" lon="6.29133">
        <ele>542.6</ele>
        <time>2019-08-25T00:43:31Z</time>
      </trkpt>
      <trkpt lat="45.547" lon="6.29193">
        <ele>385.2</ele>
        <time>2019-08-25T00:44:01Z</time>
      </trkpt>
      <trkpt lat="45.54681" lon="6.29271">
        <ele>375.2</ele>
        <time>2019-08-25T00:44:31Z</time>
      </trkpt>
      <trkpt lat="45.54607" lon="6.29322">
        <ele>376.6</ele>
        <time>2019-08-25T00:45:01Z</time>
      </trkpt>
      <trkpt lat="45.5458" lon="6.29503">
        <ele>376.6</ele>
        <time>2019-08-25T00:46:00Z</time>
      </trkpt>
      <trkpt lat="45.54565" lon="6.29605">
        <ele>373.2</ele>
        <time>2019-08-25T00:46:31Z</time>
      </trkpt>
      <trkpt lat="45.54552" lon="6.29693">
        <ele>370.8</ele>
        <time>2019-08-25T00:47:03Z</time>
      </trkpt>
      <trkpt lat="45.54457" lon="6.29796">
        <ele>374.8</ele>
        <time>2019-08-25T00:48:00Z</time>
      </trkpt>
      <trkpt lat="45.54391" lon="6.29852">
        <ele>385.6</ele>
        <time>2019-08-25T00:48:31Z</time>
      </trkpt>
      <trkpt lat="45.54306" lon="6.29953">
        <ele>386.8</ele>
        <time>2019-08-25T00:49:31Z</time>
      </trkpt>
      <trkpt lat="45.54248" lon="6.30089">
        <ele>386.6</ele>
        <time>2019-08-25T00:50:31Z</time>
      </trkpt>
      <trkpt lat="45.54308" lon="6.30143">
        <ele>391.8</ele>
        <time>2019-08-25T00:51:01Z</time>
      </trkpt>
      <trkpt lat="45.54339" lon="6.30219">
        <ele>392.8</ele>
        <time>2019-08-25T00:51:31Z</time>
      </trkpt>
      <trkpt lat="45.54446" lon="6.30299">
        <ele>383.6</ele>
        <time>2019-08-25T00:52:30Z</time>
      </trkpt>
      <trkpt lat="45.54523" lon="6.30293">
        <ele>384</ele>
        <time>2019-08-25T00:53:01Z</time>
      </trkpt>
      <trkpt lat="45.54544" lon="6.30241">
        <ele>385.33</ele>
        <time>2019-08-25T00:53:32Z</time>
      </trkpt>
    </trkseg>
  </trk>
</gpx>